<?xml version="1.0" encoding="UTF-8" standalone="no" ?>
<gpx xmlns="http://www.topografix.com/GPX/1/1" xmlns:xsi="http://www.w3.org/2001/XMLSchema-instance" xsi:schemaLocation="http://www.topografix.com/GPX/1/1 http://www.topografix.com/GPX/1/1/gpx.xsd" version="1.1" creator="VisuGPX - https://www.visugpx.com">
  <metadata>
    <name>crete de brouffier rouge  12-03-2020</name>
    <desc><![CDATA[fin de saison : peu de neige
]]></desc>
  </metadata>
  <trk>
    <name><![CDATA[crete de brouffier rouge  12-03-2020]]></name>
    <trkseg>
      <trkpt lat="45.02873" lon="5.8571">
        <ele>1358.48</ele>
        <time>2020-03-12T08:32:36Z</time>
      </trkpt>
      <trkpt lat="45.02883" lon="5.85691">
        <ele>1358</ele>
        <time>2020-03-12T08:32:53Z</time>
      </trkpt>
      <trkpt lat="45.02883" lon="5.8569">
        <ele>1357.52</ele>
        <time>2020-03-12T08:32:54Z</time>
      </trkpt>
      <trkpt lat="45.02879" lon="5.8567">
        <ele>1358</ele>
        <time>2020-03-12T08:33:11Z</time>
      </trkpt>
      <trkpt lat="45.0289" lon="5.85658">
        <ele>1358</ele>
        <time>2020-03-12T08:33:24Z</time>
      </trkpt>
      <trkpt lat="45.02904" lon="5.85645">
        <ele>1357.04</ele>
        <time>2020-03-12T08:33:40Z</time>
      </trkpt>
      <trkpt lat="45.02917" lon="5.85633">
        <ele>1357.52</ele>
        <time>2020-03-12T08:33:55Z</time>
      </trkpt>
      <trkpt lat="45.02932" lon="5.85624">
        <ele>1357.04</ele>
        <time>2020-03-12T08:34:08Z</time>
      </trkpt>
      <trkpt lat="45.02937" lon="5.85621">
        <ele>1357.04</ele>
        <time>2020-03-12T08:34:12Z</time>
      </trkpt>
      <trkpt lat="45.02944" lon="5.85617">
        <ele>1357.04</ele>
        <time>2020-03-12T08:34:18Z</time>
      </trkpt>
      <trkpt lat="45.02948" lon="5.85615">
        <ele>1362.81</ele>
        <time>2020-03-12T08:34:22Z</time>
      </trkpt>
      <trkpt lat="45.02949" lon="5.85615">
        <ele>1351.27</ele>
        <time>2020-03-12T08:34:23Z</time>
      </trkpt>
      <trkpt lat="45.0295" lon="5.85614">
        <ele>1352.71</ele>
        <time>2020-03-12T08:34:24Z</time>
      </trkpt>
      <trkpt lat="45.02951" lon="5.85613">
        <ele>1368.09</ele>
        <time>2020-03-12T08:34:25Z</time>
      </trkpt>
      <trkpt lat="45.02952" lon="5.85612">
        <ele>1354.15</ele>
        <time>2020-03-12T08:34:26Z</time>
      </trkpt>
      <trkpt lat="45.02952" lon="5.85612">
        <ele>1362.81</ele>
        <time>2020-03-12T08:34:27Z</time>
      </trkpt>
      <trkpt lat="45.02954" lon="5.8561">
        <ele>1358</ele>
        <time>2020-03-12T08:34:29Z</time>
      </trkpt>
      <trkpt lat="45.02957" lon="5.85607">
        <ele>1341.18</ele>
        <time>2020-03-12T08:34:34Z</time>
      </trkpt>
      <trkpt lat="45.02958" lon="5.85607">
        <ele>1373.38</ele>
        <time>2020-03-12T08:34:35Z</time>
      </trkpt>
      <trkpt lat="45.02959" lon="5.85607">
        <ele>1359.44</ele>
        <time>2020-03-12T08:34:36Z</time>
      </trkpt>
      <trkpt lat="45.0296" lon="5.85607">
        <ele>1357.52</ele>
        <time>2020-03-12T08:34:38Z</time>
      </trkpt>
      <trkpt lat="45.02964" lon="5.85609">
        <ele>1357.52</ele>
        <time>2020-03-12T08:34:44Z</time>
      </trkpt>
      <trkpt lat="45.02968" lon="5.85614">
        <ele>1358</ele>
        <time>2020-03-12T08:34:50Z</time>
      </trkpt>
      <trkpt lat="45.0298" lon="5.85627">
        <ele>1359.92</ele>
        <time>2020-03-12T08:35:05Z</time>
      </trkpt>
      <trkpt lat="45.0299" lon="5.85633">
        <ele>1361.84</ele>
        <time>2020-03-12T08:35:17Z</time>
      </trkpt>
      <trkpt lat="45.02993" lon="5.85636">
        <ele>1362.81</ele>
        <time>2020-03-12T08:35:28Z</time>
      </trkpt>
      <trkpt lat="45.02994" lon="5.85638">
        <ele>1354.63</ele>
        <time>2020-03-12T08:35:31Z</time>
      </trkpt>
      <trkpt lat="45.02994" lon="5.8564">
        <ele>1364.73</ele>
        <time>2020-03-12T08:35:32Z</time>
      </trkpt>
      <trkpt lat="45.02994" lon="5.85651">
        <ele>1364.73</ele>
        <time>2020-03-12T08:35:43Z</time>
      </trkpt>
      <trkpt lat="45.02993" lon="5.85662">
        <ele>1366.17</ele>
        <time>2020-03-12T08:35:53Z</time>
      </trkpt>
      <trkpt lat="45.02995" lon="5.85669">
        <ele>1361.36</ele>
        <time>2020-03-12T08:36:01Z</time>
      </trkpt>
      <trkpt lat="45.02995" lon="5.8567">
        <ele>1371.94</ele>
        <time>2020-03-12T08:36:02Z</time>
      </trkpt>
      <trkpt lat="45.02995" lon="5.85671">
        <ele>1368.09</ele>
        <time>2020-03-12T08:36:03Z</time>
      </trkpt>
      <trkpt lat="45.02998" lon="5.85685">
        <ele>1369.05</ele>
        <time>2020-03-12T08:36:17Z</time>
      </trkpt>
      <trkpt lat="45.03" lon="5.85701">
        <ele>1370.98</ele>
        <time>2020-03-12T08:36:31Z</time>
      </trkpt>
      <trkpt lat="45.03002" lon="5.85722">
        <ele>1373.86</ele>
        <time>2020-03-12T08:36:45Z</time>
      </trkpt>
      <trkpt lat="45.02999" lon="5.85732">
        <ele>1374.34</ele>
        <time>2020-03-12T08:36:54Z</time>
      </trkpt>
      <trkpt lat="45.03" lon="5.85747">
        <ele>1376.26</ele>
        <time>2020-03-12T08:37:08Z</time>
      </trkpt>
      <trkpt lat="45.02999" lon="5.85763">
        <ele>1378.67</ele>
        <time>2020-03-12T08:37:21Z</time>
      </trkpt>
      <trkpt lat="45.03" lon="5.85769">
        <ele>1379.15</ele>
        <time>2020-03-12T08:37:27Z</time>
      </trkpt>
      <trkpt lat="45.02999" lon="5.85786">
        <ele>1381.55</ele>
        <time>2020-03-12T08:37:42Z</time>
      </trkpt>
      <trkpt lat="45.02999" lon="5.85787">
        <ele>1381.55</ele>
        <time>2020-03-12T08:37:43Z</time>
      </trkpt>
      <trkpt lat="45.02999" lon="5.85794">
        <ele>1382.51</ele>
        <time>2020-03-12T08:37:48Z</time>
      </trkpt>
      <trkpt lat="45.02999" lon="5.85797">
        <ele>1382.99</ele>
        <time>2020-03-12T08:37:51Z</time>
      </trkpt>
      <trkpt lat="45.02998" lon="5.858">
        <ele>1383.47</ele>
        <time>2020-03-12T08:37:54Z</time>
      </trkpt>
      <trkpt lat="45.02997" lon="5.85805">
        <ele>1383.96</ele>
        <time>2020-03-12T08:37:58Z</time>
      </trkpt>
      <trkpt lat="45.02996" lon="5.85816">
        <ele>1385.88</ele>
        <time>2020-03-12T08:38:11Z</time>
      </trkpt>
      <trkpt lat="45.02998" lon="5.8583">
        <ele>1387.8</ele>
        <time>2020-03-12T08:38:22Z</time>
      </trkpt>
      <trkpt lat="45.02998" lon="5.85839">
        <ele>1391.17</ele>
        <time>2020-03-12T08:38:32Z</time>
      </trkpt>
      <trkpt lat="45.02998" lon="5.8584">
        <ele>1390.68</ele>
        <time>2020-03-12T08:38:33Z</time>
      </trkpt>
      <trkpt lat="45.02998" lon="5.85844">
        <ele>1385.88</ele>
        <time>2020-03-12T08:38:36Z</time>
      </trkpt>
      <trkpt lat="45.02998" lon="5.85845">
        <ele>1393.09</ele>
        <time>2020-03-12T08:38:37Z</time>
      </trkpt>
      <trkpt lat="45.02999" lon="5.85847">
        <ele>1388.76</ele>
        <time>2020-03-12T08:38:39Z</time>
      </trkpt>
      <trkpt lat="45.02999" lon="5.85848">
        <ele>1388.28</ele>
        <time>2020-03-12T08:38:40Z</time>
      </trkpt>
      <trkpt lat="45.02999" lon="5.85849">
        <ele>1396.45</ele>
        <time>2020-03-12T08:38:41Z</time>
      </trkpt>
      <trkpt lat="45.02999" lon="5.8585">
        <ele>1392.61</ele>
        <time>2020-03-12T08:38:42Z</time>
      </trkpt>
      <trkpt lat="45.02999" lon="5.85851">
        <ele>1374.34</ele>
        <time>2020-03-12T08:38:43Z</time>
      </trkpt>
      <trkpt lat="45.02999" lon="5.85852">
        <ele>1403.18</ele>
        <time>2020-03-12T08:38:44Z</time>
      </trkpt>
      <trkpt lat="45.03" lon="5.85853">
        <ele>1370.5</ele>
        <time>2020-03-12T08:38:45Z</time>
      </trkpt>
      <trkpt lat="45.03001" lon="5.85854">
        <ele>1414.24</ele>
        <time>2020-03-12T08:38:46Z</time>
      </trkpt>
      <trkpt lat="45.03001" lon="5.85855">
        <ele>1392.61</ele>
        <time>2020-03-12T08:38:47Z</time>
      </trkpt>
      <trkpt lat="45.03001" lon="5.85856">
        <ele>1387.8</ele>
        <time>2020-03-12T08:38:48Z</time>
      </trkpt>
      <trkpt lat="45.03001" lon="5.85856">
        <ele>1389.72</ele>
        <time>2020-03-12T08:38:49Z</time>
      </trkpt>
      <trkpt lat="45.03002" lon="5.85857">
        <ele>1399.82</ele>
        <time>2020-03-12T08:38:50Z</time>
      </trkpt>
      <trkpt lat="45.03002" lon="5.85858">
        <ele>1394.53</ele>
        <time>2020-03-12T08:38:51Z</time>
      </trkpt>
      <trkpt lat="45.03003" lon="5.85859">
        <ele>1392.61</ele>
        <time>2020-03-12T08:38:53Z</time>
      </trkpt>
      <trkpt lat="45.03009" lon="5.85867">
        <ele>1394.53</ele>
        <time>2020-03-12T08:39:06Z</time>
      </trkpt>
      <trkpt lat="45.03009" lon="5.8587">
        <ele>1402.22</ele>
        <time>2020-03-12T08:39:22Z</time>
      </trkpt>
      <trkpt lat="45.0301" lon="5.85871">
        <ele>1397.41</ele>
        <time>2020-03-12T08:39:23Z</time>
      </trkpt>
      <trkpt lat="45.03013" lon="5.85889">
        <ele>1400.78</ele>
        <time>2020-03-12T08:39:38Z</time>
      </trkpt>
      <trkpt lat="45.03013" lon="5.8589">
        <ele>1396.93</ele>
        <time>2020-03-12T08:39:39Z</time>
      </trkpt>
      <trkpt lat="45.03014" lon="5.85892">
        <ele>1401.74</ele>
        <time>2020-03-12T08:39:42Z</time>
      </trkpt>
      <trkpt lat="45.03015" lon="5.85893">
        <ele>1397.41</ele>
        <time>2020-03-12T08:39:43Z</time>
      </trkpt>
      <trkpt lat="45.03016" lon="5.85896">
        <ele>1400.78</ele>
        <time>2020-03-12T08:39:45Z</time>
      </trkpt>
      <trkpt lat="45.03016" lon="5.85899">
        <ele>1400.78</ele>
        <time>2020-03-12T08:39:49Z</time>
      </trkpt>
      <trkpt lat="45.03016" lon="5.85908">
        <ele>1405.1</ele>
        <time>2020-03-12T08:40:04Z</time>
      </trkpt>
      <trkpt lat="45.03016" lon="5.85909">
        <ele>1401.74</ele>
        <time>2020-03-12T08:40:05Z</time>
      </trkpt>
      <trkpt lat="45.03016" lon="5.85909">
        <ele>1405.58</ele>
        <time>2020-03-12T08:40:09Z</time>
      </trkpt>
      <trkpt lat="45.03019" lon="5.85919">
        <ele>1408.95</ele>
        <time>2020-03-12T08:40:28Z</time>
      </trkpt>
      <trkpt lat="45.0302" lon="5.85919">
        <ele>1405.58</ele>
        <time>2020-03-12T08:40:29Z</time>
      </trkpt>
      <trkpt lat="45.03021" lon="5.85926">
        <ele>1409.43</ele>
        <time>2020-03-12T08:40:36Z</time>
      </trkpt>
      <trkpt lat="45.03025" lon="5.85944">
        <ele>1412.79</ele>
        <time>2020-03-12T08:40:55Z</time>
      </trkpt>
      <trkpt lat="45.03026" lon="5.85947">
        <ele>1412.79</ele>
        <time>2020-03-12T08:41:02Z</time>
      </trkpt>
      <trkpt lat="45.03028" lon="5.85949">
        <ele>1416.64</ele>
        <time>2020-03-12T08:41:13Z</time>
      </trkpt>
      <trkpt lat="45.03028" lon="5.8595">
        <ele>1413.28</ele>
        <time>2020-03-12T08:41:14Z</time>
      </trkpt>
      <trkpt lat="45.03029" lon="5.85951">
        <ele>1416.64</ele>
        <time>2020-03-12T08:41:15Z</time>
      </trkpt>
      <trkpt lat="45.03041" lon="5.8596">
        <ele>1416.16</ele>
        <time>2020-03-12T08:41:34Z</time>
      </trkpt>
      <trkpt lat="45.03047" lon="5.85957">
        <ele>1420</ele>
        <time>2020-03-12T08:41:40Z</time>
      </trkpt>
      <trkpt lat="45.0305" lon="5.85941">
        <ele>1422.41</ele>
        <time>2020-03-12T08:42:00Z</time>
      </trkpt>
      <trkpt lat="45.03055" lon="5.85933">
        <ele>1425.77</ele>
        <time>2020-03-12T08:42:17Z</time>
      </trkpt>
      <trkpt lat="45.03066" lon="5.85918">
        <ele>1426.25</ele>
        <time>2020-03-12T08:42:34Z</time>
      </trkpt>
      <trkpt lat="45.0307" lon="5.85913">
        <ele>1429.14</ele>
        <time>2020-03-12T08:42:40Z</time>
      </trkpt>
      <trkpt lat="45.03078" lon="5.85906">
        <ele>1430.1</ele>
        <time>2020-03-12T08:43:00Z</time>
      </trkpt>
      <trkpt lat="45.03078" lon="5.85906">
        <ele>1433.46</ele>
        <time>2020-03-12T08:43:07Z</time>
      </trkpt>
      <trkpt lat="45.03086" lon="5.85906">
        <ele>1435.87</ele>
        <time>2020-03-12T08:43:28Z</time>
      </trkpt>
      <trkpt lat="45.03089" lon="5.85915">
        <ele>1436.35</ele>
        <time>2020-03-12T08:43:46Z</time>
      </trkpt>
      <trkpt lat="45.03089" lon="5.85918">
        <ele>1439.71</ele>
        <time>2020-03-12T08:43:55Z</time>
      </trkpt>
      <trkpt lat="45.03095" lon="5.85929">
        <ele>1443.56</ele>
        <time>2020-03-12T08:44:11Z</time>
      </trkpt>
      <trkpt lat="45.03099" lon="5.85936">
        <ele>1446.92</ele>
        <time>2020-03-12T08:44:30Z</time>
      </trkpt>
      <trkpt lat="45.03099" lon="5.85937">
        <ele>1442.6</ele>
        <time>2020-03-12T08:44:35Z</time>
      </trkpt>
      <trkpt lat="45.031" lon="5.85937">
        <ele>1448.84</ele>
        <time>2020-03-12T08:44:36Z</time>
      </trkpt>
      <trkpt lat="45.03103" lon="5.8594">
        <ele>1445</ele>
        <time>2020-03-12T08:44:38Z</time>
      </trkpt>
      <trkpt lat="45.03108" lon="5.85944">
        <ele>1448.36</ele>
        <time>2020-03-12T08:44:43Z</time>
      </trkpt>
      <trkpt lat="45.03117" lon="5.85956">
        <ele>1451.73</ele>
        <time>2020-03-12T08:45:01Z</time>
      </trkpt>
      <trkpt lat="45.03124" lon="5.85966">
        <ele>1455.09</ele>
        <time>2020-03-12T08:45:23Z</time>
      </trkpt>
      <trkpt lat="45.03124" lon="5.85967">
        <ele>1451.73</ele>
        <time>2020-03-12T08:45:24Z</time>
      </trkpt>
      <trkpt lat="45.03125" lon="5.85968">
        <ele>1456.53</ele>
        <time>2020-03-12T08:45:25Z</time>
      </trkpt>
      <trkpt lat="45.03126" lon="5.85968">
        <ele>1453.17</ele>
        <time>2020-03-12T08:45:26Z</time>
      </trkpt>
      <trkpt lat="45.03126" lon="5.85968">
        <ele>1456.53</ele>
        <time>2020-03-12T08:45:27Z</time>
      </trkpt>
      <trkpt lat="45.03127" lon="5.85969">
        <ele>1453.65</ele>
        <time>2020-03-12T08:45:28Z</time>
      </trkpt>
      <trkpt lat="45.03127" lon="5.85969">
        <ele>1457.02</ele>
        <time>2020-03-12T08:45:29Z</time>
      </trkpt>
      <trkpt lat="45.03128" lon="5.85969">
        <ele>1453.65</ele>
        <time>2020-03-12T08:45:30Z</time>
      </trkpt>
      <trkpt lat="45.03128" lon="5.85969">
        <ele>1457.02</ele>
        <time>2020-03-12T08:45:31Z</time>
      </trkpt>
      <trkpt lat="45.03128" lon="5.85969">
        <ele>1453.65</ele>
        <time>2020-03-12T08:45:34Z</time>
      </trkpt>
      <trkpt lat="45.03129" lon="5.85971">
        <ele>1458.46</ele>
        <time>2020-03-12T08:45:36Z</time>
      </trkpt>
      <trkpt lat="45.0313" lon="5.85972">
        <ele>1455.09</ele>
        <time>2020-03-12T08:45:37Z</time>
      </trkpt>
      <trkpt lat="45.03131" lon="5.85973">
        <ele>1458.46</ele>
        <time>2020-03-12T08:45:38Z</time>
      </trkpt>
      <trkpt lat="45.03142" lon="5.85974">
        <ele>1459.42</ele>
        <time>2020-03-12T08:45:59Z</time>
      </trkpt>
      <trkpt lat="45.03156" lon="5.85973">
        <ele>1462.78</ele>
        <time>2020-03-12T08:46:13Z</time>
      </trkpt>
      <trkpt lat="45.03163" lon="5.85967">
        <ele>1461.34</ele>
        <time>2020-03-12T08:46:34Z</time>
      </trkpt>
      <trkpt lat="45.03163" lon="5.85967">
        <ele>1468.07</ele>
        <time>2020-03-12T08:46:35Z</time>
      </trkpt>
      <trkpt lat="45.03163" lon="5.85968">
        <ele>1464.71</ele>
        <time>2020-03-12T08:46:37Z</time>
      </trkpt>
      <trkpt lat="45.03163" lon="5.85968">
        <ele>1468.55</ele>
        <time>2020-03-12T08:46:45Z</time>
      </trkpt>
      <trkpt lat="45.03163" lon="5.85968">
        <ele>1465.19</ele>
        <time>2020-03-12T08:46:46Z</time>
      </trkpt>
      <trkpt lat="45.03164" lon="5.85967">
        <ele>1468.07</ele>
        <time>2020-03-12T08:46:50Z</time>
      </trkpt>
      <trkpt lat="45.03173" lon="5.85969">
        <ele>1471.92</ele>
        <time>2020-03-12T08:47:12Z</time>
      </trkpt>
      <trkpt lat="45.03174" lon="5.85969">
        <ele>1471.44</ele>
        <time>2020-03-12T08:47:14Z</time>
      </trkpt>
      <trkpt lat="45.03184" lon="5.85967">
        <ele>1475.28</ele>
        <time>2020-03-12T08:47:25Z</time>
      </trkpt>
      <trkpt lat="45.03186" lon="5.85966">
        <ele>1470.95</ele>
        <time>2020-03-12T08:47:26Z</time>
      </trkpt>
      <trkpt lat="45.03186" lon="5.85966">
        <ele>1474.8</ele>
        <time>2020-03-12T08:47:27Z</time>
      </trkpt>
      <trkpt lat="45.03198" lon="5.85962">
        <ele>1474.32</ele>
        <time>2020-03-12T08:47:44Z</time>
      </trkpt>
      <trkpt lat="45.032" lon="5.85962">
        <ele>1478.16</ele>
        <time>2020-03-12T08:47:52Z</time>
      </trkpt>
      <trkpt lat="45.03206" lon="5.8596">
        <ele>1478.65</ele>
        <time>2020-03-12T08:48:10Z</time>
      </trkpt>
      <trkpt lat="45.03214" lon="5.85954">
        <ele>1478.16</ele>
        <time>2020-03-12T08:48:35Z</time>
      </trkpt>
      <trkpt lat="45.03212" lon="5.85959">
        <ele>1468.55</ele>
        <time>2020-03-12T08:48:53Z</time>
      </trkpt>
      <trkpt lat="45.03212" lon="5.85959">
        <ele>1489.22</ele>
        <time>2020-03-12T08:48:54Z</time>
      </trkpt>
      <trkpt lat="45.03212" lon="5.8596">
        <ele>1465.67</ele>
        <time>2020-03-12T08:48:55Z</time>
      </trkpt>
      <trkpt lat="45.03212" lon="5.85959">
        <ele>1489.7</ele>
        <time>2020-03-12T08:48:56Z</time>
      </trkpt>
      <trkpt lat="45.03211" lon="5.85959">
        <ele>1467.59</ele>
        <time>2020-03-12T08:48:57Z</time>
      </trkpt>
      <trkpt lat="45.03211" lon="5.85959">
        <ele>1491.62</ele>
        <time>2020-03-12T08:48:58Z</time>
      </trkpt>
      <trkpt lat="45.03212" lon="5.85959">
        <ele>1480.57</ele>
        <time>2020-03-12T08:48:59Z</time>
      </trkpt>
      <trkpt lat="45.03212" lon="5.85958">
        <ele>1476.72</ele>
        <time>2020-03-12T08:49:00Z</time>
      </trkpt>
      <trkpt lat="45.03212" lon="5.85958">
        <ele>1480.09</ele>
        <time>2020-03-12T08:49:01Z</time>
      </trkpt>
      <trkpt lat="45.03212" lon="5.85955">
        <ele>1468.55</ele>
        <time>2020-03-12T08:49:05Z</time>
      </trkpt>
      <trkpt lat="45.03213" lon="5.85954">
        <ele>1485.85</ele>
        <time>2020-03-12T08:49:06Z</time>
      </trkpt>
      <trkpt lat="45.03213" lon="5.85953">
        <ele>1479.13</ele>
        <time>2020-03-12T08:49:07Z</time>
      </trkpt>
      <trkpt lat="45.03214" lon="5.85953">
        <ele>1478.65</ele>
        <time>2020-03-12T08:49:09Z</time>
      </trkpt>
      <trkpt lat="45.03214" lon="5.85953">
        <ele>1474.8</ele>
        <time>2020-03-12T08:49:11Z</time>
      </trkpt>
      <trkpt lat="45.03214" lon="5.85952">
        <ele>1476.24</ele>
        <time>2020-03-12T08:49:12Z</time>
      </trkpt>
      <trkpt lat="45.03214" lon="5.85952">
        <ele>1483.93</ele>
        <time>2020-03-12T08:49:13Z</time>
      </trkpt>
      <trkpt lat="45.03214" lon="5.85952">
        <ele>1481.53</ele>
        <time>2020-03-12T08:49:14Z</time>
      </trkpt>
      <trkpt lat="45.03214" lon="5.85952">
        <ele>1470.95</ele>
        <time>2020-03-12T08:49:15Z</time>
      </trkpt>
      <trkpt lat="45.03214" lon="5.85953">
        <ele>1483.93</ele>
        <time>2020-03-12T08:49:16Z</time>
      </trkpt>
      <trkpt lat="45.03214" lon="5.85953">
        <ele>1478.65</ele>
        <time>2020-03-12T08:49:17Z</time>
      </trkpt>
      <trkpt lat="45.03216" lon="5.85956">
        <ele>1478.16</ele>
        <time>2020-03-12T08:49:45Z</time>
      </trkpt>
      <trkpt lat="45.03217" lon="5.85956">
        <ele>1472.88</ele>
        <time>2020-03-12T08:49:50Z</time>
      </trkpt>
      <trkpt lat="45.03217" lon="5.85956">
        <ele>1482.01</ele>
        <time>2020-03-12T08:49:51Z</time>
      </trkpt>
      <trkpt lat="45.03217" lon="5.85956">
        <ele>1478.65</ele>
        <time>2020-03-12T08:49:52Z</time>
      </trkpt>
      <trkpt lat="45.03217" lon="5.85956">
        <ele>1460.86</ele>
        <time>2020-03-12T08:49:53Z</time>
      </trkpt>
      <trkpt lat="45.03217" lon="5.85956">
        <ele>1492.1</ele>
        <time>2020-03-12T08:49:54Z</time>
      </trkpt>
      <trkpt lat="45.03217" lon="5.85956">
        <ele>1479.13</ele>
        <time>2020-03-12T08:49:55Z</time>
      </trkpt>
      <trkpt lat="45.03217" lon="5.85956">
        <ele>1472.4</ele>
        <time>2020-03-12T08:49:56Z</time>
      </trkpt>
      <trkpt lat="45.03217" lon="5.85956">
        <ele>1484.41</ele>
        <time>2020-03-12T08:49:57Z</time>
      </trkpt>
      <trkpt lat="45.03217" lon="5.85956">
        <ele>1478.65</ele>
        <time>2020-03-12T08:49:58Z</time>
      </trkpt>
      <trkpt lat="45.03215" lon="5.85955">
        <ele>1477.68</ele>
        <time>2020-03-12T08:50:17Z</time>
      </trkpt>
      <trkpt lat="45.03221" lon="5.85959">
        <ele>1478.16</ele>
        <time>2020-03-12T08:50:34Z</time>
      </trkpt>
      <trkpt lat="45.0322" lon="5.85959">
        <ele>1479.61</ele>
        <time>2020-03-12T08:51:02Z</time>
      </trkpt>
      <trkpt lat="45.03227" lon="5.85961">
        <ele>1481.53</ele>
        <time>2020-03-12T08:51:21Z</time>
      </trkpt>
      <trkpt lat="45.03233" lon="5.85962">
        <ele>1482.97</ele>
        <time>2020-03-12T08:51:27Z</time>
      </trkpt>
      <trkpt lat="45.03236" lon="5.85962">
        <ele>1486.34</ele>
        <time>2020-03-12T08:51:47Z</time>
      </trkpt>
      <trkpt lat="45.03244" lon="5.85956">
        <ele>1489.7</ele>
        <time>2020-03-12T08:52:07Z</time>
      </trkpt>
      <trkpt lat="45.03251" lon="5.85959">
        <ele>1492.58</ele>
        <time>2020-03-12T08:52:22Z</time>
      </trkpt>
      <trkpt lat="45.03259" lon="5.85959">
        <ele>1492.1</ele>
        <time>2020-03-12T08:52:36Z</time>
      </trkpt>
      <trkpt lat="45.03263" lon="5.85956">
        <ele>1495.47</ele>
        <time>2020-03-12T08:52:45Z</time>
      </trkpt>
      <trkpt lat="45.03283" lon="5.85933">
        <ele>1496.43</ele>
        <time>2020-03-12T08:53:06Z</time>
      </trkpt>
      <trkpt lat="45.03285" lon="5.85933">
        <ele>1498.83</ele>
        <time>2020-03-12T08:53:08Z</time>
      </trkpt>
      <trkpt lat="45.03297" lon="5.85931">
        <ele>1498.35</ele>
        <time>2020-03-12T08:53:22Z</time>
      </trkpt>
      <trkpt lat="45.033" lon="5.85938">
        <ele>1502.2</ele>
        <time>2020-03-12T08:53:33Z</time>
      </trkpt>
      <trkpt lat="45.03301" lon="5.85945">
        <ele>1502.2</ele>
        <time>2020-03-12T08:53:54Z</time>
      </trkpt>
      <trkpt lat="45.033" lon="5.85949">
        <ele>1504.12</ele>
        <time>2020-03-12T08:53:59Z</time>
      </trkpt>
      <trkpt lat="45.03297" lon="5.8596">
        <ele>1505.08</ele>
        <time>2020-03-12T08:54:19Z</time>
      </trkpt>
      <trkpt lat="45.03296" lon="5.85976">
        <ele>1506.52</ele>
        <time>2020-03-12T08:54:38Z</time>
      </trkpt>
      <trkpt lat="45.0329" lon="5.85995">
        <ele>1509.89</ele>
        <time>2020-03-12T08:54:50Z</time>
      </trkpt>
      <trkpt lat="45.03277" lon="5.86021">
        <ele>1509.41</ele>
        <time>2020-03-12T08:55:09Z</time>
      </trkpt>
      <trkpt lat="45.03271" lon="5.86041">
        <ele>1512.77</ele>
        <time>2020-03-12T08:55:20Z</time>
      </trkpt>
      <trkpt lat="45.03267" lon="5.86058">
        <ele>1516.14</ele>
        <time>2020-03-12T08:55:38Z</time>
      </trkpt>
      <trkpt lat="45.03266" lon="5.86075">
        <ele>1518.54</ele>
        <time>2020-03-12T08:55:58Z</time>
      </trkpt>
      <trkpt lat="45.03264" lon="5.86096">
        <ele>1521.9</ele>
        <time>2020-03-12T08:56:17Z</time>
      </trkpt>
      <trkpt lat="45.03264" lon="5.86104">
        <ele>1522.39</ele>
        <time>2020-03-12T08:56:26Z</time>
      </trkpt>
      <trkpt lat="45.03264" lon="5.86109">
        <ele>1526.23</ele>
        <time>2020-03-12T08:56:38Z</time>
      </trkpt>
      <trkpt lat="45.03264" lon="5.86109">
        <ele>1522.39</ele>
        <time>2020-03-12T08:56:40Z</time>
      </trkpt>
      <trkpt lat="45.03263" lon="5.8611">
        <ele>1528.15</ele>
        <time>2020-03-12T08:56:44Z</time>
      </trkpt>
      <trkpt lat="45.03263" lon="5.86111">
        <ele>1524.79</ele>
        <time>2020-03-12T08:56:45Z</time>
      </trkpt>
      <trkpt lat="45.03261" lon="5.86118">
        <ele>1524.31</ele>
        <time>2020-03-12T08:57:05Z</time>
      </trkpt>
      <trkpt lat="45.0326" lon="5.86119">
        <ele>1525.75</ele>
        <time>2020-03-12T08:57:08Z</time>
      </trkpt>
      <trkpt lat="45.03259" lon="5.86135">
        <ele>1529.59</ele>
        <time>2020-03-12T08:57:24Z</time>
      </trkpt>
      <trkpt lat="45.03253" lon="5.86151">
        <ele>1532.48</ele>
        <time>2020-03-12T08:57:44Z</time>
      </trkpt>
      <trkpt lat="45.03249" lon="5.86153">
        <ele>1533.44</ele>
        <time>2020-03-12T08:57:55Z</time>
      </trkpt>
      <trkpt lat="45.03246" lon="5.86159">
        <ele>1538.25</ele>
        <time>2020-03-12T08:58:08Z</time>
      </trkpt>
      <trkpt lat="45.03245" lon="5.86161">
        <ele>1534.88</ele>
        <time>2020-03-12T08:58:09Z</time>
      </trkpt>
      <trkpt lat="45.03241" lon="5.86172">
        <ele>1538.73</ele>
        <time>2020-03-12T08:58:25Z</time>
      </trkpt>
      <trkpt lat="45.03233" lon="5.8618">
        <ele>1540.65</ele>
        <time>2020-03-12T08:58:44Z</time>
      </trkpt>
      <trkpt lat="45.03227" lon="5.8619">
        <ele>1542.09</ele>
        <time>2020-03-12T08:59:02Z</time>
      </trkpt>
      <trkpt lat="45.03225" lon="5.86195">
        <ele>1546.42</ele>
        <time>2020-03-12T08:59:14Z</time>
      </trkpt>
      <trkpt lat="45.03232" lon="5.86197">
        <ele>1549.78</ele>
        <time>2020-03-12T08:59:34Z</time>
      </trkpt>
      <trkpt lat="45.03234" lon="5.862">
        <ele>1545.46</ele>
        <time>2020-03-12T08:59:39Z</time>
      </trkpt>
      <trkpt lat="45.03234" lon="5.86199">
        <ele>1550.74</ele>
        <time>2020-03-12T08:59:40Z</time>
      </trkpt>
      <trkpt lat="45.03237" lon="5.862">
        <ele>1547.38</ele>
        <time>2020-03-12T08:59:48Z</time>
      </trkpt>
      <trkpt lat="45.03237" lon="5.862">
        <ele>1552.19</ele>
        <time>2020-03-12T08:59:49Z</time>
      </trkpt>
      <trkpt lat="45.03236" lon="5.862">
        <ele>1546.9</ele>
        <time>2020-03-12T08:59:53Z</time>
      </trkpt>
      <trkpt lat="45.03236" lon="5.862">
        <ele>1554.11</ele>
        <time>2020-03-12T08:59:54Z</time>
      </trkpt>
      <trkpt lat="45.03235" lon="5.862">
        <ele>1550.74</ele>
        <time>2020-03-12T08:59:55Z</time>
      </trkpt>
      <trkpt lat="45.03232" lon="5.86198">
        <ele>1554.11</ele>
        <time>2020-03-12T09:00:04Z</time>
      </trkpt>
      <trkpt lat="45.03233" lon="5.86198">
        <ele>1550.26</ele>
        <time>2020-03-12T09:00:05Z</time>
      </trkpt>
      <trkpt lat="45.03234" lon="5.86198">
        <ele>1555.07</ele>
        <time>2020-03-12T09:00:06Z</time>
      </trkpt>
      <trkpt lat="45.03237" lon="5.86195">
        <ele>1555.07</ele>
        <time>2020-03-12T09:00:24Z</time>
      </trkpt>
      <trkpt lat="45.0324" lon="5.862">
        <ele>1558.43</ele>
        <time>2020-03-12T09:00:43Z</time>
      </trkpt>
      <trkpt lat="45.03237" lon="5.86208">
        <ele>1558.92</ele>
        <time>2020-03-12T09:01:03Z</time>
      </trkpt>
      <trkpt lat="45.03234" lon="5.86211">
        <ele>1564.2</ele>
        <time>2020-03-12T09:01:17Z</time>
      </trkpt>
      <trkpt lat="45.03232" lon="5.86214">
        <ele>1559.88</ele>
        <time>2020-03-12T09:01:21Z</time>
      </trkpt>
      <trkpt lat="45.03232" lon="5.86215">
        <ele>1565.16</ele>
        <time>2020-03-12T09:01:22Z</time>
      </trkpt>
      <trkpt lat="45.03231" lon="5.86216">
        <ele>1561.8</ele>
        <time>2020-03-12T09:01:23Z</time>
      </trkpt>
      <trkpt lat="45.03228" lon="5.86228">
        <ele>1565.16</ele>
        <time>2020-03-12T09:01:30Z</time>
      </trkpt>
      <trkpt lat="45.03228" lon="5.86228">
        <ele>1562.28</ele>
        <time>2020-03-12T09:01:31Z</time>
      </trkpt>
      <trkpt lat="45.03227" lon="5.8623">
        <ele>1565.64</ele>
        <time>2020-03-12T09:01:32Z</time>
      </trkpt>
      <trkpt lat="45.03227" lon="5.86233">
        <ele>1562.28</ele>
        <time>2020-03-12T09:01:36Z</time>
      </trkpt>
      <trkpt lat="45.03226" lon="5.86235">
        <ele>1566.61</ele>
        <time>2020-03-12T09:01:37Z</time>
      </trkpt>
      <trkpt lat="45.03225" lon="5.86238">
        <ele>1567.09</ele>
        <time>2020-03-12T09:01:58Z</time>
      </trkpt>
      <trkpt lat="45.0322" lon="5.86248">
        <ele>1568.05</ele>
        <time>2020-03-12T09:02:22Z</time>
      </trkpt>
      <trkpt lat="45.03213" lon="5.86256">
        <ele>1567.09</ele>
        <time>2020-03-12T09:02:37Z</time>
      </trkpt>
      <trkpt lat="45.03206" lon="5.86268">
        <ele>1570.93</ele>
        <time>2020-03-12T09:02:49Z</time>
      </trkpt>
      <trkpt lat="45.03205" lon="5.86269">
        <ele>1567.09</ele>
        <time>2020-03-12T09:02:50Z</time>
      </trkpt>
      <trkpt lat="45.03202" lon="5.86272">
        <ele>1569.97</ele>
        <time>2020-03-12T09:03:04Z</time>
      </trkpt>
      <trkpt lat="45.03198" lon="5.86284">
        <ele>1569.49</ele>
        <time>2020-03-12T09:03:24Z</time>
      </trkpt>
      <trkpt lat="45.03191" lon="5.86292">
        <ele>1569.01</ele>
        <time>2020-03-12T09:03:58Z</time>
      </trkpt>
      <trkpt lat="45.03191" lon="5.86291">
        <ele>1557.95</ele>
        <time>2020-03-12T09:04:12Z</time>
      </trkpt>
      <trkpt lat="45.03191" lon="5.86291">
        <ele>1581.51</ele>
        <time>2020-03-12T09:04:13Z</time>
      </trkpt>
      <trkpt lat="45.03191" lon="5.86291">
        <ele>1563.24</ele>
        <time>2020-03-12T09:04:14Z</time>
      </trkpt>
      <trkpt lat="45.03191" lon="5.86291">
        <ele>1571.41</ele>
        <time>2020-03-12T09:04:15Z</time>
      </trkpt>
      <trkpt lat="45.03191" lon="5.86291">
        <ele>1576.22</ele>
        <time>2020-03-12T09:04:16Z</time>
      </trkpt>
      <trkpt lat="45.03191" lon="5.86291">
        <ele>1568.05</ele>
        <time>2020-03-12T09:04:17Z</time>
      </trkpt>
      <trkpt lat="45.03191" lon="5.86291">
        <ele>1557.47</ele>
        <time>2020-03-12T09:04:18Z</time>
      </trkpt>
      <trkpt lat="45.03191" lon="5.86291">
        <ele>1576.22</ele>
        <time>2020-03-12T09:04:19Z</time>
      </trkpt>
      <trkpt lat="45.03192" lon="5.86291">
        <ele>1561.32</ele>
        <time>2020-03-12T09:04:21Z</time>
      </trkpt>
      <trkpt lat="45.03192" lon="5.86291">
        <ele>1580.54</ele>
        <time>2020-03-12T09:04:22Z</time>
      </trkpt>
      <trkpt lat="45.03192" lon="5.86291">
        <ele>1557.95</ele>
        <time>2020-03-12T09:04:23Z</time>
      </trkpt>
      <trkpt lat="45.03192" lon="5.86291">
        <ele>1580.06</ele>
        <time>2020-03-12T09:04:24Z</time>
      </trkpt>
      <trkpt lat="45.03192" lon="5.86291">
        <ele>1571.41</ele>
        <time>2020-03-12T09:04:25Z</time>
      </trkpt>
      <trkpt lat="45.03185" lon="5.86288">
        <ele>1564.2</ele>
        <time>2020-03-12T09:04:45Z</time>
      </trkpt>
      <trkpt lat="45.03185" lon="5.86288">
        <ele>1572.85</ele>
        <time>2020-03-12T09:04:46Z</time>
      </trkpt>
      <trkpt lat="45.03185" lon="5.86288">
        <ele>1569.97</ele>
        <time>2020-03-12T09:04:48Z</time>
      </trkpt>
      <trkpt lat="45.03185" lon="5.86288">
        <ele>1569.97</ele>
        <time>2020-03-12T09:04:49Z</time>
      </trkpt>
      <trkpt lat="45.03184" lon="5.86287">
        <ele>1569.49</ele>
        <time>2020-03-12T09:05:19Z</time>
      </trkpt>
      <trkpt lat="45.03184" lon="5.86286">
        <ele>1569.49</ele>
        <time>2020-03-12T09:05:45Z</time>
      </trkpt>
      <trkpt lat="45.03185" lon="5.86286">
        <ele>1569.49</ele>
        <time>2020-03-12T09:06:09Z</time>
      </trkpt>
      <trkpt lat="45.03184" lon="5.86286">
        <ele>1569.97</ele>
        <time>2020-03-12T09:06:42Z</time>
      </trkpt>
      <trkpt lat="45.03184" lon="5.86299">
        <ele>1571.41</ele>
        <time>2020-03-12T09:06:55Z</time>
      </trkpt>
      <trkpt lat="45.03186" lon="5.86305">
        <ele>1574.78</ele>
        <time>2020-03-12T09:07:02Z</time>
      </trkpt>
      <trkpt lat="45.03187" lon="5.86311">
        <ele>1575.26</ele>
        <time>2020-03-12T09:07:14Z</time>
      </trkpt>
      <trkpt lat="45.03186" lon="5.8632">
        <ele>1575.26</ele>
        <time>2020-03-12T09:07:28Z</time>
      </trkpt>
      <trkpt lat="45.03186" lon="5.86324">
        <ele>1574.78</ele>
        <time>2020-03-12T09:07:35Z</time>
      </trkpt>
      <trkpt lat="45.03185" lon="5.86341">
        <ele>1575.74</ele>
        <time>2020-03-12T09:07:50Z</time>
      </trkpt>
      <trkpt lat="45.03183" lon="5.86353">
        <ele>1575.74</ele>
        <time>2020-03-12T09:08:08Z</time>
      </trkpt>
      <trkpt lat="45.03181" lon="5.86368">
        <ele>1574.3</ele>
        <time>2020-03-12T09:08:24Z</time>
      </trkpt>
      <trkpt lat="45.03182" lon="5.86389">
        <ele>1573.82</ele>
        <time>2020-03-12T09:08:39Z</time>
      </trkpt>
      <trkpt lat="45.03183" lon="5.86396">
        <ele>1573.33</ele>
        <time>2020-03-12T09:08:49Z</time>
      </trkpt>
      <trkpt lat="45.03185" lon="5.86402">
        <ele>1573.33</ele>
        <time>2020-03-12T09:08:53Z</time>
      </trkpt>
      <trkpt lat="45.03189" lon="5.86419">
        <ele>1573.33</ele>
        <time>2020-03-12T09:09:06Z</time>
      </trkpt>
      <trkpt lat="45.03196" lon="5.86426">
        <ele>1573.82</ele>
        <time>2020-03-12T09:09:21Z</time>
      </trkpt>
      <trkpt lat="45.03206" lon="5.86434">
        <ele>1573.82</ele>
        <time>2020-03-12T09:09:33Z</time>
      </trkpt>
      <trkpt lat="45.03216" lon="5.8645">
        <ele>1574.3</ele>
        <time>2020-03-12T09:09:47Z</time>
      </trkpt>
      <trkpt lat="45.03227" lon="5.86459">
        <ele>1574.78</ele>
        <time>2020-03-12T09:10:02Z</time>
      </trkpt>
      <trkpt lat="45.03233" lon="5.86469">
        <ele>1574.78</ele>
        <time>2020-03-12T09:10:21Z</time>
      </trkpt>
      <trkpt lat="45.03239" lon="5.86475">
        <ele>1574.78</ele>
        <time>2020-03-12T09:10:29Z</time>
      </trkpt>
      <trkpt lat="45.03245" lon="5.86486">
        <ele>1575.26</ele>
        <time>2020-03-12T09:10:37Z</time>
      </trkpt>
      <trkpt lat="45.03247" lon="5.86491">
        <ele>1575.26</ele>
        <time>2020-03-12T09:10:40Z</time>
      </trkpt>
      <trkpt lat="45.03254" lon="5.86506">
        <ele>1576.22</ele>
        <time>2020-03-12T09:10:53Z</time>
      </trkpt>
      <trkpt lat="45.0326" lon="5.86527">
        <ele>1576.22</ele>
        <time>2020-03-12T09:11:06Z</time>
      </trkpt>
      <trkpt lat="45.03265" lon="5.8655">
        <ele>1576.7</ele>
        <time>2020-03-12T09:11:21Z</time>
      </trkpt>
      <trkpt lat="45.03267" lon="5.86571">
        <ele>1577.66</ele>
        <time>2020-03-12T09:11:34Z</time>
      </trkpt>
      <trkpt lat="45.03269" lon="5.86597">
        <ele>1578.14</ele>
        <time>2020-03-12T09:11:48Z</time>
      </trkpt>
      <trkpt lat="45.03273" lon="5.86615">
        <ele>1579.1</ele>
        <time>2020-03-12T09:12:01Z</time>
      </trkpt>
      <trkpt lat="45.03274" lon="5.8664">
        <ele>1579.1</ele>
        <time>2020-03-12T09:12:17Z</time>
      </trkpt>
      <trkpt lat="45.03275" lon="5.86646">
        <ele>1579.1</ele>
        <time>2020-03-12T09:12:21Z</time>
      </trkpt>
      <trkpt lat="45.03278" lon="5.86659">
        <ele>1579.58</ele>
        <time>2020-03-12T09:12:31Z</time>
      </trkpt>
      <trkpt lat="45.03279" lon="5.86673">
        <ele>1579.58</ele>
        <time>2020-03-12T09:12:38Z</time>
      </trkpt>
      <trkpt lat="45.03285" lon="5.86692">
        <ele>1580.06</ele>
        <time>2020-03-12T09:12:51Z</time>
      </trkpt>
      <trkpt lat="45.03286" lon="5.86695">
        <ele>1580.06</ele>
        <time>2020-03-12T09:12:54Z</time>
      </trkpt>
      <trkpt lat="45.03296" lon="5.86712">
        <ele>1580.06</ele>
        <time>2020-03-12T09:13:09Z</time>
      </trkpt>
      <trkpt lat="45.03298" lon="5.86726">
        <ele>1581.03</ele>
        <time>2020-03-12T09:13:19Z</time>
      </trkpt>
      <trkpt lat="45.03301" lon="5.86739">
        <ele>1581.51</ele>
        <time>2020-03-12T09:13:27Z</time>
      </trkpt>
      <trkpt lat="45.03302" lon="5.86751">
        <ele>1582.47</ele>
        <time>2020-03-12T09:13:35Z</time>
      </trkpt>
      <trkpt lat="45.03308" lon="5.86769">
        <ele>1582.47</ele>
        <time>2020-03-12T09:13:47Z</time>
      </trkpt>
      <trkpt lat="45.03314" lon="5.86787">
        <ele>1582.47</ele>
        <time>2020-03-12T09:14:01Z</time>
      </trkpt>
      <trkpt lat="45.03318" lon="5.86813">
        <ele>1583.43</ele>
        <time>2020-03-12T09:14:16Z</time>
      </trkpt>
      <trkpt lat="45.03312" lon="5.86835">
        <ele>1583.43</ele>
        <time>2020-03-12T09:14:32Z</time>
      </trkpt>
      <trkpt lat="45.03311" lon="5.86843">
        <ele>1584.39</ele>
        <time>2020-03-12T09:14:50Z</time>
      </trkpt>
      <trkpt lat="45.03313" lon="5.86853">
        <ele>1586.31</ele>
        <time>2020-03-12T09:15:02Z</time>
      </trkpt>
      <trkpt lat="45.03318" lon="5.8686">
        <ele>1587.27</ele>
        <time>2020-03-12T09:15:15Z</time>
      </trkpt>
      <trkpt lat="45.03325" lon="5.86869">
        <ele>1589.68</ele>
        <time>2020-03-12T09:15:28Z</time>
      </trkpt>
      <trkpt lat="45.03326" lon="5.8687">
        <ele>1589.2</ele>
        <time>2020-03-12T09:15:29Z</time>
      </trkpt>
      <trkpt lat="45.03329" lon="5.86875">
        <ele>1589.2</ele>
        <time>2020-03-12T09:15:34Z</time>
      </trkpt>
      <trkpt lat="45.03335" lon="5.86884">
        <ele>1589.68</ele>
        <time>2020-03-12T09:15:42Z</time>
      </trkpt>
      <trkpt lat="45.03341" lon="5.86892">
        <ele>1592.08</ele>
        <time>2020-03-12T09:15:55Z</time>
      </trkpt>
      <trkpt lat="45.03346" lon="5.86905">
        <ele>1593.52</ele>
        <time>2020-03-12T09:16:07Z</time>
      </trkpt>
      <trkpt lat="45.03355" lon="5.8691">
        <ele>1594.48</ele>
        <time>2020-03-12T09:16:22Z</time>
      </trkpt>
      <trkpt lat="45.03358" lon="5.86909">
        <ele>1594.96</ele>
        <time>2020-03-12T09:16:41Z</time>
      </trkpt>
      <trkpt lat="45.03364" lon="5.869">
        <ele>1594.48</ele>
        <time>2020-03-12T09:16:57Z</time>
      </trkpt>
      <trkpt lat="45.0336" lon="5.86902">
        <ele>1594.96</ele>
        <time>2020-03-12T09:17:23Z</time>
      </trkpt>
      <trkpt lat="45.0336" lon="5.86901">
        <ele>1594.96</ele>
        <time>2020-03-12T09:17:57Z</time>
      </trkpt>
      <trkpt lat="45.03359" lon="5.86901">
        <ele>1594.96</ele>
        <time>2020-03-12T09:18:20Z</time>
      </trkpt>
      <trkpt lat="45.03357" lon="5.86901">
        <ele>1594.96</ele>
        <time>2020-03-12T09:18:51Z</time>
      </trkpt>
      <trkpt lat="45.03357" lon="5.86902">
        <ele>1594.96</ele>
        <time>2020-03-12T09:19:17Z</time>
      </trkpt>
      <trkpt lat="45.03356" lon="5.86902">
        <ele>1594.96</ele>
        <time>2020-03-12T09:19:44Z</time>
      </trkpt>
      <trkpt lat="45.03355" lon="5.86902">
        <ele>1594.48</ele>
        <time>2020-03-12T09:20:09Z</time>
      </trkpt>
      <trkpt lat="45.03355" lon="5.86903">
        <ele>1594.48</ele>
        <time>2020-03-12T09:20:42Z</time>
      </trkpt>
      <trkpt lat="45.03356" lon="5.86904">
        <ele>1594.96</ele>
        <time>2020-03-12T09:21:08Z</time>
      </trkpt>
      <trkpt lat="45.03355" lon="5.86905">
        <ele>1580.06</ele>
        <time>2020-03-12T09:21:23Z</time>
      </trkpt>
      <trkpt lat="45.03355" lon="5.86905">
        <ele>1594.96</ele>
        <time>2020-03-12T09:21:24Z</time>
      </trkpt>
      <trkpt lat="45.03355" lon="5.86905">
        <ele>1598.81</ele>
        <time>2020-03-12T09:21:25Z</time>
      </trkpt>
      <trkpt lat="45.03355" lon="5.86905">
        <ele>1607.94</ele>
        <time>2020-03-12T09:21:26Z</time>
      </trkpt>
      <trkpt lat="45.03355" lon="5.86905">
        <ele>1601.69</ele>
        <time>2020-03-12T09:21:27Z</time>
      </trkpt>
      <trkpt lat="45.03355" lon="5.86905">
        <ele>1592.56</ele>
        <time>2020-03-12T09:21:28Z</time>
      </trkpt>
      <trkpt lat="45.03355" lon="5.86905">
        <ele>1598.81</ele>
        <time>2020-03-12T09:21:29Z</time>
      </trkpt>
      <trkpt lat="45.03355" lon="5.86905">
        <ele>1593.04</ele>
        <time>2020-03-12T09:21:30Z</time>
      </trkpt>
      <trkpt lat="45.03355" lon="5.86905">
        <ele>1603.62</ele>
        <time>2020-03-12T09:21:33Z</time>
      </trkpt>
      <trkpt lat="45.03355" lon="5.86905">
        <ele>1596.41</ele>
        <time>2020-03-12T09:21:34Z</time>
      </trkpt>
      <trkpt lat="45.03355" lon="5.86905">
        <ele>1595.45</ele>
        <time>2020-03-12T09:21:36Z</time>
      </trkpt>
      <trkpt lat="45.03355" lon="5.86905">
        <ele>1592.08</ele>
        <time>2020-03-12T09:21:44Z</time>
      </trkpt>
      <trkpt lat="45.03355" lon="5.86905">
        <ele>1597.85</ele>
        <time>2020-03-12T09:21:46Z</time>
      </trkpt>
      <trkpt lat="45.03356" lon="5.86905">
        <ele>1595.45</ele>
        <time>2020-03-12T09:21:47Z</time>
      </trkpt>
      <trkpt lat="45.03356" lon="5.86905">
        <ele>1594.96</ele>
        <time>2020-03-12T09:21:49Z</time>
      </trkpt>
      <trkpt lat="45.03362" lon="5.86905">
        <ele>1596.41</ele>
        <time>2020-03-12T09:22:02Z</time>
      </trkpt>
      <trkpt lat="45.03372" lon="5.86911">
        <ele>1597.85</ele>
        <time>2020-03-12T09:22:13Z</time>
      </trkpt>
      <trkpt lat="45.03378" lon="5.86919">
        <ele>1601.21</ele>
        <time>2020-03-12T09:22:27Z</time>
      </trkpt>
      <trkpt lat="45.03375" lon="5.86923">
        <ele>1600.73</ele>
        <time>2020-03-12T09:22:43Z</time>
      </trkpt>
      <trkpt lat="45.03378" lon="5.86924">
        <ele>1600.73</ele>
        <time>2020-03-12T09:23:06Z</time>
      </trkpt>
      <trkpt lat="45.03384" lon="5.86928">
        <ele>1601.21</ele>
        <time>2020-03-12T09:23:19Z</time>
      </trkpt>
      <trkpt lat="45.03389" lon="5.86929">
        <ele>1602.17</ele>
        <time>2020-03-12T09:23:35Z</time>
      </trkpt>
      <trkpt lat="45.0339" lon="5.86928">
        <ele>1604.58</ele>
        <time>2020-03-12T09:23:52Z</time>
      </trkpt>
      <trkpt lat="45.03391" lon="5.86928">
        <ele>1606.5</ele>
        <time>2020-03-12T09:23:55Z</time>
      </trkpt>
      <trkpt lat="45.034" lon="5.86933">
        <ele>1607.46</ele>
        <time>2020-03-12T09:24:11Z</time>
      </trkpt>
      <trkpt lat="45.03403" lon="5.86931">
        <ele>1610.35</ele>
        <time>2020-03-12T09:24:22Z</time>
      </trkpt>
      <trkpt lat="45.03408" lon="5.86929">
        <ele>1612.27</ele>
        <time>2020-03-12T09:24:39Z</time>
      </trkpt>
      <trkpt lat="45.03411" lon="5.86927">
        <ele>1614.19</ele>
        <time>2020-03-12T09:24:54Z</time>
      </trkpt>
      <trkpt lat="45.03416" lon="5.86926">
        <ele>1617.07</ele>
        <time>2020-03-12T09:25:07Z</time>
      </trkpt>
      <trkpt lat="45.03436" lon="5.86915">
        <ele>1619.96</ele>
        <time>2020-03-12T09:25:27Z</time>
      </trkpt>
      <trkpt lat="45.03443" lon="5.86905">
        <ele>1621.88</ele>
        <time>2020-03-12T09:25:43Z</time>
      </trkpt>
      <trkpt lat="45.03448" lon="5.86896">
        <ele>1624.28</ele>
        <time>2020-03-12T09:26:04Z</time>
      </trkpt>
      <trkpt lat="45.03447" lon="5.86884">
        <ele>1626.21</ele>
        <time>2020-03-12T09:26:21Z</time>
      </trkpt>
      <trkpt lat="45.03445" lon="5.86873">
        <ele>1626.69</ele>
        <time>2020-03-12T09:26:48Z</time>
      </trkpt>
      <trkpt lat="45.03446" lon="5.86856">
        <ele>1629.57</ele>
        <time>2020-03-12T09:27:08Z</time>
      </trkpt>
      <trkpt lat="45.03444" lon="5.86846">
        <ele>1631.49</ele>
        <time>2020-03-12T09:27:23Z</time>
      </trkpt>
      <trkpt lat="45.03442" lon="5.86827">
        <ele>1632.46</ele>
        <time>2020-03-12T09:27:39Z</time>
      </trkpt>
      <trkpt lat="45.0344" lon="5.86815">
        <ele>1635.82</ele>
        <time>2020-03-12T09:27:58Z</time>
      </trkpt>
      <trkpt lat="45.03439" lon="5.86814">
        <ele>1634.86</ele>
        <time>2020-03-12T09:28:01Z</time>
      </trkpt>
      <trkpt lat="45.0344" lon="5.86804">
        <ele>1636.78</ele>
        <time>2020-03-12T09:28:13Z</time>
      </trkpt>
      <trkpt lat="45.03438" lon="5.8679">
        <ele>1640.15</ele>
        <time>2020-03-12T09:28:31Z</time>
      </trkpt>
      <trkpt lat="45.03441" lon="5.86783">
        <ele>1641.11</ele>
        <time>2020-03-12T09:28:47Z</time>
      </trkpt>
      <trkpt lat="45.03445" lon="5.86767">
        <ele>1643.03</ele>
        <time>2020-03-12T09:29:06Z</time>
      </trkpt>
      <trkpt lat="45.03444" lon="5.86748">
        <ele>1645.43</ele>
        <time>2020-03-12T09:29:23Z</time>
      </trkpt>
      <trkpt lat="45.0344" lon="5.86737">
        <ele>1646.4</ele>
        <time>2020-03-12T09:29:45Z</time>
      </trkpt>
      <trkpt lat="45.03439" lon="5.86723">
        <ele>1648.32</ele>
        <time>2020-03-12T09:30:03Z</time>
      </trkpt>
      <trkpt lat="45.0344" lon="5.86709">
        <ele>1650.72</ele>
        <time>2020-03-12T09:30:21Z</time>
      </trkpt>
      <trkpt lat="45.03436" lon="5.86688">
        <ele>1652.64</ele>
        <time>2020-03-12T09:30:40Z</time>
      </trkpt>
      <trkpt lat="45.03427" lon="5.86658">
        <ele>1654.09</ele>
        <time>2020-03-12T09:30:55Z</time>
      </trkpt>
      <trkpt lat="45.03426" lon="5.86651">
        <ele>1657.45</ele>
        <time>2020-03-12T09:31:14Z</time>
      </trkpt>
      <trkpt lat="45.03425" lon="5.86632">
        <ele>1660.33</ele>
        <time>2020-03-12T09:31:32Z</time>
      </trkpt>
      <trkpt lat="45.03425" lon="5.86628">
        <ele>1663.22</ele>
        <time>2020-03-12T09:31:46Z</time>
      </trkpt>
      <trkpt lat="45.03426" lon="5.86619">
        <ele>1666.1</ele>
        <time>2020-03-12T09:32:07Z</time>
      </trkpt>
      <trkpt lat="45.03429" lon="5.86599">
        <ele>1668.99</ele>
        <time>2020-03-12T09:32:25Z</time>
      </trkpt>
      <trkpt lat="45.03429" lon="5.86594">
        <ele>1670.91</ele>
        <time>2020-03-12T09:32:42Z</time>
      </trkpt>
      <trkpt lat="45.03427" lon="5.86589">
        <ele>1674.27</ele>
        <time>2020-03-12T09:32:58Z</time>
      </trkpt>
      <trkpt lat="45.03427" lon="5.8658">
        <ele>1675.72</ele>
        <time>2020-03-12T09:33:10Z</time>
      </trkpt>
      <trkpt lat="45.03427" lon="5.8657">
        <ele>1676.68</ele>
        <time>2020-03-12T09:33:34Z</time>
      </trkpt>
      <trkpt lat="45.03427" lon="5.86563">
        <ele>1678.12</ele>
        <time>2020-03-12T09:33:51Z</time>
      </trkpt>
      <trkpt lat="45.03425" lon="5.86562">
        <ele>1679.56</ele>
        <time>2020-03-12T09:34:08Z</time>
      </trkpt>
      <trkpt lat="45.0342" lon="5.86556">
        <ele>1681.48</ele>
        <time>2020-03-12T09:34:28Z</time>
      </trkpt>
      <trkpt lat="45.03422" lon="5.86542">
        <ele>1683.89</ele>
        <time>2020-03-12T09:34:45Z</time>
      </trkpt>
      <trkpt lat="45.03416" lon="5.8651">
        <ele>1685.81</ele>
        <time>2020-03-12T09:35:00Z</time>
      </trkpt>
      <trkpt lat="45.03416" lon="5.86505">
        <ele>1686.29</ele>
        <time>2020-03-12T09:35:03Z</time>
      </trkpt>
      <trkpt lat="45.03426" lon="5.865">
        <ele>1687.73</ele>
        <time>2020-03-12T09:35:17Z</time>
      </trkpt>
      <trkpt lat="45.03437" lon="5.86506">
        <ele>1689.17</ele>
        <time>2020-03-12T09:35:34Z</time>
      </trkpt>
      <trkpt lat="45.03448" lon="5.86517">
        <ele>1690.62</ele>
        <time>2020-03-12T09:35:49Z</time>
      </trkpt>
      <trkpt lat="45.03451" lon="5.86522">
        <ele>1691.1</ele>
        <time>2020-03-12T09:35:55Z</time>
      </trkpt>
      <trkpt lat="45.03454" lon="5.86534">
        <ele>1692.54</ele>
        <time>2020-03-12T09:36:07Z</time>
      </trkpt>
      <trkpt lat="45.03458" lon="5.86545">
        <ele>1694.46</ele>
        <time>2020-03-12T09:36:20Z</time>
      </trkpt>
      <trkpt lat="45.03467" lon="5.86555">
        <ele>1696.38</ele>
        <time>2020-03-12T09:36:36Z</time>
      </trkpt>
      <trkpt lat="45.03473" lon="5.86566">
        <ele>1697.83</ele>
        <time>2020-03-12T09:36:47Z</time>
      </trkpt>
      <trkpt lat="45.03477" lon="5.86575">
        <ele>1699.75</ele>
        <time>2020-03-12T09:37:00Z</time>
      </trkpt>
      <trkpt lat="45.03481" lon="5.86584">
        <ele>1701.19</ele>
        <time>2020-03-12T09:37:12Z</time>
      </trkpt>
      <trkpt lat="45.03482" lon="5.86585">
        <ele>1701.67</ele>
        <time>2020-03-12T09:37:13Z</time>
      </trkpt>
      <trkpt lat="45.03485" lon="5.86592">
        <ele>1702.15</ele>
        <time>2020-03-12T09:37:19Z</time>
      </trkpt>
      <trkpt lat="45.03487" lon="5.86598">
        <ele>1703.11</ele>
        <time>2020-03-12T09:37:24Z</time>
      </trkpt>
      <trkpt lat="45.03491" lon="5.86603">
        <ele>1702.63</ele>
        <time>2020-03-12T09:37:30Z</time>
      </trkpt>
      <trkpt lat="45.03498" lon="5.86614">
        <ele>1704.07</ele>
        <time>2020-03-12T09:37:44Z</time>
      </trkpt>
      <trkpt lat="45.035" lon="5.86629">
        <ele>1704.55</ele>
        <time>2020-03-12T09:37:57Z</time>
      </trkpt>
      <trkpt lat="45.03506" lon="5.8664">
        <ele>1705.52</ele>
        <time>2020-03-12T09:38:10Z</time>
      </trkpt>
      <trkpt lat="45.03509" lon="5.86645">
        <ele>1705.52</ele>
        <time>2020-03-12T09:38:14Z</time>
      </trkpt>
      <trkpt lat="45.03516" lon="5.86655">
        <ele>1706.48</ele>
        <time>2020-03-12T09:38:28Z</time>
      </trkpt>
      <trkpt lat="45.03515" lon="5.8666">
        <ele>1700.71</ele>
        <time>2020-03-12T09:38:35Z</time>
      </trkpt>
      <trkpt lat="45.03515" lon="5.8666">
        <ele>1711.28</ele>
        <time>2020-03-12T09:38:36Z</time>
      </trkpt>
      <trkpt lat="45.03515" lon="5.8666">
        <ele>1706.96</ele>
        <time>2020-03-12T09:38:37Z</time>
      </trkpt>
      <trkpt lat="45.03515" lon="5.8666">
        <ele>1704.07</ele>
        <time>2020-03-12T09:38:44Z</time>
      </trkpt>
      <trkpt lat="45.03515" lon="5.8666">
        <ele>1700.71</ele>
        <time>2020-03-12T09:38:45Z</time>
      </trkpt>
      <trkpt lat="45.03515" lon="5.8666">
        <ele>1718.49</ele>
        <time>2020-03-12T09:38:47Z</time>
      </trkpt>
      <trkpt lat="45.03515" lon="5.8666">
        <ele>1711.28</ele>
        <time>2020-03-12T09:38:48Z</time>
      </trkpt>
      <trkpt lat="45.03515" lon="5.8666">
        <ele>1707.92</ele>
        <time>2020-03-12T09:38:50Z</time>
      </trkpt>
      <trkpt lat="45.03515" lon="5.8666">
        <ele>1694.94</ele>
        <time>2020-03-12T09:38:52Z</time>
      </trkpt>
      <trkpt lat="45.03515" lon="5.8666">
        <ele>1716.57</ele>
        <time>2020-03-12T09:38:53Z</time>
      </trkpt>
      <trkpt lat="45.03515" lon="5.8666">
        <ele>1700.23</ele>
        <time>2020-03-12T09:38:54Z</time>
      </trkpt>
      <trkpt lat="45.03515" lon="5.8666">
        <ele>1713.21</ele>
        <time>2020-03-12T09:38:55Z</time>
      </trkpt>
      <trkpt lat="45.03515" lon="5.8666">
        <ele>1707.92</ele>
        <time>2020-03-12T09:38:56Z</time>
      </trkpt>
      <trkpt lat="45.03515" lon="5.86661">
        <ele>1707.44</ele>
        <time>2020-03-12T09:39:13Z</time>
      </trkpt>
      <trkpt lat="45.03512" lon="5.86661">
        <ele>1706.96</ele>
        <time>2020-03-12T09:39:35Z</time>
      </trkpt>
      <trkpt lat="45.03514" lon="5.8666">
        <ele>1706.96</ele>
        <time>2020-03-12T09:39:57Z</time>
      </trkpt>
      <trkpt lat="45.03515" lon="5.8666">
        <ele>1707.44</ele>
        <time>2020-03-12T09:40:21Z</time>
      </trkpt>
      <trkpt lat="45.03514" lon="5.8666">
        <ele>1707.44</ele>
        <time>2020-03-12T09:40:48Z</time>
      </trkpt>
      <trkpt lat="45.03514" lon="5.8666">
        <ele>1707.92</ele>
        <time>2020-03-12T09:41:13Z</time>
      </trkpt>
      <trkpt lat="45.03514" lon="5.8666">
        <ele>1706</ele>
        <time>2020-03-12T09:41:23Z</time>
      </trkpt>
      <trkpt lat="45.03514" lon="5.8666">
        <ele>1709.84</ele>
        <time>2020-03-12T09:41:24Z</time>
      </trkpt>
      <trkpt lat="45.03514" lon="5.8666">
        <ele>1709.84</ele>
        <time>2020-03-12T09:41:25Z</time>
      </trkpt>
      <trkpt lat="45.03514" lon="5.8666">
        <ele>1704.07</ele>
        <time>2020-03-12T09:41:26Z</time>
      </trkpt>
      <trkpt lat="45.03514" lon="5.8666">
        <ele>1710.32</ele>
        <time>2020-03-12T09:41:27Z</time>
      </trkpt>
      <trkpt lat="45.03514" lon="5.8666">
        <ele>1702.15</ele>
        <time>2020-03-12T09:41:28Z</time>
      </trkpt>
      <trkpt lat="45.03514" lon="5.8666">
        <ele>1712.73</ele>
        <time>2020-03-12T09:41:29Z</time>
      </trkpt>
      <trkpt lat="45.03514" lon="5.8666">
        <ele>1709.36</ele>
        <time>2020-03-12T09:41:30Z</time>
      </trkpt>
      <trkpt lat="45.03514" lon="5.8666">
        <ele>1698.31</ele>
        <time>2020-03-12T09:41:35Z</time>
      </trkpt>
      <trkpt lat="45.03514" lon="5.8666">
        <ele>1716.09</ele>
        <time>2020-03-12T09:41:36Z</time>
      </trkpt>
      <trkpt lat="45.03514" lon="5.8666">
        <ele>1708.4</ele>
        <time>2020-03-12T09:41:37Z</time>
      </trkpt>
      <trkpt lat="45.03514" lon="5.8666">
        <ele>1709.36</ele>
        <time>2020-03-12T09:41:42Z</time>
      </trkpt>
      <trkpt lat="45.03514" lon="5.8666">
        <ele>1704.55</ele>
        <time>2020-03-12T09:41:43Z</time>
      </trkpt>
      <trkpt lat="45.03514" lon="5.8666">
        <ele>1707.92</ele>
        <time>2020-03-12T09:41:44Z</time>
      </trkpt>
      <trkpt lat="45.03514" lon="5.8666">
        <ele>1709.84</ele>
        <time>2020-03-12T09:41:47Z</time>
      </trkpt>
      <trkpt lat="45.03514" lon="5.8666">
        <ele>1706.48</ele>
        <time>2020-03-12T09:41:50Z</time>
      </trkpt>
      <trkpt lat="45.03514" lon="5.8666">
        <ele>1709.36</ele>
        <time>2020-03-12T09:41:51Z</time>
      </trkpt>
      <trkpt lat="45.03514" lon="5.8666">
        <ele>1715.61</ele>
        <time>2020-03-12T09:41:54Z</time>
      </trkpt>
      <trkpt lat="45.03514" lon="5.8666">
        <ele>1707.92</ele>
        <time>2020-03-12T09:41:55Z</time>
      </trkpt>
      <trkpt lat="45.03515" lon="5.8666">
        <ele>1707.92</ele>
        <time>2020-03-12T09:42:15Z</time>
      </trkpt>
      <trkpt lat="45.03516" lon="5.86657">
        <ele>1708.4</ele>
        <time>2020-03-12T09:42:38Z</time>
      </trkpt>
      <trkpt lat="45.03514" lon="5.8666">
        <ele>1708.88</ele>
        <time>2020-03-12T09:43:02Z</time>
      </trkpt>
      <trkpt lat="45.03515" lon="5.86661">
        <ele>1708.88</ele>
        <time>2020-03-12T09:43:25Z</time>
      </trkpt>
      <trkpt lat="45.03514" lon="5.8666">
        <ele>1709.84</ele>
        <time>2020-03-12T09:43:46Z</time>
      </trkpt>
      <trkpt lat="45.03514" lon="5.86658">
        <ele>1709.36</ele>
        <time>2020-03-12T09:44:10Z</time>
      </trkpt>
      <trkpt lat="45.03514" lon="5.86658">
        <ele>1705.52</ele>
        <time>2020-03-12T09:44:16Z</time>
      </trkpt>
      <trkpt lat="45.03515" lon="5.86658">
        <ele>1714.65</ele>
        <time>2020-03-12T09:44:17Z</time>
      </trkpt>
      <trkpt lat="45.03515" lon="5.86658">
        <ele>1710.32</ele>
        <time>2020-03-12T09:44:18Z</time>
      </trkpt>
      <trkpt lat="45.03515" lon="5.86658">
        <ele>1708.88</ele>
        <time>2020-03-12T09:44:20Z</time>
      </trkpt>
      <trkpt lat="45.03515" lon="5.86658">
        <ele>1712.25</ele>
        <time>2020-03-12T09:44:22Z</time>
      </trkpt>
      <trkpt lat="45.03515" lon="5.86658">
        <ele>1709.36</ele>
        <time>2020-03-12T09:44:25Z</time>
      </trkpt>
      <trkpt lat="45.03515" lon="5.86657">
        <ele>1709.84</ele>
        <time>2020-03-12T09:44:50Z</time>
      </trkpt>
      <trkpt lat="45.03515" lon="5.86657">
        <ele>1703.59</ele>
        <time>2020-03-12T09:44:53Z</time>
      </trkpt>
      <trkpt lat="45.03515" lon="5.86657">
        <ele>1714.65</ele>
        <time>2020-03-12T09:44:54Z</time>
      </trkpt>
      <trkpt lat="45.03515" lon="5.86657">
        <ele>1710.32</ele>
        <time>2020-03-12T09:44:55Z</time>
      </trkpt>
      <trkpt lat="45.03517" lon="5.86658">
        <ele>1710.32</ele>
        <time>2020-03-12T09:45:11Z</time>
      </trkpt>
      <trkpt lat="45.0352" lon="5.86665">
        <ele>1711.28</ele>
        <time>2020-03-12T09:45:24Z</time>
      </trkpt>
      <trkpt lat="45.03522" lon="5.86669">
        <ele>1711.28</ele>
        <time>2020-03-12T09:45:29Z</time>
      </trkpt>
      <trkpt lat="45.03527" lon="5.86689">
        <ele>1711.28</ele>
        <time>2020-03-12T09:45:43Z</time>
      </trkpt>
      <trkpt lat="45.03532" lon="5.86698">
        <ele>1712.25</ele>
        <time>2020-03-12T09:45:54Z</time>
      </trkpt>
      <trkpt lat="45.03539" lon="5.8671">
        <ele>1713.21</ele>
        <time>2020-03-12T09:46:06Z</time>
      </trkpt>
      <trkpt lat="45.03542" lon="5.86721">
        <ele>1714.17</ele>
        <time>2020-03-12T09:46:16Z</time>
      </trkpt>
      <trkpt lat="45.03552" lon="5.86734">
        <ele>1714.65</ele>
        <time>2020-03-12T09:46:31Z</time>
      </trkpt>
      <trkpt lat="45.03559" lon="5.86739">
        <ele>1716.09</ele>
        <time>2020-03-12T09:46:44Z</time>
      </trkpt>
      <trkpt lat="45.03564" lon="5.86745">
        <ele>1717.05</ele>
        <time>2020-03-12T09:46:51Z</time>
      </trkpt>
      <trkpt lat="45.0357" lon="5.86749">
        <ele>1715.61</ele>
        <time>2020-03-12T09:47:04Z</time>
      </trkpt>
      <trkpt lat="45.03573" lon="5.86747">
        <ele>1717.05</ele>
        <time>2020-03-12T09:47:07Z</time>
      </trkpt>
      <trkpt lat="45.03577" lon="5.86756">
        <ele>1717.53</ele>
        <time>2020-03-12T09:47:17Z</time>
      </trkpt>
      <trkpt lat="45.03582" lon="5.86762">
        <ele>1718.01</ele>
        <time>2020-03-12T09:47:22Z</time>
      </trkpt>
      <trkpt lat="45.03585" lon="5.86766">
        <ele>1717.53</ele>
        <time>2020-03-12T09:47:26Z</time>
      </trkpt>
      <trkpt lat="45.03589" lon="5.86773">
        <ele>1719.46</ele>
        <time>2020-03-12T09:47:32Z</time>
      </trkpt>
      <trkpt lat="45.03597" lon="5.86785">
        <ele>1720.42</ele>
        <time>2020-03-12T09:47:47Z</time>
      </trkpt>
      <trkpt lat="45.03604" lon="5.86793">
        <ele>1722.82</ele>
        <time>2020-03-12T09:48:03Z</time>
      </trkpt>
      <trkpt lat="45.03613" lon="5.86804">
        <ele>1722.34</ele>
        <time>2020-03-12T09:48:15Z</time>
      </trkpt>
      <trkpt lat="45.03617" lon="5.86806">
        <ele>1723.78</ele>
        <time>2020-03-12T09:48:21Z</time>
      </trkpt>
      <trkpt lat="45.03628" lon="5.86816">
        <ele>1725.7</ele>
        <time>2020-03-12T09:48:35Z</time>
      </trkpt>
      <trkpt lat="45.03635" lon="5.86828">
        <ele>1725.7</ele>
        <time>2020-03-12T09:48:48Z</time>
      </trkpt>
      <trkpt lat="45.03637" lon="5.86836">
        <ele>1728.59</ele>
        <time>2020-03-12T09:48:58Z</time>
      </trkpt>
      <trkpt lat="45.0364" lon="5.86844">
        <ele>1729.07</ele>
        <time>2020-03-12T09:49:07Z</time>
      </trkpt>
      <trkpt lat="45.03643" lon="5.86858">
        <ele>1729.55</ele>
        <time>2020-03-12T09:49:17Z</time>
      </trkpt>
      <trkpt lat="45.03646" lon="5.86867">
        <ele>1730.03</ele>
        <time>2020-03-12T09:49:25Z</time>
      </trkpt>
      <trkpt lat="45.03648" lon="5.86869">
        <ele>1729.07</ele>
        <time>2020-03-12T09:49:28Z</time>
      </trkpt>
      <trkpt lat="45.0365" lon="5.86878">
        <ele>1730.99</ele>
        <time>2020-03-12T09:49:36Z</time>
      </trkpt>
      <trkpt lat="45.03651" lon="5.86894">
        <ele>1729.55</ele>
        <time>2020-03-12T09:49:50Z</time>
      </trkpt>
      <trkpt lat="45.03653" lon="5.86897">
        <ele>1730.03</ele>
        <time>2020-03-12T09:49:55Z</time>
      </trkpt>
      <trkpt lat="45.03655" lon="5.86909">
        <ele>1731.47</ele>
        <time>2020-03-12T09:50:06Z</time>
      </trkpt>
      <trkpt lat="45.03658" lon="5.86921">
        <ele>1733.39</ele>
        <time>2020-03-12T09:50:19Z</time>
      </trkpt>
      <trkpt lat="45.03666" lon="5.86931">
        <ele>1733.39</ele>
        <time>2020-03-12T09:50:35Z</time>
      </trkpt>
      <trkpt lat="45.03669" lon="5.86928">
        <ele>1734.84</ele>
        <time>2020-03-12T09:50:40Z</time>
      </trkpt>
      <trkpt lat="45.03674" lon="5.86921">
        <ele>1737.24</ele>
        <time>2020-03-12T09:50:52Z</time>
      </trkpt>
      <trkpt lat="45.03676" lon="5.86913">
        <ele>1736.28</ele>
        <time>2020-03-12T09:51:03Z</time>
      </trkpt>
      <trkpt lat="45.0368" lon="5.8691">
        <ele>1739.16</ele>
        <time>2020-03-12T09:51:07Z</time>
      </trkpt>
      <trkpt lat="45.0368" lon="5.86908">
        <ele>1736.28</ele>
        <time>2020-03-12T09:51:08Z</time>
      </trkpt>
      <trkpt lat="45.03687" lon="5.86899">
        <ele>1740.12</ele>
        <time>2020-03-12T09:51:21Z</time>
      </trkpt>
      <trkpt lat="45.03693" lon="5.86888">
        <ele>1739.64</ele>
        <time>2020-03-12T09:51:34Z</time>
      </trkpt>
      <trkpt lat="45.03691" lon="5.86887">
        <ele>1731.95</ele>
        <time>2020-03-12T09:51:45Z</time>
      </trkpt>
      <trkpt lat="45.03691" lon="5.86887">
        <ele>1746.85</ele>
        <time>2020-03-12T09:51:46Z</time>
      </trkpt>
      <trkpt lat="45.03691" lon="5.86887">
        <ele>1739.16</ele>
        <time>2020-03-12T09:51:47Z</time>
      </trkpt>
      <trkpt lat="45.03691" lon="5.86887">
        <ele>1743.49</ele>
        <time>2020-03-12T09:51:48Z</time>
      </trkpt>
      <trkpt lat="45.03691" lon="5.86886">
        <ele>1730.03</ele>
        <time>2020-03-12T09:51:50Z</time>
      </trkpt>
      <trkpt lat="45.03691" lon="5.86886">
        <ele>1746.85</ele>
        <time>2020-03-12T09:51:51Z</time>
      </trkpt>
      <trkpt lat="45.03691" lon="5.86886">
        <ele>1729.07</ele>
        <time>2020-03-12T09:51:52Z</time>
      </trkpt>
      <trkpt lat="45.03691" lon="5.86886">
        <ele>1747.81</ele>
        <time>2020-03-12T09:51:53Z</time>
      </trkpt>
      <trkpt lat="45.03691" lon="5.86886">
        <ele>1740.6</ele>
        <time>2020-03-12T09:51:54Z</time>
      </trkpt>
      <trkpt lat="45.03691" lon="5.86886">
        <ele>1735.32</ele>
        <time>2020-03-12T09:51:55Z</time>
      </trkpt>
      <trkpt lat="45.03691" lon="5.86886">
        <ele>1748.29</ele>
        <time>2020-03-12T09:51:56Z</time>
      </trkpt>
      <trkpt lat="45.03691" lon="5.86885">
        <ele>1742.53</ele>
        <time>2020-03-12T09:51:57Z</time>
      </trkpt>
      <trkpt lat="45.0369" lon="5.86885">
        <ele>1739.64</ele>
        <time>2020-03-12T09:52:00Z</time>
      </trkpt>
      <trkpt lat="45.03691" lon="5.86885">
        <ele>1720.9</ele>
        <time>2020-03-12T09:52:01Z</time>
      </trkpt>
      <trkpt lat="45.03691" lon="5.86885">
        <ele>1759.35</ele>
        <time>2020-03-12T09:52:02Z</time>
      </trkpt>
      <trkpt lat="45.03691" lon="5.86885">
        <ele>1746.85</ele>
        <time>2020-03-12T09:52:03Z</time>
      </trkpt>
      <trkpt lat="45.03691" lon="5.86885">
        <ele>1739.64</ele>
        <time>2020-03-12T09:52:05Z</time>
      </trkpt>
      <trkpt lat="45.03692" lon="5.86885">
        <ele>1740.12</ele>
        <time>2020-03-12T09:52:06Z</time>
      </trkpt>
      <trkpt lat="45.03692" lon="5.86885">
        <ele>1730.03</ele>
        <time>2020-03-12T09:52:09Z</time>
      </trkpt>
      <trkpt lat="45.03692" lon="5.86885">
        <ele>1739.16</ele>
        <time>2020-03-12T09:52:11Z</time>
      </trkpt>
      <trkpt lat="45.03692" lon="5.86885">
        <ele>1759.35</ele>
        <time>2020-03-12T09:52:12Z</time>
      </trkpt>
      <trkpt lat="45.03692" lon="5.86884">
        <ele>1748.29</ele>
        <time>2020-03-12T09:52:13Z</time>
      </trkpt>
      <trkpt lat="45.03692" lon="5.86884">
        <ele>1743.01</ele>
        <time>2020-03-12T09:52:14Z</time>
      </trkpt>
      <trkpt lat="45.03692" lon="5.86884">
        <ele>1718.49</ele>
        <time>2020-03-12T09:52:16Z</time>
      </trkpt>
      <trkpt lat="45.03692" lon="5.86884">
        <ele>1753.58</ele>
        <time>2020-03-12T09:52:17Z</time>
      </trkpt>
      <trkpt lat="45.03692" lon="5.86884">
        <ele>1742.05</ele>
        <time>2020-03-12T09:52:18Z</time>
      </trkpt>
      <trkpt lat="45.03692" lon="5.86884">
        <ele>1730.99</ele>
        <time>2020-03-12T09:52:19Z</time>
      </trkpt>
      <trkpt lat="45.03692" lon="5.86884">
        <ele>1748.29</ele>
        <time>2020-03-12T09:52:20Z</time>
      </trkpt>
      <trkpt lat="45.03691" lon="5.86884">
        <ele>1740.6</ele>
        <time>2020-03-12T09:52:21Z</time>
      </trkpt>
      <trkpt lat="45.03691" lon="5.86883">
        <ele>1739.64</ele>
        <time>2020-03-12T09:52:23Z</time>
      </trkpt>
      <trkpt lat="45.03691" lon="5.86886">
        <ele>1739.64</ele>
        <time>2020-03-12T09:52:41Z</time>
      </trkpt>
      <trkpt lat="45.03697" lon="5.86881">
        <ele>1739.64</ele>
        <time>2020-03-12T09:52:55Z</time>
      </trkpt>
      <trkpt lat="45.03698" lon="5.8688">
        <ele>1739.64</ele>
        <time>2020-03-12T09:52:57Z</time>
      </trkpt>
      <trkpt lat="45.03699" lon="5.86868">
        <ele>1738.68</ele>
        <time>2020-03-12T09:53:11Z</time>
      </trkpt>
      <trkpt lat="45.037" lon="5.8687">
        <ele>1740.12</ele>
        <time>2020-03-12T09:53:19Z</time>
      </trkpt>
      <trkpt lat="45.03719" lon="5.8688">
        <ele>1742.53</ele>
        <time>2020-03-12T09:53:38Z</time>
      </trkpt>
      <trkpt lat="45.03728" lon="5.86887">
        <ele>1744.93</ele>
        <time>2020-03-12T09:53:52Z</time>
      </trkpt>
      <trkpt lat="45.03734" lon="5.86888">
        <ele>1748.29</ele>
        <time>2020-03-12T09:53:58Z</time>
      </trkpt>
      <trkpt lat="45.03735" lon="5.86888">
        <ele>1744.45</ele>
        <time>2020-03-12T09:54:00Z</time>
      </trkpt>
      <trkpt lat="45.03739" lon="5.86884">
        <ele>1747.81</ele>
        <time>2020-03-12T09:54:07Z</time>
      </trkpt>
      <trkpt lat="45.0375" lon="5.86898">
        <ele>1749.26</ele>
        <time>2020-03-12T09:54:24Z</time>
      </trkpt>
      <trkpt lat="45.03754" lon="5.86905">
        <ele>1752.14</ele>
        <time>2020-03-12T09:54:36Z</time>
      </trkpt>
      <trkpt lat="45.03756" lon="5.86913">
        <ele>1753.1</ele>
        <time>2020-03-12T09:54:53Z</time>
      </trkpt>
      <trkpt lat="45.0376" lon="5.86927">
        <ele>1756.95</ele>
        <time>2020-03-12T09:55:06Z</time>
      </trkpt>
      <trkpt lat="45.03764" lon="5.86934">
        <ele>1757.43</ele>
        <time>2020-03-12T09:55:21Z</time>
      </trkpt>
      <trkpt lat="45.03763" lon="5.8694">
        <ele>1760.31</ele>
        <time>2020-03-12T09:55:39Z</time>
      </trkpt>
      <trkpt lat="45.0377" lon="5.86945">
        <ele>1761.27</ele>
        <time>2020-03-12T09:56:00Z</time>
      </trkpt>
      <trkpt lat="45.03778" lon="5.86946">
        <ele>1764.16</ele>
        <time>2020-03-12T09:56:10Z</time>
      </trkpt>
      <trkpt lat="45.03786" lon="5.86951">
        <ele>1763.68</ele>
        <time>2020-03-12T09:56:28Z</time>
      </trkpt>
      <trkpt lat="45.03784" lon="5.86963">
        <ele>1763.2</ele>
        <time>2020-03-12T09:56:52Z</time>
      </trkpt>
      <trkpt lat="45.03796" lon="5.86955">
        <ele>1766.08</ele>
        <time>2020-03-12T09:57:13Z</time>
      </trkpt>
      <trkpt lat="45.03807" lon="5.86952">
        <ele>1766.08</ele>
        <time>2020-03-12T09:57:31Z</time>
      </trkpt>
      <trkpt lat="45.03809" lon="5.86955">
        <ele>1769.44</ele>
        <time>2020-03-12T09:57:42Z</time>
      </trkpt>
      <trkpt lat="45.03816" lon="5.86961">
        <ele>1772.33</ele>
        <time>2020-03-12T09:57:57Z</time>
      </trkpt>
      <trkpt lat="45.0382" lon="5.86963">
        <ele>1774.25</ele>
        <time>2020-03-12T09:58:16Z</time>
      </trkpt>
      <trkpt lat="45.03821" lon="5.86965">
        <ele>1770.89</ele>
        <time>2020-03-12T09:58:17Z</time>
      </trkpt>
      <trkpt lat="45.03822" lon="5.86966">
        <ele>1775.21</ele>
        <time>2020-03-12T09:58:18Z</time>
      </trkpt>
      <trkpt lat="45.03835" lon="5.86977">
        <ele>1776.65</ele>
        <time>2020-03-12T09:58:38Z</time>
      </trkpt>
      <trkpt lat="45.03839" lon="5.86979">
        <ele>1777.13</ele>
        <time>2020-03-12T09:58:42Z</time>
      </trkpt>
      <trkpt lat="45.03846" lon="5.86982">
        <ele>1779.54</ele>
        <time>2020-03-12T09:58:54Z</time>
      </trkpt>
      <trkpt lat="45.03853" lon="5.86983">
        <ele>1780.98</ele>
        <time>2020-03-12T09:59:15Z</time>
      </trkpt>
      <trkpt lat="45.03854" lon="5.86983">
        <ele>1776.17</ele>
        <time>2020-03-12T09:59:18Z</time>
      </trkpt>
      <trkpt lat="45.03854" lon="5.86983">
        <ele>1784.34</ele>
        <time>2020-03-12T09:59:19Z</time>
      </trkpt>
      <trkpt lat="45.03854" lon="5.86983">
        <ele>1780.98</ele>
        <time>2020-03-12T09:59:20Z</time>
      </trkpt>
      <trkpt lat="45.03854" lon="5.86983">
        <ele>1782.42</ele>
        <time>2020-03-12T09:59:23Z</time>
      </trkpt>
      <trkpt lat="45.03854" lon="5.86983">
        <ele>1776.17</ele>
        <time>2020-03-12T09:59:29Z</time>
      </trkpt>
      <trkpt lat="45.03854" lon="5.86983">
        <ele>1778.58</ele>
        <time>2020-03-12T09:59:30Z</time>
      </trkpt>
      <trkpt lat="45.03854" lon="5.86983">
        <ele>1783.38</ele>
        <time>2020-03-12T09:59:31Z</time>
      </trkpt>
      <trkpt lat="45.03855" lon="5.86983">
        <ele>1774.25</ele>
        <time>2020-03-12T09:59:36Z</time>
      </trkpt>
      <trkpt lat="45.03855" lon="5.86983">
        <ele>1790.59</ele>
        <time>2020-03-12T09:59:37Z</time>
      </trkpt>
      <trkpt lat="45.03855" lon="5.86984">
        <ele>1785.31</ele>
        <time>2020-03-12T09:59:38Z</time>
      </trkpt>
      <trkpt lat="45.03855" lon="5.86985">
        <ele>1781.94</ele>
        <time>2020-03-12T09:59:40Z</time>
      </trkpt>
      <trkpt lat="45.03855" lon="5.86986">
        <ele>1781.94</ele>
        <time>2020-03-12T09:59:41Z</time>
      </trkpt>
      <trkpt lat="45.03856" lon="5.86985">
        <ele>1781.94</ele>
        <time>2020-03-12T10:00:02Z</time>
      </trkpt>
      <trkpt lat="45.03862" lon="5.86985">
        <ele>1781.46</ele>
        <time>2020-03-12T10:00:29Z</time>
      </trkpt>
      <trkpt lat="45.03859" lon="5.86984">
        <ele>1780.98</ele>
        <time>2020-03-12T10:00:56Z</time>
      </trkpt>
      <trkpt lat="45.03859" lon="5.86984">
        <ele>1780.98</ele>
        <time>2020-03-12T10:01:21Z</time>
      </trkpt>
      <trkpt lat="45.03855" lon="5.86987">
        <ele>1780.98</ele>
        <time>2020-03-12T10:01:39Z</time>
      </trkpt>
      <trkpt lat="45.03857" lon="5.86987">
        <ele>1781.46</ele>
        <time>2020-03-12T10:02:06Z</time>
      </trkpt>
      <trkpt lat="45.0387" lon="5.86993">
        <ele>1784.82</ele>
        <time>2020-03-12T10:02:21Z</time>
      </trkpt>
      <trkpt lat="45.03872" lon="5.86994">
        <ele>1788.19</ele>
        <time>2020-03-12T10:02:33Z</time>
      </trkpt>
      <trkpt lat="45.03873" lon="5.86995">
        <ele>1785.31</ele>
        <time>2020-03-12T10:02:34Z</time>
      </trkpt>
      <trkpt lat="45.03885" lon="5.87001">
        <ele>1788.19</ele>
        <time>2020-03-12T10:02:52Z</time>
      </trkpt>
      <trkpt lat="45.03898" lon="5.87013">
        <ele>1790.11</ele>
        <time>2020-03-12T10:03:10Z</time>
      </trkpt>
      <trkpt lat="45.03909" lon="5.8702">
        <ele>1792.52</ele>
        <time>2020-03-12T10:03:25Z</time>
      </trkpt>
      <trkpt lat="45.03919" lon="5.87028">
        <ele>1796.36</ele>
        <time>2020-03-12T10:03:41Z</time>
      </trkpt>
      <trkpt lat="45.03919" lon="5.87029">
        <ele>1793.48</ele>
        <time>2020-03-12T10:03:42Z</time>
      </trkpt>
      <trkpt lat="45.03924" lon="5.87034">
        <ele>1796.36</ele>
        <time>2020-03-12T10:03:48Z</time>
      </trkpt>
      <trkpt lat="45.03936" lon="5.87041">
        <ele>1796.84</ele>
        <time>2020-03-12T10:04:04Z</time>
      </trkpt>
      <trkpt lat="45.03944" lon="5.8705">
        <ele>1797.32</ele>
        <time>2020-03-12T10:04:15Z</time>
      </trkpt>
      <trkpt lat="45.0395" lon="5.87061">
        <ele>1797.8</ele>
        <time>2020-03-12T10:04:29Z</time>
      </trkpt>
      <trkpt lat="45.03952" lon="5.87065">
        <ele>1801.65</ele>
        <time>2020-03-12T10:04:33Z</time>
      </trkpt>
      <trkpt lat="45.03955" lon="5.87073">
        <ele>1803.57</ele>
        <time>2020-03-12T10:04:49Z</time>
      </trkpt>
      <trkpt lat="45.03963" lon="5.87086">
        <ele>1805.01</ele>
        <time>2020-03-12T10:05:08Z</time>
      </trkpt>
      <trkpt lat="45.03962" lon="5.87087">
        <ele>1808.38</ele>
        <time>2020-03-12T10:05:16Z</time>
      </trkpt>
      <trkpt lat="45.03961" lon="5.87088">
        <ele>1805.01</ele>
        <time>2020-03-12T10:05:17Z</time>
      </trkpt>
      <trkpt lat="45.03961" lon="5.87088">
        <ele>1809.34</ele>
        <time>2020-03-12T10:05:18Z</time>
      </trkpt>
      <trkpt lat="45.03961" lon="5.87089">
        <ele>1805.97</ele>
        <time>2020-03-12T10:05:19Z</time>
      </trkpt>
      <trkpt lat="45.0396" lon="5.8709">
        <ele>1810.3</ele>
        <time>2020-03-12T10:05:24Z</time>
      </trkpt>
      <trkpt lat="45.03961" lon="5.87102">
        <ele>1812.22</ele>
        <time>2020-03-12T10:05:40Z</time>
      </trkpt>
      <trkpt lat="45.03966" lon="5.87108">
        <ele>1813.18</ele>
        <time>2020-03-12T10:05:56Z</time>
      </trkpt>
      <trkpt lat="45.03979" lon="5.87113">
        <ele>1812.7</ele>
        <time>2020-03-12T10:06:18Z</time>
      </trkpt>
      <trkpt lat="45.03989" lon="5.8712">
        <ele>1814.63</ele>
        <time>2020-03-12T10:06:35Z</time>
      </trkpt>
      <trkpt lat="45.03989" lon="5.87129">
        <ele>1818.47</ele>
        <time>2020-03-12T10:06:47Z</time>
      </trkpt>
      <trkpt lat="45.03991" lon="5.87136">
        <ele>1819.43</ele>
        <time>2020-03-12T10:07:01Z</time>
      </trkpt>
      <trkpt lat="45.03989" lon="5.87146">
        <ele>1821.84</ele>
        <time>2020-03-12T10:07:13Z</time>
      </trkpt>
      <trkpt lat="45.03986" lon="5.87159">
        <ele>1822.32</ele>
        <time>2020-03-12T10:07:26Z</time>
      </trkpt>
      <trkpt lat="45.03987" lon="5.87165">
        <ele>1825.68</ele>
        <time>2020-03-12T10:07:35Z</time>
      </trkpt>
      <trkpt lat="45.03991" lon="5.87178">
        <ele>1826.64</ele>
        <time>2020-03-12T10:07:47Z</time>
      </trkpt>
      <trkpt lat="45.03995" lon="5.87186">
        <ele>1829.05</ele>
        <time>2020-03-12T10:08:00Z</time>
      </trkpt>
      <trkpt lat="45.03998" lon="5.87195">
        <ele>1829.05</ele>
        <time>2020-03-12T10:08:12Z</time>
      </trkpt>
      <trkpt lat="45.04" lon="5.87198">
        <ele>1832.41</ele>
        <time>2020-03-12T10:08:16Z</time>
      </trkpt>
      <trkpt lat="45.04001" lon="5.872">
        <ele>1829.53</ele>
        <time>2020-03-12T10:08:18Z</time>
      </trkpt>
      <trkpt lat="45.04001" lon="5.87201">
        <ele>1832.89</ele>
        <time>2020-03-12T10:08:19Z</time>
      </trkpt>
      <trkpt lat="45.04002" lon="5.87205">
        <ele>1833.85</ele>
        <time>2020-03-12T10:08:29Z</time>
      </trkpt>
      <trkpt lat="45.04" lon="5.87216">
        <ele>1833.37</ele>
        <time>2020-03-12T10:08:42Z</time>
      </trkpt>
      <trkpt lat="45.03999" lon="5.87218">
        <ele>1836.74</ele>
        <time>2020-03-12T10:08:45Z</time>
      </trkpt>
      <trkpt lat="45.03996" lon="5.8723">
        <ele>1838.18</ele>
        <time>2020-03-12T10:09:00Z</time>
      </trkpt>
      <trkpt lat="45.03992" lon="5.87237">
        <ele>1840.1</ele>
        <time>2020-03-12T10:09:11Z</time>
      </trkpt>
      <trkpt lat="45.0399" lon="5.87247">
        <ele>1840.58</ele>
        <time>2020-03-12T10:09:23Z</time>
      </trkpt>
      <trkpt lat="45.03993" lon="5.87254">
        <ele>1843.95</ele>
        <time>2020-03-12T10:09:33Z</time>
      </trkpt>
      <trkpt lat="45.03998" lon="5.87263">
        <ele>1845.39</ele>
        <time>2020-03-12T10:09:45Z</time>
      </trkpt>
      <trkpt lat="45.04003" lon="5.87273">
        <ele>1847.31</ele>
        <time>2020-03-12T10:09:57Z</time>
      </trkpt>
      <trkpt lat="45.04007" lon="5.87281">
        <ele>1848.75</ele>
        <time>2020-03-12T10:10:08Z</time>
      </trkpt>
      <trkpt lat="45.0401" lon="5.87287">
        <ele>1851.16</ele>
        <time>2020-03-12T10:10:20Z</time>
      </trkpt>
      <trkpt lat="45.0401" lon="5.87291">
        <ele>1850.68</ele>
        <time>2020-03-12T10:10:43Z</time>
      </trkpt>
      <trkpt lat="45.04008" lon="5.87293">
        <ele>1854.04</ele>
        <time>2020-03-12T10:10:52Z</time>
      </trkpt>
      <trkpt lat="45.04004" lon="5.87299">
        <ele>1853.56</ele>
        <time>2020-03-12T10:11:03Z</time>
      </trkpt>
      <trkpt lat="45.03998" lon="5.87302">
        <ele>1857.4</ele>
        <time>2020-03-12T10:11:15Z</time>
      </trkpt>
      <trkpt lat="45.03993" lon="5.87305">
        <ele>1859.33</ele>
        <time>2020-03-12T10:11:29Z</time>
      </trkpt>
      <trkpt lat="45.03993" lon="5.8731">
        <ele>1862.69</ele>
        <time>2020-03-12T10:11:42Z</time>
      </trkpt>
      <trkpt lat="45.03994" lon="5.87311">
        <ele>1859.33</ele>
        <time>2020-03-12T10:11:43Z</time>
      </trkpt>
      <trkpt lat="45.03996" lon="5.87315">
        <ele>1863.17</ele>
        <time>2020-03-12T10:11:49Z</time>
      </trkpt>
      <trkpt lat="45.04002" lon="5.8732">
        <ele>1862.69</ele>
        <time>2020-03-12T10:11:58Z</time>
      </trkpt>
      <trkpt lat="45.0401" lon="5.87328">
        <ele>1865.58</ele>
        <time>2020-03-12T10:12:11Z</time>
      </trkpt>
      <trkpt lat="45.04007" lon="5.8733">
        <ele>1866.54</ele>
        <time>2020-03-12T10:12:23Z</time>
      </trkpt>
      <trkpt lat="45.04001" lon="5.87333">
        <ele>1867.98</ele>
        <time>2020-03-12T10:12:34Z</time>
      </trkpt>
      <trkpt lat="45.04001" lon="5.87333">
        <ele>1864.61</ele>
        <time>2020-03-12T10:12:35Z</time>
      </trkpt>
      <trkpt lat="45.04" lon="5.87333">
        <ele>1869.42</ele>
        <time>2020-03-12T10:12:36Z</time>
      </trkpt>
      <trkpt lat="45.04001" lon="5.87335">
        <ele>1868.46</ele>
        <time>2020-03-12T10:12:52Z</time>
      </trkpt>
      <trkpt lat="45.04" lon="5.87334">
        <ele>1868.94</ele>
        <time>2020-03-12T10:13:19Z</time>
      </trkpt>
      <trkpt lat="45.03997" lon="5.87332">
        <ele>1868.94</ele>
        <time>2020-03-12T10:13:56Z</time>
      </trkpt>
      <trkpt lat="45.03997" lon="5.87332">
        <ele>1869.42</ele>
        <time>2020-03-12T10:14:30Z</time>
      </trkpt>
      <trkpt lat="45.03998" lon="5.87333">
        <ele>1869.42</ele>
        <time>2020-03-12T10:14:57Z</time>
      </trkpt>
      <trkpt lat="45.03999" lon="5.87334">
        <ele>1869.42</ele>
        <time>2020-03-12T10:15:24Z</time>
      </trkpt>
      <trkpt lat="45.03997" lon="5.87333">
        <ele>1870.38</ele>
        <time>2020-03-12T10:16:03Z</time>
      </trkpt>
      <trkpt lat="45.03998" lon="5.87333">
        <ele>1870.86</ele>
        <time>2020-03-12T10:16:35Z</time>
      </trkpt>
      <trkpt lat="45.03997" lon="5.87332">
        <ele>1870.86</ele>
        <time>2020-03-12T10:17:06Z</time>
      </trkpt>
      <trkpt lat="45.03997" lon="5.87332">
        <ele>1870.86</ele>
        <time>2020-03-12T10:17:42Z</time>
      </trkpt>
      <trkpt lat="45.03997" lon="5.87334">
        <ele>1874.23</ele>
        <time>2020-03-12T10:18:11Z</time>
      </trkpt>
      <trkpt lat="45.03998" lon="5.87335">
        <ele>1870.86</ele>
        <time>2020-03-12T10:18:12Z</time>
      </trkpt>
      <trkpt lat="45.03998" lon="5.87335">
        <ele>1873.75</ele>
        <time>2020-03-12T10:18:13Z</time>
      </trkpt>
      <trkpt lat="45.03996" lon="5.87342">
        <ele>1876.15</ele>
        <time>2020-03-12T10:18:25Z</time>
      </trkpt>
      <trkpt lat="45.03996" lon="5.87346">
        <ele>1873.27</ele>
        <time>2020-03-12T10:18:29Z</time>
      </trkpt>
      <trkpt lat="45.03996" lon="5.87346">
        <ele>1877.59</ele>
        <time>2020-03-12T10:18:30Z</time>
      </trkpt>
      <trkpt lat="45.03996" lon="5.87347">
        <ele>1874.23</ele>
        <time>2020-03-12T10:18:31Z</time>
      </trkpt>
      <trkpt lat="45.03996" lon="5.87349">
        <ele>1877.59</ele>
        <time>2020-03-12T10:18:35Z</time>
      </trkpt>
      <trkpt lat="45.03997" lon="5.87355">
        <ele>1877.59</ele>
        <time>2020-03-12T10:18:46Z</time>
      </trkpt>
      <trkpt lat="45.03996" lon="5.87357">
        <ele>1880.96</ele>
        <time>2020-03-12T10:18:49Z</time>
      </trkpt>
      <trkpt lat="45.03989" lon="5.87358">
        <ele>1882.4</ele>
        <time>2020-03-12T10:19:04Z</time>
      </trkpt>
      <trkpt lat="45.03984" lon="5.87363">
        <ele>1884.8</ele>
        <time>2020-03-12T10:19:17Z</time>
      </trkpt>
      <trkpt lat="45.03982" lon="5.87367">
        <ele>1880.96</ele>
        <time>2020-03-12T10:19:26Z</time>
      </trkpt>
      <trkpt lat="45.03983" lon="5.87368">
        <ele>1888.17</ele>
        <time>2020-03-12T10:19:27Z</time>
      </trkpt>
      <trkpt lat="45.03983" lon="5.87369">
        <ele>1885.28</ele>
        <time>2020-03-12T10:19:28Z</time>
      </trkpt>
      <trkpt lat="45.03984" lon="5.87372">
        <ele>1888.65</ele>
        <time>2020-03-12T10:19:32Z</time>
      </trkpt>
      <trkpt lat="45.03988" lon="5.87379">
        <ele>1887.69</ele>
        <time>2020-03-12T10:19:46Z</time>
      </trkpt>
      <trkpt lat="45.03991" lon="5.87387">
        <ele>1891.53</ele>
        <time>2020-03-12T10:19:55Z</time>
      </trkpt>
      <trkpt lat="45.03993" lon="5.87395">
        <ele>1891.53</ele>
        <time>2020-03-12T10:20:06Z</time>
      </trkpt>
      <trkpt lat="45.03993" lon="5.87396">
        <ele>1892.49</ele>
        <time>2020-03-12T10:20:08Z</time>
      </trkpt>
      <trkpt lat="45.03995" lon="5.87402">
        <ele>1895.86</ele>
        <time>2020-03-12T10:20:18Z</time>
      </trkpt>
      <trkpt lat="45.03997" lon="5.87405">
        <ele>1895.86</ele>
        <time>2020-03-12T10:20:23Z</time>
      </trkpt>
      <trkpt lat="45.04001" lon="5.87412">
        <ele>1898.26</ele>
        <time>2020-03-12T10:20:30Z</time>
      </trkpt>
      <trkpt lat="45.04002" lon="5.87414">
        <ele>1894.9</ele>
        <time>2020-03-12T10:20:34Z</time>
      </trkpt>
      <trkpt lat="45.04002" lon="5.87415">
        <ele>1898.26</ele>
        <time>2020-03-12T10:20:35Z</time>
      </trkpt>
      <trkpt lat="45.04003" lon="5.87416">
        <ele>1894.42</ele>
        <time>2020-03-12T10:20:36Z</time>
      </trkpt>
      <trkpt lat="45.04004" lon="5.87417">
        <ele>1897.78</ele>
        <time>2020-03-12T10:20:37Z</time>
      </trkpt>
      <trkpt lat="45.04009" lon="5.87427">
        <ele>1899.22</ele>
        <time>2020-03-12T10:20:48Z</time>
      </trkpt>
      <trkpt lat="45.04009" lon="5.87433">
        <ele>1902.11</ele>
        <time>2020-03-12T10:20:58Z</time>
      </trkpt>
      <trkpt lat="45.04008" lon="5.87435">
        <ele>1902.11</ele>
        <time>2020-03-12T10:21:03Z</time>
      </trkpt>
      <trkpt lat="45.04007" lon="5.87445">
        <ele>1905.47</ele>
        <time>2020-03-12T10:21:16Z</time>
      </trkpt>
      <trkpt lat="45.04007" lon="5.87452">
        <ele>1906.91</ele>
        <time>2020-03-12T10:21:26Z</time>
      </trkpt>
      <trkpt lat="45.04007" lon="5.87457">
        <ele>1909.8</ele>
        <time>2020-03-12T10:21:36Z</time>
      </trkpt>
      <trkpt lat="45.04009" lon="5.87465">
        <ele>1911.24</ele>
        <time>2020-03-12T10:21:47Z</time>
      </trkpt>
      <trkpt lat="45.04008" lon="5.87472">
        <ele>1912.2</ele>
        <time>2020-03-12T10:21:59Z</time>
      </trkpt>
      <trkpt lat="45.04008" lon="5.87472">
        <ele>1913.64</ele>
        <time>2020-03-12T10:22:01Z</time>
      </trkpt>
      <trkpt lat="45.04006" lon="5.87479">
        <ele>1915.56</ele>
        <time>2020-03-12T10:22:12Z</time>
      </trkpt>
      <trkpt lat="45.04003" lon="5.87484">
        <ele>1917.01</ele>
        <time>2020-03-12T10:22:22Z</time>
      </trkpt>
      <trkpt lat="45.04004" lon="5.87488">
        <ele>1920.37</ele>
        <time>2020-03-12T10:22:31Z</time>
      </trkpt>
      <trkpt lat="45.04006" lon="5.87497">
        <ele>1919.89</ele>
        <time>2020-03-12T10:22:42Z</time>
      </trkpt>
      <trkpt lat="45.04005" lon="5.87501">
        <ele>1923.74</ele>
        <time>2020-03-12T10:22:48Z</time>
      </trkpt>
      <trkpt lat="45.04007" lon="5.87514">
        <ele>1924.7</ele>
        <time>2020-03-12T10:23:00Z</time>
      </trkpt>
      <trkpt lat="45.04004" lon="5.87518">
        <ele>1928.54</ele>
        <time>2020-03-12T10:23:09Z</time>
      </trkpt>
      <trkpt lat="45.04004" lon="5.87519">
        <ele>1926.14</ele>
        <time>2020-03-12T10:23:10Z</time>
      </trkpt>
      <trkpt lat="45.04003" lon="5.87523">
        <ele>1928.06</ele>
        <time>2020-03-12T10:23:16Z</time>
      </trkpt>
      <trkpt lat="45.04004" lon="5.87524">
        <ele>1929.02</ele>
        <time>2020-03-12T10:23:19Z</time>
      </trkpt>
      <trkpt lat="45.04004" lon="5.8753">
        <ele>1932.39</ele>
        <time>2020-03-12T10:23:26Z</time>
      </trkpt>
      <trkpt lat="45.04005" lon="5.87531">
        <ele>1928.54</ele>
        <time>2020-03-12T10:23:27Z</time>
      </trkpt>
      <trkpt lat="45.04005" lon="5.87532">
        <ele>1931.91</ele>
        <time>2020-03-12T10:23:28Z</time>
      </trkpt>
      <trkpt lat="45.04006" lon="5.87534">
        <ele>1931.91</ele>
        <time>2020-03-12T10:23:38Z</time>
      </trkpt>
      <trkpt lat="45.04005" lon="5.87537">
        <ele>1931.43</ele>
        <time>2020-03-12T10:23:59Z</time>
      </trkpt>
      <trkpt lat="45.04004" lon="5.87536">
        <ele>1933.35</ele>
        <time>2020-03-12T10:24:16Z</time>
      </trkpt>
      <trkpt lat="45.04004" lon="5.87536">
        <ele>1924.22</ele>
        <time>2020-03-12T10:24:20Z</time>
      </trkpt>
      <trkpt lat="45.04004" lon="5.87536">
        <ele>1938.16</ele>
        <time>2020-03-12T10:24:21Z</time>
      </trkpt>
      <trkpt lat="45.04004" lon="5.87536">
        <ele>1933.35</ele>
        <time>2020-03-12T10:24:22Z</time>
      </trkpt>
      <trkpt lat="45.04003" lon="5.87536">
        <ele>1923.25</ele>
        <time>2020-03-12T10:24:32Z</time>
      </trkpt>
      <trkpt lat="45.04003" lon="5.87536">
        <ele>1941.52</ele>
        <time>2020-03-12T10:24:33Z</time>
      </trkpt>
      <trkpt lat="45.04003" lon="5.87536">
        <ele>1933.83</ele>
        <time>2020-03-12T10:24:34Z</time>
      </trkpt>
      <trkpt lat="45.04003" lon="5.87536">
        <ele>1929.02</ele>
        <time>2020-03-12T10:24:36Z</time>
      </trkpt>
      <trkpt lat="45.04003" lon="5.87536">
        <ele>1933.35</ele>
        <time>2020-03-12T10:24:37Z</time>
      </trkpt>
      <trkpt lat="45.04003" lon="5.87535">
        <ele>1917.49</ele>
        <time>2020-03-12T10:24:42Z</time>
      </trkpt>
      <trkpt lat="45.04003" lon="5.87535">
        <ele>1946.33</ele>
        <time>2020-03-12T10:24:43Z</time>
      </trkpt>
      <trkpt lat="45.04003" lon="5.87535">
        <ele>1925.18</ele>
        <time>2020-03-12T10:24:44Z</time>
      </trkpt>
      <trkpt lat="45.04003" lon="5.87535">
        <ele>1942</ele>
        <time>2020-03-12T10:24:45Z</time>
      </trkpt>
      <trkpt lat="45.04003" lon="5.87535">
        <ele>1933.83</ele>
        <time>2020-03-12T10:24:46Z</time>
      </trkpt>
      <trkpt lat="45.04003" lon="5.87535">
        <ele>1919.41</ele>
        <time>2020-03-12T10:24:47Z</time>
      </trkpt>
      <trkpt lat="45.04003" lon="5.87535">
        <ele>1944.4</ele>
        <time>2020-03-12T10:24:48Z</time>
      </trkpt>
      <trkpt lat="45.04003" lon="5.87535">
        <ele>1928.54</ele>
        <time>2020-03-12T10:24:49Z</time>
      </trkpt>
      <trkpt lat="45.04003" lon="5.87535">
        <ele>1943.44</ele>
        <time>2020-03-12T10:24:50Z</time>
      </trkpt>
      <trkpt lat="45.04003" lon="5.87535">
        <ele>1930.46</ele>
        <time>2020-03-12T10:24:51Z</time>
      </trkpt>
      <trkpt lat="45.04003" lon="5.87535">
        <ele>1927.1</ele>
        <time>2020-03-12T10:24:53Z</time>
      </trkpt>
      <trkpt lat="45.04003" lon="5.87535">
        <ele>1938.16</ele>
        <time>2020-03-12T10:24:54Z</time>
      </trkpt>
      <trkpt lat="45.04003" lon="5.87535">
        <ele>1933.35</ele>
        <time>2020-03-12T10:24:55Z</time>
      </trkpt>
      <trkpt lat="45.04003" lon="5.87535">
        <ele>1916.04</ele>
        <time>2020-03-12T10:24:56Z</time>
      </trkpt>
      <trkpt lat="45.04003" lon="5.87535">
        <ele>1945.36</ele>
        <time>2020-03-12T10:24:57Z</time>
      </trkpt>
      <trkpt lat="45.04003" lon="5.87535">
        <ele>1934.31</ele>
        <time>2020-03-12T10:24:58Z</time>
      </trkpt>
      <trkpt lat="45.04003" lon="5.87535">
        <ele>1932.87</ele>
        <time>2020-03-12T10:25:00Z</time>
      </trkpt>
      <trkpt lat="45.04003" lon="5.87535">
        <ele>1907.87</ele>
        <time>2020-03-12T10:25:03Z</time>
      </trkpt>
      <trkpt lat="45.04003" lon="5.87534">
        <ele>1948.73</ele>
        <time>2020-03-12T10:25:04Z</time>
      </trkpt>
      <trkpt lat="45.04003" lon="5.87534">
        <ele>1920.37</ele>
        <time>2020-03-12T10:25:05Z</time>
      </trkpt>
      <trkpt lat="45.04003" lon="5.87534">
        <ele>1949.69</ele>
        <time>2020-03-12T10:25:06Z</time>
      </trkpt>
      <trkpt lat="45.04003" lon="5.87534">
        <ele>1929.5</ele>
        <time>2020-03-12T10:25:07Z</time>
      </trkpt>
      <trkpt lat="45.04003" lon="5.87534">
        <ele>1938.64</ele>
        <time>2020-03-12T10:25:08Z</time>
      </trkpt>
      <trkpt lat="45.04003" lon="5.87534">
        <ele>1928.54</ele>
        <time>2020-03-12T10:25:09Z</time>
      </trkpt>
      <trkpt lat="45.04003" lon="5.87535">
        <ele>1939.6</ele>
        <time>2020-03-12T10:25:10Z</time>
      </trkpt>
      <trkpt lat="45.04003" lon="5.87535">
        <ele>1933.83</ele>
        <time>2020-03-12T10:25:11Z</time>
      </trkpt>
      <trkpt lat="45.04003" lon="5.87535">
        <ele>1924.7</ele>
        <time>2020-03-12T10:25:12Z</time>
      </trkpt>
      <trkpt lat="45.04003" lon="5.87535">
        <ele>1941.04</ele>
        <time>2020-03-12T10:25:13Z</time>
      </trkpt>
      <trkpt lat="45.04003" lon="5.87535">
        <ele>1935.75</ele>
        <time>2020-03-12T10:25:14Z</time>
      </trkpt>
      <trkpt lat="45.04003" lon="5.87534">
        <ele>1933.35</ele>
        <time>2020-03-12T10:25:16Z</time>
      </trkpt>
      <trkpt lat="45.04003" lon="5.87534">
        <ele>1933.35</ele>
        <time>2020-03-12T10:25:42Z</time>
      </trkpt>
      <trkpt lat="45.04003" lon="5.87535">
        <ele>1933.35</ele>
        <time>2020-03-12T10:25:57Z</time>
      </trkpt>
      <trkpt lat="45.04003" lon="5.87534">
        <ele>1932.87</ele>
        <time>2020-03-12T10:26:17Z</time>
      </trkpt>
      <trkpt lat="45.04003" lon="5.87534">
        <ele>1933.83</ele>
        <time>2020-03-12T10:26:37Z</time>
      </trkpt>
      <trkpt lat="45.04002" lon="5.87533">
        <ele>1933.83</ele>
        <time>2020-03-12T10:27:05Z</time>
      </trkpt>
      <trkpt lat="45.04001" lon="5.87534">
        <ele>1934.31</ele>
        <time>2020-03-12T10:27:30Z</time>
      </trkpt>
      <trkpt lat="45.03994" lon="5.87538">
        <ele>1936.23</ele>
        <time>2020-03-12T10:27:42Z</time>
      </trkpt>
      <trkpt lat="45.03989" lon="5.8754">
        <ele>1938.16</ele>
        <time>2020-03-12T10:27:53Z</time>
      </trkpt>
      <trkpt lat="45.03983" lon="5.8754">
        <ele>1942</ele>
        <time>2020-03-12T10:28:05Z</time>
      </trkpt>
      <trkpt lat="45.03981" lon="5.87541">
        <ele>1943.44</ele>
        <time>2020-03-12T10:28:15Z</time>
      </trkpt>
      <trkpt lat="45.03977" lon="5.87541">
        <ele>1945.85</ele>
        <time>2020-03-12T10:28:29Z</time>
      </trkpt>
      <trkpt lat="45.0397" lon="5.87538">
        <ele>1947.77</ele>
        <time>2020-03-12T10:28:42Z</time>
      </trkpt>
      <trkpt lat="45.03964" lon="5.87538">
        <ele>1950.65</ele>
        <time>2020-03-12T10:28:55Z</time>
      </trkpt>
      <trkpt lat="45.03961" lon="5.87539">
        <ele>1952.57</ele>
        <time>2020-03-12T10:29:06Z</time>
      </trkpt>
      <trkpt lat="45.03957" lon="5.8754">
        <ele>1954.5</ele>
        <time>2020-03-12T10:29:17Z</time>
      </trkpt>
      <trkpt lat="45.0395" lon="5.87538">
        <ele>1954.98</ele>
        <time>2020-03-12T10:29:29Z</time>
      </trkpt>
      <trkpt lat="45.03945" lon="5.87538">
        <ele>1956.9</ele>
        <time>2020-03-12T10:29:42Z</time>
      </trkpt>
      <trkpt lat="45.03943" lon="5.87538">
        <ele>1959.3</ele>
        <time>2020-03-12T10:29:53Z</time>
      </trkpt>
      <trkpt lat="45.03937" lon="5.87537">
        <ele>1961.23</ele>
        <time>2020-03-12T10:30:06Z</time>
      </trkpt>
      <trkpt lat="45.03932" lon="5.87537">
        <ele>1963.63</ele>
        <time>2020-03-12T10:30:17Z</time>
      </trkpt>
      <trkpt lat="45.03926" lon="5.87537">
        <ele>1965.07</ele>
        <time>2020-03-12T10:30:28Z</time>
      </trkpt>
      <trkpt lat="45.03922" lon="5.87537">
        <ele>1966.51</ele>
        <time>2020-03-12T10:30:39Z</time>
      </trkpt>
      <trkpt lat="45.03915" lon="5.87535">
        <ele>1968.92</ele>
        <time>2020-03-12T10:30:53Z</time>
      </trkpt>
      <trkpt lat="45.03908" lon="5.87533">
        <ele>1970.84</ele>
        <time>2020-03-12T10:31:05Z</time>
      </trkpt>
      <trkpt lat="45.03901" lon="5.87529">
        <ele>1971.32</ele>
        <time>2020-03-12T10:31:18Z</time>
      </trkpt>
      <trkpt lat="45.03895" lon="5.87526">
        <ele>1973.24</ele>
        <time>2020-03-12T10:31:29Z</time>
      </trkpt>
      <trkpt lat="45.03892" lon="5.87526">
        <ele>1974.2</ele>
        <time>2020-03-12T10:31:34Z</time>
      </trkpt>
      <trkpt lat="45.03884" lon="5.87526">
        <ele>1975.17</ele>
        <time>2020-03-12T10:31:45Z</time>
      </trkpt>
      <trkpt lat="45.03879" lon="5.87527">
        <ele>1976.13</ele>
        <time>2020-03-12T10:31:53Z</time>
      </trkpt>
      <trkpt lat="45.03872" lon="5.87528">
        <ele>1979.01</ele>
        <time>2020-03-12T10:32:02Z</time>
      </trkpt>
      <trkpt lat="45.03865" lon="5.87531">
        <ele>1979.49</ele>
        <time>2020-03-12T10:32:14Z</time>
      </trkpt>
      <trkpt lat="45.03861" lon="5.87535">
        <ele>1980.93</ele>
        <time>2020-03-12T10:32:25Z</time>
      </trkpt>
      <trkpt lat="45.0386" lon="5.87542">
        <ele>1983.34</ele>
        <time>2020-03-12T10:32:36Z</time>
      </trkpt>
      <trkpt lat="45.03855" lon="5.87548">
        <ele>1984.3</ele>
        <time>2020-03-12T10:32:46Z</time>
      </trkpt>
      <trkpt lat="45.03852" lon="5.87554">
        <ele>1986.7</ele>
        <time>2020-03-12T10:32:59Z</time>
      </trkpt>
      <trkpt lat="45.03851" lon="5.87561">
        <ele>1988.14</ele>
        <time>2020-03-12T10:33:11Z</time>
      </trkpt>
      <trkpt lat="45.03854" lon="5.87567">
        <ele>1990.07</ele>
        <time>2020-03-12T10:33:22Z</time>
      </trkpt>
      <trkpt lat="45.03857" lon="5.87572">
        <ele>1992.47</ele>
        <time>2020-03-12T10:33:34Z</time>
      </trkpt>
      <trkpt lat="45.0386" lon="5.87581">
        <ele>1994.39</ele>
        <time>2020-03-12T10:33:46Z</time>
      </trkpt>
      <trkpt lat="45.03858" lon="5.87588">
        <ele>1995.83</ele>
        <time>2020-03-12T10:33:57Z</time>
      </trkpt>
      <trkpt lat="45.03856" lon="5.87594">
        <ele>1997.76</ele>
        <time>2020-03-12T10:34:08Z</time>
      </trkpt>
      <trkpt lat="45.03854" lon="5.87601">
        <ele>2000.16</ele>
        <time>2020-03-12T10:34:19Z</time>
      </trkpt>
      <trkpt lat="45.03853" lon="5.87609">
        <ele>2002.08</ele>
        <time>2020-03-12T10:34:32Z</time>
      </trkpt>
      <trkpt lat="45.03853" lon="5.87613">
        <ele>2003.04</ele>
        <time>2020-03-12T10:34:44Z</time>
      </trkpt>
      <trkpt lat="45.03853" lon="5.8762">
        <ele>2005.45</ele>
        <time>2020-03-12T10:34:55Z</time>
      </trkpt>
      <trkpt lat="45.03853" lon="5.87623">
        <ele>2006.41</ele>
        <time>2020-03-12T10:35:07Z</time>
      </trkpt>
      <trkpt lat="45.03851" lon="5.87624">
        <ele>2006.89</ele>
        <time>2020-03-12T10:35:35Z</time>
      </trkpt>
      <trkpt lat="45.03851" lon="5.87624">
        <ele>2011.7</ele>
        <time>2020-03-12T10:35:52Z</time>
      </trkpt>
      <trkpt lat="45.03851" lon="5.87624">
        <ele>2008.33</ele>
        <time>2020-03-12T10:35:53Z</time>
      </trkpt>
      <trkpt lat="45.03851" lon="5.87624">
        <ele>2006.89</ele>
        <time>2020-03-12T10:35:55Z</time>
      </trkpt>
      <trkpt lat="45.03851" lon="5.87624">
        <ele>2002.08</ele>
        <time>2020-03-12T10:35:56Z</time>
      </trkpt>
      <trkpt lat="45.03851" lon="5.87624">
        <ele>2010.25</ele>
        <time>2020-03-12T10:35:57Z</time>
      </trkpt>
      <trkpt lat="45.03851" lon="5.87624">
        <ele>2019.87</ele>
        <time>2020-03-12T10:35:58Z</time>
      </trkpt>
      <trkpt lat="45.03851" lon="5.87624">
        <ele>2009.29</ele>
        <time>2020-03-12T10:35:59Z</time>
      </trkpt>
      <trkpt lat="45.03851" lon="5.87624">
        <ele>2006.89</ele>
        <time>2020-03-12T10:36:20Z</time>
      </trkpt>
      <trkpt lat="45.03851" lon="5.87624">
        <ele>2006.89</ele>
        <time>2020-03-12T10:36:45Z</time>
      </trkpt>
      <trkpt lat="45.03851" lon="5.87624">
        <ele>2006.89</ele>
        <time>2020-03-12T10:37:09Z</time>
      </trkpt>
      <trkpt lat="45.03851" lon="5.87625">
        <ele>2007.37</ele>
        <time>2020-03-12T10:37:37Z</time>
      </trkpt>
      <trkpt lat="45.03851" lon="5.87629">
        <ele>2008.33</ele>
        <time>2020-03-12T10:37:59Z</time>
      </trkpt>
      <trkpt lat="45.03847" lon="5.87637">
        <ele>2010.25</ele>
        <time>2020-03-12T10:38:10Z</time>
      </trkpt>
      <trkpt lat="45.03845" lon="5.87641">
        <ele>2011.22</ele>
        <time>2020-03-12T10:38:18Z</time>
      </trkpt>
      <trkpt lat="45.03839" lon="5.87649">
        <ele>2012.66</ele>
        <time>2020-03-12T10:38:30Z</time>
      </trkpt>
      <trkpt lat="45.03834" lon="5.87655">
        <ele>2014.58</ele>
        <time>2020-03-12T10:38:42Z</time>
      </trkpt>
      <trkpt lat="45.03832" lon="5.87662">
        <ele>2016.02</ele>
        <time>2020-03-12T10:38:52Z</time>
      </trkpt>
      <trkpt lat="45.03827" lon="5.87667">
        <ele>2018.91</ele>
        <time>2020-03-12T10:39:05Z</time>
      </trkpt>
      <trkpt lat="45.03824" lon="5.87673">
        <ele>2020.35</ele>
        <time>2020-03-12T10:39:17Z</time>
      </trkpt>
      <trkpt lat="45.03822" lon="5.87678">
        <ele>2021.79</ele>
        <time>2020-03-12T10:39:28Z</time>
      </trkpt>
      <trkpt lat="45.0382" lon="5.87682">
        <ele>2022.27</ele>
        <time>2020-03-12T10:39:39Z</time>
      </trkpt>
      <trkpt lat="45.03818" lon="5.87685">
        <ele>2023.71</ele>
        <time>2020-03-12T10:39:46Z</time>
      </trkpt>
      <trkpt lat="45.03821" lon="5.87689">
        <ele>2026.6</ele>
        <time>2020-03-12T10:39:58Z</time>
      </trkpt>
      <trkpt lat="45.03826" lon="5.87696">
        <ele>2029.48</ele>
        <time>2020-03-12T10:40:11Z</time>
      </trkpt>
      <trkpt lat="45.03825" lon="5.87701">
        <ele>2031.4</ele>
        <time>2020-03-12T10:40:24Z</time>
      </trkpt>
      <trkpt lat="45.03825" lon="5.87706">
        <ele>2033.81</ele>
        <time>2020-03-12T10:40:35Z</time>
      </trkpt>
      <trkpt lat="45.03825" lon="5.87713">
        <ele>2035.73</ele>
        <time>2020-03-12T10:40:47Z</time>
      </trkpt>
      <trkpt lat="45.03823" lon="5.87721">
        <ele>2038.13</ele>
        <time>2020-03-12T10:40:58Z</time>
      </trkpt>
      <trkpt lat="45.03822" lon="5.87727">
        <ele>2039.57</ele>
        <time>2020-03-12T10:41:09Z</time>
      </trkpt>
      <trkpt lat="45.0382" lon="5.87735">
        <ele>2042.46</ele>
        <time>2020-03-12T10:41:22Z</time>
      </trkpt>
      <trkpt lat="45.03818" lon="5.87741">
        <ele>2043.9</ele>
        <time>2020-03-12T10:41:33Z</time>
      </trkpt>
      <trkpt lat="45.03814" lon="5.87746">
        <ele>2044.38</ele>
        <time>2020-03-12T10:41:44Z</time>
      </trkpt>
      <trkpt lat="45.03815" lon="5.8775">
        <ele>2048.23</ele>
        <time>2020-03-12T10:41:53Z</time>
      </trkpt>
      <trkpt lat="45.03817" lon="5.87755">
        <ele>2051.11</ele>
        <time>2020-03-12T10:42:04Z</time>
      </trkpt>
      <trkpt lat="45.03816" lon="5.8776">
        <ele>2051.11</ele>
        <time>2020-03-12T10:42:15Z</time>
      </trkpt>
      <trkpt lat="45.03815" lon="5.87767">
        <ele>2053.51</ele>
        <time>2020-03-12T10:42:27Z</time>
      </trkpt>
      <trkpt lat="45.03816" lon="5.87773">
        <ele>2054.96</ele>
        <time>2020-03-12T10:42:39Z</time>
      </trkpt>
      <trkpt lat="45.03815" lon="5.87779">
        <ele>2057.84</ele>
        <time>2020-03-12T10:42:50Z</time>
      </trkpt>
      <trkpt lat="45.03811" lon="5.87786">
        <ele>2059.76</ele>
        <time>2020-03-12T10:43:03Z</time>
      </trkpt>
      <trkpt lat="45.03809" lon="5.87792">
        <ele>2061.68</ele>
        <time>2020-03-12T10:43:15Z</time>
      </trkpt>
      <trkpt lat="45.03807" lon="5.87799">
        <ele>2064.09</ele>
        <time>2020-03-12T10:43:25Z</time>
      </trkpt>
      <trkpt lat="45.03804" lon="5.87805">
        <ele>2066.01</ele>
        <time>2020-03-12T10:43:36Z</time>
      </trkpt>
      <trkpt lat="45.03801" lon="5.87812">
        <ele>2067.45</ele>
        <time>2020-03-12T10:43:47Z</time>
      </trkpt>
      <trkpt lat="45.03799" lon="5.8782">
        <ele>2069.86</ele>
        <time>2020-03-12T10:44:00Z</time>
      </trkpt>
      <trkpt lat="45.03796" lon="5.87826">
        <ele>2071.3</ele>
        <time>2020-03-12T10:44:11Z</time>
      </trkpt>
      <trkpt lat="45.03795" lon="5.87834">
        <ele>2073.7</ele>
        <time>2020-03-12T10:44:22Z</time>
      </trkpt>
      <trkpt lat="45.03793" lon="5.87841">
        <ele>2075.14</ele>
        <time>2020-03-12T10:44:33Z</time>
      </trkpt>
      <trkpt lat="45.0379" lon="5.8785">
        <ele>2076.59</ele>
        <time>2020-03-12T10:44:45Z</time>
      </trkpt>
      <trkpt lat="45.03788" lon="5.87859">
        <ele>2078.51</ele>
        <time>2020-03-12T10:44:57Z</time>
      </trkpt>
      <trkpt lat="45.03786" lon="5.87867">
        <ele>2080.43</ele>
        <time>2020-03-12T10:45:09Z</time>
      </trkpt>
      <trkpt lat="45.03785" lon="5.87875">
        <ele>2081.87</ele>
        <time>2020-03-12T10:45:19Z</time>
      </trkpt>
      <trkpt lat="45.03784" lon="5.87886">
        <ele>2084.28</ele>
        <time>2020-03-12T10:45:32Z</time>
      </trkpt>
      <trkpt lat="45.03786" lon="5.87896">
        <ele>2086.2</ele>
        <time>2020-03-12T10:45:43Z</time>
      </trkpt>
      <trkpt lat="45.03786" lon="5.87905">
        <ele>2088.12</ele>
        <time>2020-03-12T10:45:54Z</time>
      </trkpt>
      <trkpt lat="45.03786" lon="5.8791">
        <ele>2088.6</ele>
        <time>2020-03-12T10:46:00Z</time>
      </trkpt>
      <trkpt lat="45.03787" lon="5.8792">
        <ele>2091</ele>
        <time>2020-03-12T10:46:13Z</time>
      </trkpt>
      <trkpt lat="45.03787" lon="5.87929">
        <ele>2091.97</ele>
        <time>2020-03-12T10:46:24Z</time>
      </trkpt>
      <trkpt lat="45.03786" lon="5.8794">
        <ele>2094.37</ele>
        <time>2020-03-12T10:46:36Z</time>
      </trkpt>
      <trkpt lat="45.03787" lon="5.87948">
        <ele>2096.29</ele>
        <time>2020-03-12T10:46:47Z</time>
      </trkpt>
      <trkpt lat="45.03788" lon="5.87958">
        <ele>2097.25</ele>
        <time>2020-03-12T10:46:59Z</time>
      </trkpt>
      <trkpt lat="45.03788" lon="5.87967">
        <ele>2099.66</ele>
        <time>2020-03-12T10:47:11Z</time>
      </trkpt>
      <trkpt lat="45.03789" lon="5.87978">
        <ele>2101.1</ele>
        <time>2020-03-12T10:47:23Z</time>
      </trkpt>
      <trkpt lat="45.03788" lon="5.87988">
        <ele>2102.54</ele>
        <time>2020-03-12T10:47:34Z</time>
      </trkpt>
      <trkpt lat="45.03789" lon="5.87995">
        <ele>2104.46</ele>
        <time>2020-03-12T10:47:45Z</time>
      </trkpt>
      <trkpt lat="45.0379" lon="5.88">
        <ele>2104.94</ele>
        <time>2020-03-12T10:47:59Z</time>
      </trkpt>
      <trkpt lat="45.03789" lon="5.88008">
        <ele>2107.35</ele>
        <time>2020-03-12T10:48:11Z</time>
      </trkpt>
      <trkpt lat="45.0379" lon="5.88015">
        <ele>2108.79</ele>
        <time>2020-03-12T10:48:20Z</time>
      </trkpt>
      <trkpt lat="45.0379" lon="5.88024">
        <ele>2110.71</ele>
        <time>2020-03-12T10:48:32Z</time>
      </trkpt>
      <trkpt lat="45.03791" lon="5.88031">
        <ele>2111.67</ele>
        <time>2020-03-12T10:48:43Z</time>
      </trkpt>
      <trkpt lat="45.03791" lon="5.88041">
        <ele>2113.6</ele>
        <time>2020-03-12T10:48:55Z</time>
      </trkpt>
      <trkpt lat="45.03792" lon="5.88049">
        <ele>2115.52</ele>
        <time>2020-03-12T10:49:06Z</time>
      </trkpt>
      <trkpt lat="45.03792" lon="5.88058">
        <ele>2116.96</ele>
        <time>2020-03-12T10:49:18Z</time>
      </trkpt>
      <trkpt lat="45.03792" lon="5.88064">
        <ele>2117.92</ele>
        <time>2020-03-12T10:49:29Z</time>
      </trkpt>
      <trkpt lat="45.03793" lon="5.88066">
        <ele>2118.88</ele>
        <time>2020-03-12T10:49:44Z</time>
      </trkpt>
      <trkpt lat="45.03793" lon="5.88073">
        <ele>2120.32</ele>
        <time>2020-03-12T10:49:55Z</time>
      </trkpt>
      <trkpt lat="45.03793" lon="5.88082">
        <ele>2121.29</ele>
        <time>2020-03-12T10:50:06Z</time>
      </trkpt>
      <trkpt lat="45.03793" lon="5.88089">
        <ele>2123.21</ele>
        <time>2020-03-12T10:50:18Z</time>
      </trkpt>
      <trkpt lat="45.03794" lon="5.88097">
        <ele>2125.13</ele>
        <time>2020-03-12T10:50:28Z</time>
      </trkpt>
      <trkpt lat="45.03796" lon="5.88106">
        <ele>2126.57</ele>
        <time>2020-03-12T10:50:40Z</time>
      </trkpt>
      <trkpt lat="45.03797" lon="5.88114">
        <ele>2128.98</ele>
        <time>2020-03-12T10:50:50Z</time>
      </trkpt>
      <trkpt lat="45.03798" lon="5.88121">
        <ele>2129.94</ele>
        <time>2020-03-12T10:51:00Z</time>
      </trkpt>
      <trkpt lat="45.03799" lon="5.8813">
        <ele>2132.34</ele>
        <time>2020-03-12T10:51:12Z</time>
      </trkpt>
      <trkpt lat="45.038" lon="5.88138">
        <ele>2133.78</ele>
        <time>2020-03-12T10:51:22Z</time>
      </trkpt>
      <trkpt lat="45.03799" lon="5.88145">
        <ele>2134.26</ele>
        <time>2020-03-12T10:51:34Z</time>
      </trkpt>
      <trkpt lat="45.038" lon="5.88153">
        <ele>2135.71</ele>
        <time>2020-03-12T10:51:46Z</time>
      </trkpt>
      <trkpt lat="45.038" lon="5.88158">
        <ele>2136.67</ele>
        <time>2020-03-12T10:52:00Z</time>
      </trkpt>
      <trkpt lat="45.03801" lon="5.88166">
        <ele>2137.63</ele>
        <time>2020-03-12T10:52:12Z</time>
      </trkpt>
      <trkpt lat="45.03801" lon="5.88171">
        <ele>2137.63</ele>
        <time>2020-03-12T10:52:24Z</time>
      </trkpt>
      <trkpt lat="45.03799" lon="5.88177">
        <ele>2139.07</ele>
        <time>2020-03-12T10:52:37Z</time>
      </trkpt>
      <trkpt lat="45.038" lon="5.88177">
        <ele>2138.59</ele>
        <time>2020-03-12T10:52:56Z</time>
      </trkpt>
      <trkpt lat="45.038" lon="5.88178">
        <ele>2138.59</ele>
        <time>2020-03-12T10:53:23Z</time>
      </trkpt>
      <trkpt lat="45.03799" lon="5.88185">
        <ele>2139.07</ele>
        <time>2020-03-12T10:53:38Z</time>
      </trkpt>
      <trkpt lat="45.03798" lon="5.88194">
        <ele>2140.03</ele>
        <time>2020-03-12T10:53:49Z</time>
      </trkpt>
      <trkpt lat="45.03797" lon="5.88198">
        <ele>2140.03</ele>
        <time>2020-03-12T10:54:01Z</time>
      </trkpt>
      <trkpt lat="45.03797" lon="5.88199">
        <ele>2140.51</ele>
        <time>2020-03-12T10:54:18Z</time>
      </trkpt>
      <trkpt lat="45.03797" lon="5.88202">
        <ele>2140.51</ele>
        <time>2020-03-12T10:54:39Z</time>
      </trkpt>
      <trkpt lat="45.03797" lon="5.88205">
        <ele>2140.99</ele>
        <time>2020-03-12T10:54:55Z</time>
      </trkpt>
      <trkpt lat="45.03797" lon="5.88207">
        <ele>2140.51</ele>
        <time>2020-03-12T10:55:12Z</time>
      </trkpt>
      <trkpt lat="45.03797" lon="5.88215">
        <ele>2141.95</ele>
        <time>2020-03-12T10:55:23Z</time>
      </trkpt>
      <trkpt lat="45.03797" lon="5.88216">
        <ele>2141.95</ele>
        <time>2020-03-12T10:55:48Z</time>
      </trkpt>
      <trkpt lat="45.03797" lon="5.88216">
        <ele>2141.95</ele>
        <time>2020-03-12T10:56:11Z</time>
      </trkpt>
      <trkpt lat="45.03797" lon="5.88216">
        <ele>2141.95</ele>
        <time>2020-03-12T10:56:44Z</time>
      </trkpt>
      <trkpt lat="45.03797" lon="5.88216">
        <ele>2141.95</ele>
        <time>2020-03-12T10:57:17Z</time>
      </trkpt>
      <trkpt lat="45.03796" lon="5.88216">
        <ele>2141.47</ele>
        <time>2020-03-12T10:57:35Z</time>
      </trkpt>
      <trkpt lat="45.03796" lon="5.88216">
        <ele>2141.95</ele>
        <time>2020-03-12T10:58:05Z</time>
      </trkpt>
      <trkpt lat="45.03796" lon="5.88217">
        <ele>2141.47</ele>
        <time>2020-03-12T10:58:21Z</time>
      </trkpt>
      <trkpt lat="45.03796" lon="5.88217">
        <ele>2141.95</ele>
        <time>2020-03-12T10:58:51Z</time>
      </trkpt>
      <trkpt lat="45.03796" lon="5.88213">
        <ele>2141.47</ele>
        <time>2020-03-12T10:58:57Z</time>
      </trkpt>
      <trkpt lat="45.03796" lon="5.8821">
        <ele>2141.47</ele>
        <time>2020-03-12T10:58:59Z</time>
      </trkpt>
      <trkpt lat="45.03797" lon="5.88192">
        <ele>2140.03</ele>
        <time>2020-03-12T10:59:12Z</time>
      </trkpt>
      <trkpt lat="45.03796" lon="5.88185">
        <ele>2139.55</ele>
        <time>2020-03-12T10:59:18Z</time>
      </trkpt>
      <trkpt lat="45.03797" lon="5.88178">
        <ele>2139.07</ele>
        <time>2020-03-12T10:59:23Z</time>
      </trkpt>
      <trkpt lat="45.03797" lon="5.88176">
        <ele>2138.59</ele>
        <time>2020-03-12T10:59:25Z</time>
      </trkpt>
      <trkpt lat="45.03799" lon="5.88157">
        <ele>2137.15</ele>
        <time>2020-03-12T10:59:38Z</time>
      </trkpt>
      <trkpt lat="45.03799" lon="5.88156">
        <ele>2137.15</ele>
        <time>2020-03-12T10:59:39Z</time>
      </trkpt>
      <trkpt lat="45.03799" lon="5.88149">
        <ele>2135.71</ele>
        <time>2020-03-12T10:59:52Z</time>
      </trkpt>
      <trkpt lat="45.03799" lon="5.88148">
        <ele>2136.19</ele>
        <time>2020-03-12T11:00:17Z</time>
      </trkpt>
      <trkpt lat="45.038" lon="5.88148">
        <ele>2136.19</ele>
        <time>2020-03-12T11:00:48Z</time>
      </trkpt>
      <trkpt lat="45.038" lon="5.88148">
        <ele>2135.71</ele>
        <time>2020-03-12T11:01:24Z</time>
      </trkpt>
      <trkpt lat="45.038" lon="5.88148">
        <ele>2136.19</ele>
        <time>2020-03-12T11:01:49Z</time>
      </trkpt>
      <trkpt lat="45.038" lon="5.88148">
        <ele>2136.19</ele>
        <time>2020-03-12T11:02:19Z</time>
      </trkpt>
      <trkpt lat="45.03801" lon="5.88153">
        <ele>2136.67</ele>
        <time>2020-03-12T11:02:46Z</time>
      </trkpt>
      <trkpt lat="45.038" lon="5.8816">
        <ele>2137.63</ele>
        <time>2020-03-12T11:02:56Z</time>
      </trkpt>
      <trkpt lat="45.03799" lon="5.88169">
        <ele>2138.59</ele>
        <time>2020-03-12T11:03:08Z</time>
      </trkpt>
      <trkpt lat="45.03799" lon="5.88174">
        <ele>2139.55</ele>
        <time>2020-03-12T11:03:22Z</time>
      </trkpt>
      <trkpt lat="45.03798" lon="5.88178">
        <ele>2139.55</ele>
        <time>2020-03-12T11:03:35Z</time>
      </trkpt>
      <trkpt lat="45.03799" lon="5.88182">
        <ele>2140.03</ele>
        <time>2020-03-12T11:03:56Z</time>
      </trkpt>
      <trkpt lat="45.03799" lon="5.88183">
        <ele>2140.51</ele>
        <time>2020-03-12T11:04:22Z</time>
      </trkpt>
      <trkpt lat="45.038" lon="5.88189">
        <ele>2140.99</ele>
        <time>2020-03-12T11:04:44Z</time>
      </trkpt>
      <trkpt lat="45.03799" lon="5.88201">
        <ele>2141.47</ele>
        <time>2020-03-12T11:04:57Z</time>
      </trkpt>
      <trkpt lat="45.03799" lon="5.88202">
        <ele>2141.47</ele>
        <time>2020-03-12T11:04:59Z</time>
      </trkpt>
      <trkpt lat="45.03797" lon="5.8821">
        <ele>2142.44</ele>
        <time>2020-03-12T11:05:13Z</time>
      </trkpt>
      <trkpt lat="45.03798" lon="5.88212">
        <ele>2142.92</ele>
        <time>2020-03-12T11:05:28Z</time>
      </trkpt>
      <trkpt lat="45.03798" lon="5.88213">
        <ele>2142.44</ele>
        <time>2020-03-12T11:05:43Z</time>
      </trkpt>
      <trkpt lat="45.03798" lon="5.88213">
        <ele>2142.44</ele>
        <time>2020-03-12T11:06:15Z</time>
      </trkpt>
      <trkpt lat="45.03802" lon="5.88217">
        <ele>2143.4</ele>
        <time>2020-03-12T11:06:30Z</time>
      </trkpt>
      <trkpt lat="45.03805" lon="5.88223">
        <ele>2144.84</ele>
        <time>2020-03-12T11:06:42Z</time>
      </trkpt>
      <trkpt lat="45.0381" lon="5.88229">
        <ele>2145.8</ele>
        <time>2020-03-12T11:06:52Z</time>
      </trkpt>
      <trkpt lat="45.03817" lon="5.88235">
        <ele>2147.72</ele>
        <time>2020-03-12T11:07:05Z</time>
      </trkpt>
      <trkpt lat="45.0382" lon="5.8824">
        <ele>2148.68</ele>
        <time>2020-03-12T11:07:16Z</time>
      </trkpt>
      <trkpt lat="45.03826" lon="5.88248">
        <ele>2150.13</ele>
        <time>2020-03-12T11:07:29Z</time>
      </trkpt>
      <trkpt lat="45.03833" lon="5.88255">
        <ele>2151.09</ele>
        <time>2020-03-12T11:07:40Z</time>
      </trkpt>
      <trkpt lat="45.03838" lon="5.88264">
        <ele>2153.01</ele>
        <time>2020-03-12T11:07:52Z</time>
      </trkpt>
      <trkpt lat="45.03844" lon="5.88272">
        <ele>2154.45</ele>
        <time>2020-03-12T11:08:04Z</time>
      </trkpt>
      <trkpt lat="45.03848" lon="5.88279">
        <ele>2155.41</ele>
        <time>2020-03-12T11:08:16Z</time>
      </trkpt>
      <trkpt lat="45.03852" lon="5.88289">
        <ele>2157.34</ele>
        <time>2020-03-12T11:08:28Z</time>
      </trkpt>
      <trkpt lat="45.03856" lon="5.88297">
        <ele>2158.78</ele>
        <time>2020-03-12T11:08:40Z</time>
      </trkpt>
      <trkpt lat="45.03859" lon="5.88308">
        <ele>2159.74</ele>
        <time>2020-03-12T11:08:52Z</time>
      </trkpt>
      <trkpt lat="45.03863" lon="5.88318">
        <ele>2161.18</ele>
        <time>2020-03-12T11:09:05Z</time>
      </trkpt>
      <trkpt lat="45.03867" lon="5.88328">
        <ele>2162.62</ele>
        <time>2020-03-12T11:09:16Z</time>
      </trkpt>
      <trkpt lat="45.03869" lon="5.88338">
        <ele>2164.06</ele>
        <time>2020-03-12T11:09:28Z</time>
      </trkpt>
      <trkpt lat="45.03872" lon="5.88348">
        <ele>2165.99</ele>
        <time>2020-03-12T11:09:41Z</time>
      </trkpt>
      <trkpt lat="45.03872" lon="5.8835">
        <ele>2166.95</ele>
        <time>2020-03-12T11:09:54Z</time>
      </trkpt>
      <trkpt lat="45.03873" lon="5.88352">
        <ele>2167.91</ele>
        <time>2020-03-12T11:10:15Z</time>
      </trkpt>
      <trkpt lat="45.03878" lon="5.88359">
        <ele>2168.87</ele>
        <time>2020-03-12T11:10:29Z</time>
      </trkpt>
      <trkpt lat="45.03881" lon="5.88362">
        <ele>2169.35</ele>
        <time>2020-03-12T11:10:33Z</time>
      </trkpt>
      <trkpt lat="45.03882" lon="5.88365">
        <ele>2169.83</ele>
        <time>2020-03-12T11:10:36Z</time>
      </trkpt>
      <trkpt lat="45.03888" lon="5.88371">
        <ele>2171.27</ele>
        <time>2020-03-12T11:10:48Z</time>
      </trkpt>
      <trkpt lat="45.03892" lon="5.88383">
        <ele>2172.24</ele>
        <time>2020-03-12T11:11:01Z</time>
      </trkpt>
      <trkpt lat="45.03892" lon="5.88386">
        <ele>2172.72</ele>
        <time>2020-03-12T11:11:14Z</time>
      </trkpt>
      <trkpt lat="45.03892" lon="5.88388">
        <ele>2172.72</ele>
        <time>2020-03-12T11:11:33Z</time>
      </trkpt>
      <trkpt lat="45.03889" lon="5.88397">
        <ele>2173.2</ele>
        <time>2020-03-12T11:11:48Z</time>
      </trkpt>
      <trkpt lat="45.03889" lon="5.88401">
        <ele>2173.68</ele>
        <time>2020-03-12T11:12:07Z</time>
      </trkpt>
      <trkpt lat="45.03887" lon="5.88407">
        <ele>2173.68</ele>
        <time>2020-03-12T11:12:22Z</time>
      </trkpt>
      <trkpt lat="45.03885" lon="5.8841">
        <ele>2173.68</ele>
        <time>2020-03-12T11:12:40Z</time>
      </trkpt>
      <trkpt lat="45.03885" lon="5.88414">
        <ele>2174.16</ele>
        <time>2020-03-12T11:12:56Z</time>
      </trkpt>
      <trkpt lat="45.03881" lon="5.88428">
        <ele>2173.68</ele>
        <time>2020-03-12T11:13:10Z</time>
      </trkpt>
      <trkpt lat="45.03878" lon="5.8844">
        <ele>2173.68</ele>
        <time>2020-03-12T11:13:21Z</time>
      </trkpt>
      <trkpt lat="45.03876" lon="5.88447">
        <ele>2173.68</ele>
        <time>2020-03-12T11:13:27Z</time>
      </trkpt>
      <trkpt lat="45.03872" lon="5.88458">
        <ele>2173.68</ele>
        <time>2020-03-12T11:13:40Z</time>
      </trkpt>
      <trkpt lat="45.03868" lon="5.88465">
        <ele>2173.2</ele>
        <time>2020-03-12T11:13:53Z</time>
      </trkpt>
      <trkpt lat="45.03865" lon="5.88467">
        <ele>2172.72</ele>
        <time>2020-03-12T11:14:07Z</time>
      </trkpt>
      <trkpt lat="45.03861" lon="5.8847">
        <ele>2171.27</ele>
        <time>2020-03-12T11:14:21Z</time>
      </trkpt>
      <trkpt lat="45.0386" lon="5.8847">
        <ele>2171.76</ele>
        <time>2020-03-12T11:14:39Z</time>
      </trkpt>
      <trkpt lat="45.0386" lon="5.8847">
        <ele>2171.76</ele>
        <time>2020-03-12T11:14:59Z</time>
      </trkpt>
      <trkpt lat="45.03859" lon="5.88471">
        <ele>2172.24</ele>
        <time>2020-03-12T11:15:15Z</time>
      </trkpt>
      <trkpt lat="45.03857" lon="5.88469">
        <ele>2171.27</ele>
        <time>2020-03-12T11:15:28Z</time>
      </trkpt>
      <trkpt lat="45.03858" lon="5.88468">
        <ele>2171.76</ele>
        <time>2020-03-12T11:15:51Z</time>
      </trkpt>
      <trkpt lat="45.03858" lon="5.88468">
        <ele>2171.76</ele>
        <time>2020-03-12T11:16:20Z</time>
      </trkpt>
      <trkpt lat="45.03858" lon="5.88468">
        <ele>2172.24</ele>
        <time>2020-03-12T11:16:39Z</time>
      </trkpt>
      <trkpt lat="45.03858" lon="5.88468">
        <ele>2175.6</ele>
        <time>2020-03-12T11:16:40Z</time>
      </trkpt>
      <trkpt lat="45.03858" lon="5.88468">
        <ele>2172.72</ele>
        <time>2020-03-12T11:16:41Z</time>
      </trkpt>
      <trkpt lat="45.03859" lon="5.88468">
        <ele>2172.24</ele>
        <time>2020-03-12T11:17:03Z</time>
      </trkpt>
      <trkpt lat="45.03859" lon="5.88468">
        <ele>2171.76</ele>
        <time>2020-03-12T11:17:33Z</time>
      </trkpt>
      <trkpt lat="45.03859" lon="5.88469">
        <ele>2172.72</ele>
        <time>2020-03-12T11:17:50Z</time>
      </trkpt>
      <trkpt lat="45.0386" lon="5.88469">
        <ele>2172.72</ele>
        <time>2020-03-12T11:18:14Z</time>
      </trkpt>
      <trkpt lat="45.0386" lon="5.88469">
        <ele>2172.24</ele>
        <time>2020-03-12T11:18:46Z</time>
      </trkpt>
      <trkpt lat="45.0386" lon="5.88469">
        <ele>2172.24</ele>
        <time>2020-03-12T11:19:15Z</time>
      </trkpt>
      <trkpt lat="45.03861" lon="5.88469">
        <ele>2172.24</ele>
        <time>2020-03-12T11:19:45Z</time>
      </trkpt>
      <trkpt lat="45.03861" lon="5.88469">
        <ele>2172.24</ele>
        <time>2020-03-12T11:20:13Z</time>
      </trkpt>
      <trkpt lat="45.0386" lon="5.8847">
        <ele>2177.04</ele>
        <time>2020-03-12T11:20:30Z</time>
      </trkpt>
      <trkpt lat="45.0386" lon="5.8847">
        <ele>2171.76</ele>
        <time>2020-03-12T11:20:31Z</time>
      </trkpt>
      <trkpt lat="45.0386" lon="5.8847">
        <ele>2175.6</ele>
        <time>2020-03-12T11:20:47Z</time>
      </trkpt>
      <trkpt lat="45.03859" lon="5.8847">
        <ele>2166.95</ele>
        <time>2020-03-12T11:20:54Z</time>
      </trkpt>
      <trkpt lat="45.03859" lon="5.8847">
        <ele>2178.48</ele>
        <time>2020-03-12T11:20:55Z</time>
      </trkpt>
      <trkpt lat="45.03859" lon="5.8847">
        <ele>2173.68</ele>
        <time>2020-03-12T11:20:56Z</time>
      </trkpt>
      <trkpt lat="45.03859" lon="5.8847">
        <ele>2170.31</ele>
        <time>2020-03-12T11:21:13Z</time>
      </trkpt>
      <trkpt lat="45.03859" lon="5.8847">
        <ele>2173.68</ele>
        <time>2020-03-12T11:21:14Z</time>
      </trkpt>
      <trkpt lat="45.03859" lon="5.8847">
        <ele>2178.48</ele>
        <time>2020-03-12T11:21:15Z</time>
      </trkpt>
      <trkpt lat="45.03859" lon="5.8847">
        <ele>2176.08</ele>
        <time>2020-03-12T11:21:16Z</time>
      </trkpt>
      <trkpt lat="45.03859" lon="5.8847">
        <ele>2173.2</ele>
        <time>2020-03-12T11:21:18Z</time>
      </trkpt>
      <trkpt lat="45.0386" lon="5.8847">
        <ele>2164.55</ele>
        <time>2020-03-12T11:21:22Z</time>
      </trkpt>
      <trkpt lat="45.03859" lon="5.8847">
        <ele>2179.45</ele>
        <time>2020-03-12T11:21:23Z</time>
      </trkpt>
      <trkpt lat="45.03859" lon="5.8847">
        <ele>2163.58</ele>
        <time>2020-03-12T11:21:24Z</time>
      </trkpt>
      <trkpt lat="45.03859" lon="5.8847">
        <ele>2180.41</ele>
        <time>2020-03-12T11:21:25Z</time>
      </trkpt>
      <trkpt lat="45.03859" lon="5.8847">
        <ele>2174.16</ele>
        <time>2020-03-12T11:21:26Z</time>
      </trkpt>
      <trkpt lat="45.03859" lon="5.8847">
        <ele>2169.83</ele>
        <time>2020-03-12T11:21:27Z</time>
      </trkpt>
      <trkpt lat="45.03859" lon="5.8847">
        <ele>2175.6</ele>
        <time>2020-03-12T11:21:28Z</time>
      </trkpt>
      <trkpt lat="45.03859" lon="5.8847">
        <ele>2172.72</ele>
        <time>2020-03-12T11:21:52Z</time>
      </trkpt>
      <trkpt lat="45.03859" lon="5.8847">
        <ele>2172.72</ele>
        <time>2020-03-12T11:22:15Z</time>
      </trkpt>
      <trkpt lat="45.0386" lon="5.8847">
        <ele>2172.72</ele>
        <time>2020-03-12T11:22:45Z</time>
      </trkpt>
      <trkpt lat="45.0386" lon="5.8847">
        <ele>2172.24</ele>
        <time>2020-03-12T11:23:18Z</time>
      </trkpt>
      <trkpt lat="45.0386" lon="5.8847">
        <ele>2172.72</ele>
        <time>2020-03-12T11:23:44Z</time>
      </trkpt>
      <trkpt lat="45.03859" lon="5.8847">
        <ele>2173.2</ele>
        <time>2020-03-12T11:24:10Z</time>
      </trkpt>
      <trkpt lat="45.03859" lon="5.8847">
        <ele>2172.24</ele>
        <time>2020-03-12T11:24:32Z</time>
      </trkpt>
      <trkpt lat="45.03859" lon="5.8847">
        <ele>2173.68</ele>
        <time>2020-03-12T11:24:43Z</time>
      </trkpt>
      <trkpt lat="45.03859" lon="5.8847">
        <ele>2172.72</ele>
        <time>2020-03-12T11:24:45Z</time>
      </trkpt>
      <trkpt lat="45.03859" lon="5.8847">
        <ele>2171.76</ele>
        <time>2020-03-12T11:24:54Z</time>
      </trkpt>
      <trkpt lat="45.03859" lon="5.8847">
        <ele>2172.72</ele>
        <time>2020-03-12T11:25:15Z</time>
      </trkpt>
      <trkpt lat="45.03859" lon="5.8847">
        <ele>2165.51</ele>
        <time>2020-03-12T11:25:26Z</time>
      </trkpt>
      <trkpt lat="45.03859" lon="5.8847">
        <ele>2177.04</ele>
        <time>2020-03-12T11:25:27Z</time>
      </trkpt>
      <trkpt lat="45.03859" lon="5.8847">
        <ele>2173.68</ele>
        <time>2020-03-12T11:25:28Z</time>
      </trkpt>
      <trkpt lat="45.03859" lon="5.8847">
        <ele>2172.24</ele>
        <time>2020-03-12T11:25:32Z</time>
      </trkpt>
      <trkpt lat="45.03859" lon="5.8847">
        <ele>2174.64</ele>
        <time>2020-03-12T11:25:50Z</time>
      </trkpt>
      <trkpt lat="45.03859" lon="5.8847">
        <ele>2172.72</ele>
        <time>2020-03-12T11:25:51Z</time>
      </trkpt>
      <trkpt lat="45.03859" lon="5.8847">
        <ele>2171.76</ele>
        <time>2020-03-12T11:25:53Z</time>
      </trkpt>
      <trkpt lat="45.03859" lon="5.8847">
        <ele>2172.24</ele>
        <time>2020-03-12T11:26:22Z</time>
      </trkpt>
      <trkpt lat="45.03859" lon="5.88469">
        <ele>2172.24</ele>
        <time>2020-03-12T11:26:58Z</time>
      </trkpt>
      <trkpt lat="45.03859" lon="5.8847">
        <ele>2172.24</ele>
        <time>2020-03-12T11:27:32Z</time>
      </trkpt>
      <trkpt lat="45.03859" lon="5.88469">
        <ele>2172.72</ele>
        <time>2020-03-12T11:28:05Z</time>
      </trkpt>
      <trkpt lat="45.03859" lon="5.88469">
        <ele>2173.2</ele>
        <time>2020-03-12T11:28:40Z</time>
      </trkpt>
      <trkpt lat="45.03859" lon="5.8847">
        <ele>2173.68</ele>
        <time>2020-03-12T11:29:13Z</time>
      </trkpt>
      <trkpt lat="45.03859" lon="5.8847">
        <ele>2173.68</ele>
        <time>2020-03-12T11:29:40Z</time>
      </trkpt>
      <trkpt lat="45.03859" lon="5.8847">
        <ele>2173.68</ele>
        <time>2020-03-12T11:30:16Z</time>
      </trkpt>
      <trkpt lat="45.03859" lon="5.8847">
        <ele>2173.68</ele>
        <time>2020-03-12T11:30:47Z</time>
      </trkpt>
      <trkpt lat="45.03859" lon="5.8847">
        <ele>2173.68</ele>
        <time>2020-03-12T11:31:20Z</time>
      </trkpt>
      <trkpt lat="45.03859" lon="5.8847">
        <ele>2173.68</ele>
        <time>2020-03-12T11:31:56Z</time>
      </trkpt>
      <trkpt lat="45.03859" lon="5.8847">
        <ele>2173.68</ele>
        <time>2020-03-12T11:32:27Z</time>
      </trkpt>
      <trkpt lat="45.03859" lon="5.8847">
        <ele>2173.68</ele>
        <time>2020-03-12T11:33:04Z</time>
      </trkpt>
      <trkpt lat="45.03859" lon="5.8847">
        <ele>2173.2</ele>
        <time>2020-03-12T11:33:40Z</time>
      </trkpt>
      <trkpt lat="45.03858" lon="5.8847">
        <ele>2173.68</ele>
        <time>2020-03-12T11:34:13Z</time>
      </trkpt>
      <trkpt lat="45.03858" lon="5.88469">
        <ele>2173.68</ele>
        <time>2020-03-12T11:34:50Z</time>
      </trkpt>
      <trkpt lat="45.03858" lon="5.8847">
        <ele>2173.2</ele>
        <time>2020-03-12T11:35:26Z</time>
      </trkpt>
      <trkpt lat="45.03858" lon="5.8847">
        <ele>2173.2</ele>
        <time>2020-03-12T11:35:54Z</time>
      </trkpt>
      <trkpt lat="45.03859" lon="5.8847">
        <ele>2172.72</ele>
        <time>2020-03-12T11:36:25Z</time>
      </trkpt>
      <trkpt lat="45.03859" lon="5.8847">
        <ele>2172.72</ele>
        <time>2020-03-12T11:36:49Z</time>
      </trkpt>
      <trkpt lat="45.03859" lon="5.8847">
        <ele>2172.72</ele>
        <time>2020-03-12T11:37:22Z</time>
      </trkpt>
      <trkpt lat="45.03859" lon="5.8847">
        <ele>2172.72</ele>
        <time>2020-03-12T11:37:56Z</time>
      </trkpt>
      <trkpt lat="45.03859" lon="5.88469">
        <ele>2173.2</ele>
        <time>2020-03-12T11:38:29Z</time>
      </trkpt>
      <trkpt lat="45.03859" lon="5.88469">
        <ele>2173.2</ele>
        <time>2020-03-12T11:39:00Z</time>
      </trkpt>
      <trkpt lat="45.03859" lon="5.8847">
        <ele>2173.2</ele>
        <time>2020-03-12T11:39:27Z</time>
      </trkpt>
      <trkpt lat="45.03859" lon="5.8847">
        <ele>2172.72</ele>
        <time>2020-03-12T11:40:01Z</time>
      </trkpt>
      <trkpt lat="45.03859" lon="5.8847">
        <ele>2173.68</ele>
        <time>2020-03-12T11:40:28Z</time>
      </trkpt>
      <trkpt lat="45.03859" lon="5.8847">
        <ele>2175.12</ele>
        <time>2020-03-12T11:40:59Z</time>
      </trkpt>
      <trkpt lat="45.0386" lon="5.88467">
        <ele>2174.64</ele>
        <time>2020-03-12T11:41:11Z</time>
      </trkpt>
      <trkpt lat="45.0386" lon="5.88466">
        <ele>2174.64</ele>
        <time>2020-03-12T11:41:40Z</time>
      </trkpt>
      <trkpt lat="45.03861" lon="5.88466">
        <ele>2174.64</ele>
        <time>2020-03-12T11:42:00Z</time>
      </trkpt>
      <trkpt lat="45.03861" lon="5.88466">
        <ele>2175.12</ele>
        <time>2020-03-12T11:42:27Z</time>
      </trkpt>
      <trkpt lat="45.03861" lon="5.88466">
        <ele>2174.64</ele>
        <time>2020-03-12T11:42:47Z</time>
      </trkpt>
      <trkpt lat="45.03861" lon="5.88466">
        <ele>2175.12</ele>
        <time>2020-03-12T11:43:14Z</time>
      </trkpt>
      <trkpt lat="45.03859" lon="5.88469">
        <ele>2173.68</ele>
        <time>2020-03-12T11:43:39Z</time>
      </trkpt>
      <trkpt lat="45.03859" lon="5.8847">
        <ele>2174.16</ele>
        <time>2020-03-12T11:44:01Z</time>
      </trkpt>
      <trkpt lat="45.03859" lon="5.8847">
        <ele>2175.12</ele>
        <time>2020-03-12T11:44:18Z</time>
      </trkpt>
      <trkpt lat="45.03859" lon="5.8847">
        <ele>2174.16</ele>
        <time>2020-03-12T11:44:40Z</time>
      </trkpt>
      <trkpt lat="45.03859" lon="5.88471">
        <ele>2174.64</ele>
        <time>2020-03-12T11:45:11Z</time>
      </trkpt>
      <trkpt lat="45.03859" lon="5.88471">
        <ele>2174.64</ele>
        <time>2020-03-12T11:45:17Z</time>
      </trkpt>
      <trkpt lat="45.03859" lon="5.88471">
        <ele>2174.16</ele>
        <time>2020-03-12T11:45:37Z</time>
      </trkpt>
      <trkpt lat="45.03859" lon="5.8847">
        <ele>2174.16</ele>
        <time>2020-03-12T11:46:17Z</time>
      </trkpt>
      <trkpt lat="45.03859" lon="5.8847">
        <ele>2173.2</ele>
        <time>2020-03-12T11:46:52Z</time>
      </trkpt>
      <trkpt lat="45.03859" lon="5.8847">
        <ele>2174.64</ele>
        <time>2020-03-12T11:46:55Z</time>
      </trkpt>
      <trkpt lat="45.03859" lon="5.88471">
        <ele>2174.64</ele>
        <time>2020-03-12T11:47:15Z</time>
      </trkpt>
      <trkpt lat="45.03859" lon="5.8847">
        <ele>2174.64</ele>
        <time>2020-03-12T11:47:42Z</time>
      </trkpt>
      <trkpt lat="45.03859" lon="5.8847">
        <ele>2174.64</ele>
        <time>2020-03-12T11:47:50Z</time>
      </trkpt>
      <trkpt lat="45.03859" lon="5.8847">
        <ele>2174.16</ele>
        <time>2020-03-12T11:48:14Z</time>
      </trkpt>
      <trkpt lat="45.03859" lon="5.8847">
        <ele>2175.6</ele>
        <time>2020-03-12T11:48:21Z</time>
      </trkpt>
      <trkpt lat="45.03859" lon="5.88471">
        <ele>2175.12</ele>
        <time>2020-03-12T11:48:52Z</time>
      </trkpt>
      <trkpt lat="45.03859" lon="5.88471">
        <ele>2175.12</ele>
        <time>2020-03-12T11:49:16Z</time>
      </trkpt>
      <trkpt lat="45.03859" lon="5.88471">
        <ele>2176.08</ele>
        <time>2020-03-12T11:49:37Z</time>
      </trkpt>
      <trkpt lat="45.03859" lon="5.88471">
        <ele>2175.12</ele>
        <time>2020-03-12T11:49:39Z</time>
      </trkpt>
      <trkpt lat="45.03859" lon="5.8847">
        <ele>2176.08</ele>
        <time>2020-03-12T11:49:56Z</time>
      </trkpt>
      <trkpt lat="45.03859" lon="5.88471">
        <ele>2174.64</ele>
        <time>2020-03-12T11:50:25Z</time>
      </trkpt>
      <trkpt lat="45.03859" lon="5.88471">
        <ele>2176.08</ele>
        <time>2020-03-12T11:50:50Z</time>
      </trkpt>
      <trkpt lat="45.03859" lon="5.8847">
        <ele>2175.6</ele>
        <time>2020-03-12T11:51:08Z</time>
      </trkpt>
      <trkpt lat="45.03858" lon="5.8847">
        <ele>2174.64</ele>
        <time>2020-03-12T11:51:35Z</time>
      </trkpt>
      <trkpt lat="45.03855" lon="5.88471">
        <ele>2174.16</ele>
        <time>2020-03-12T11:51:54Z</time>
      </trkpt>
      <trkpt lat="45.03855" lon="5.88471">
        <ele>2173.68</ele>
        <time>2020-03-12T11:52:25Z</time>
      </trkpt>
      <trkpt lat="45.03856" lon="5.88471">
        <ele>2174.16</ele>
        <time>2020-03-12T11:52:39Z</time>
      </trkpt>
      <trkpt lat="45.03857" lon="5.88471">
        <ele>2174.16</ele>
        <time>2020-03-12T11:52:59Z</time>
      </trkpt>
      <trkpt lat="45.03857" lon="5.88471">
        <ele>2174.64</ele>
        <time>2020-03-12T11:53:31Z</time>
      </trkpt>
      <trkpt lat="45.03857" lon="5.88471">
        <ele>2174.64</ele>
        <time>2020-03-12T11:53:54Z</time>
      </trkpt>
      <trkpt lat="45.03857" lon="5.88471">
        <ele>2174.64</ele>
        <time>2020-03-12T11:54:18Z</time>
      </trkpt>
      <trkpt lat="45.03858" lon="5.88471">
        <ele>2175.12</ele>
        <time>2020-03-12T11:54:46Z</time>
      </trkpt>
      <trkpt lat="45.03857" lon="5.88471">
        <ele>2175.6</ele>
        <time>2020-03-12T11:54:53Z</time>
      </trkpt>
      <trkpt lat="45.03858" lon="5.88471">
        <ele>2172.24</ele>
        <time>2020-03-12T11:55:12Z</time>
      </trkpt>
      <trkpt lat="45.03858" lon="5.88471">
        <ele>2176.08</ele>
        <time>2020-03-12T11:55:15Z</time>
      </trkpt>
      <trkpt lat="45.03858" lon="5.88471">
        <ele>2174.16</ele>
        <time>2020-03-12T11:55:25Z</time>
      </trkpt>
      <trkpt lat="45.03858" lon="5.88471">
        <ele>2169.83</ele>
        <time>2020-03-12T11:55:32Z</time>
      </trkpt>
      <trkpt lat="45.03858" lon="5.88471">
        <ele>2171.76</ele>
        <time>2020-03-12T11:55:33Z</time>
      </trkpt>
      <trkpt lat="45.03858" lon="5.88471">
        <ele>2176.56</ele>
        <time>2020-03-12T11:55:35Z</time>
      </trkpt>
      <trkpt lat="45.03858" lon="5.88471">
        <ele>2175.6</ele>
        <time>2020-03-12T11:55:36Z</time>
      </trkpt>
      <trkpt lat="45.03858" lon="5.88471">
        <ele>2179.45</ele>
        <time>2020-03-12T11:55:41Z</time>
      </trkpt>
      <trkpt lat="45.03858" lon="5.88471">
        <ele>2176.08</ele>
        <time>2020-03-12T11:55:42Z</time>
      </trkpt>
      <trkpt lat="45.03858" lon="5.88471">
        <ele>2175.6</ele>
        <time>2020-03-12T11:55:44Z</time>
      </trkpt>
      <trkpt lat="45.03858" lon="5.88471">
        <ele>2171.76</ele>
        <time>2020-03-12T11:56:06Z</time>
      </trkpt>
      <trkpt lat="45.03858" lon="5.88471">
        <ele>2174.64</ele>
        <time>2020-03-12T11:56:08Z</time>
      </trkpt>
      <trkpt lat="45.03858" lon="5.88471">
        <ele>2173.68</ele>
        <time>2020-03-12T11:56:09Z</time>
      </trkpt>
      <trkpt lat="45.03858" lon="5.88471">
        <ele>2169.83</ele>
        <time>2020-03-12T11:56:10Z</time>
      </trkpt>
      <trkpt lat="45.03858" lon="5.88471">
        <ele>2174.16</ele>
        <time>2020-03-12T11:56:11Z</time>
      </trkpt>
      <trkpt lat="45.03858" lon="5.88471">
        <ele>2178.97</ele>
        <time>2020-03-12T11:56:12Z</time>
      </trkpt>
      <trkpt lat="45.03858" lon="5.88471">
        <ele>2175.6</ele>
        <time>2020-03-12T11:56:13Z</time>
      </trkpt>
      <trkpt lat="45.03857" lon="5.8847">
        <ele>2172.24</ele>
        <time>2020-03-12T11:56:17Z</time>
      </trkpt>
      <trkpt lat="45.03856" lon="5.8847">
        <ele>2186.18</ele>
        <time>2020-03-12T11:56:18Z</time>
      </trkpt>
      <trkpt lat="45.03856" lon="5.8847">
        <ele>2176.08</ele>
        <time>2020-03-12T11:56:19Z</time>
      </trkpt>
      <trkpt lat="45.03856" lon="5.88471">
        <ele>2172.72</ele>
        <time>2020-03-12T11:56:24Z</time>
      </trkpt>
      <trkpt lat="45.03856" lon="5.88471">
        <ele>2176.56</ele>
        <time>2020-03-12T11:56:27Z</time>
      </trkpt>
      <trkpt lat="45.03856" lon="5.88471">
        <ele>2174.16</ele>
        <time>2020-03-12T11:56:30Z</time>
      </trkpt>
      <trkpt lat="45.03856" lon="5.88471">
        <ele>2176.56</ele>
        <time>2020-03-12T11:56:45Z</time>
      </trkpt>
      <trkpt lat="45.03857" lon="5.88471">
        <ele>2175.12</ele>
        <time>2020-03-12T11:57:11Z</time>
      </trkpt>
      <trkpt lat="45.03859" lon="5.88471">
        <ele>2175.6</ele>
        <time>2020-03-12T11:57:27Z</time>
      </trkpt>
      <trkpt lat="45.03859" lon="5.8847">
        <ele>2174.64</ele>
        <time>2020-03-12T11:57:37Z</time>
      </trkpt>
      <trkpt lat="45.0386" lon="5.88462">
        <ele>2175.12</ele>
        <time>2020-03-12T11:57:43Z</time>
      </trkpt>
      <trkpt lat="45.03861" lon="5.88451">
        <ele>2175.6</ele>
        <time>2020-03-12T11:57:51Z</time>
      </trkpt>
      <trkpt lat="45.03862" lon="5.88446">
        <ele>2175.12</ele>
        <time>2020-03-12T11:58:01Z</time>
      </trkpt>
      <trkpt lat="45.03863" lon="5.8844">
        <ele>2175.12</ele>
        <time>2020-03-12T11:58:05Z</time>
      </trkpt>
      <trkpt lat="45.03863" lon="5.88434">
        <ele>2175.6</ele>
        <time>2020-03-12T11:58:10Z</time>
      </trkpt>
      <trkpt lat="45.03864" lon="5.88425">
        <ele>2175.6</ele>
        <time>2020-03-12T11:58:16Z</time>
      </trkpt>
      <trkpt lat="45.03866" lon="5.8841">
        <ele>2175.12</ele>
        <time>2020-03-12T11:58:27Z</time>
      </trkpt>
      <trkpt lat="45.03867" lon="5.884">
        <ele>2174.64</ele>
        <time>2020-03-12T11:58:36Z</time>
      </trkpt>
      <trkpt lat="45.03867" lon="5.88396">
        <ele>2175.12</ele>
        <time>2020-03-12T11:58:40Z</time>
      </trkpt>
      <trkpt lat="45.03866" lon="5.88383">
        <ele>2174.16</ele>
        <time>2020-03-12T11:58:51Z</time>
      </trkpt>
      <trkpt lat="45.03866" lon="5.88374">
        <ele>2173.68</ele>
        <time>2020-03-12T11:58:57Z</time>
      </trkpt>
      <trkpt lat="45.03869" lon="5.8836">
        <ele>2172.24</ele>
        <time>2020-03-12T11:59:10Z</time>
      </trkpt>
      <trkpt lat="45.03869" lon="5.88359">
        <ele>2172.24</ele>
        <time>2020-03-12T11:59:18Z</time>
      </trkpt>
      <trkpt lat="45.03878" lon="5.88346">
        <ele>2170.79</ele>
        <time>2020-03-12T11:59:32Z</time>
      </trkpt>
      <trkpt lat="45.03884" lon="5.88335">
        <ele>2168.87</ele>
        <time>2020-03-12T11:59:46Z</time>
      </trkpt>
      <trkpt lat="45.03886" lon="5.8833">
        <ele>2168.39</ele>
        <time>2020-03-12T11:59:52Z</time>
      </trkpt>
      <trkpt lat="45.03888" lon="5.88326">
        <ele>2167.91</ele>
        <time>2020-03-12T12:00:05Z</time>
      </trkpt>
      <trkpt lat="45.03889" lon="5.88326">
        <ele>2167.43</ele>
        <time>2020-03-12T12:00:12Z</time>
      </trkpt>
      <trkpt lat="45.03891" lon="5.88319">
        <ele>2166.95</ele>
        <time>2020-03-12T12:00:18Z</time>
      </trkpt>
      <trkpt lat="45.03892" lon="5.88317">
        <ele>2166.47</ele>
        <time>2020-03-12T12:00:20Z</time>
      </trkpt>
      <trkpt lat="45.039" lon="5.88299">
        <ele>2165.03</ele>
        <time>2020-03-12T12:00:34Z</time>
      </trkpt>
      <trkpt lat="45.03906" lon="5.88286">
        <ele>2163.1</ele>
        <time>2020-03-12T12:00:46Z</time>
      </trkpt>
      <trkpt lat="45.03912" lon="5.88273">
        <ele>2161.18</ele>
        <time>2020-03-12T12:00:59Z</time>
      </trkpt>
      <trkpt lat="45.03918" lon="5.88261">
        <ele>2159.74</ele>
        <time>2020-03-12T12:01:13Z</time>
      </trkpt>
      <trkpt lat="45.03919" lon="5.88258">
        <ele>2158.78</ele>
        <time>2020-03-12T12:01:27Z</time>
      </trkpt>
      <trkpt lat="45.03919" lon="5.88258">
        <ele>2159.26</ele>
        <time>2020-03-12T12:01:56Z</time>
      </trkpt>
      <trkpt lat="45.03919" lon="5.88258">
        <ele>2159.26</ele>
        <time>2020-03-12T12:02:18Z</time>
      </trkpt>
      <trkpt lat="45.0392" lon="5.88255">
        <ele>2158.78</ele>
        <time>2020-03-12T12:02:31Z</time>
      </trkpt>
      <trkpt lat="45.03923" lon="5.88251">
        <ele>2157.82</ele>
        <time>2020-03-12T12:02:35Z</time>
      </trkpt>
      <trkpt lat="45.03926" lon="5.88244">
        <ele>2156.86</ele>
        <time>2020-03-12T12:02:41Z</time>
      </trkpt>
      <trkpt lat="45.03928" lon="5.88238">
        <ele>2153.01</ele>
        <time>2020-03-12T12:02:52Z</time>
      </trkpt>
      <trkpt lat="45.03928" lon="5.88238">
        <ele>2160.7</ele>
        <time>2020-03-12T12:02:54Z</time>
      </trkpt>
      <trkpt lat="45.03928" lon="5.88238">
        <ele>2157.82</ele>
        <time>2020-03-12T12:02:55Z</time>
      </trkpt>
      <trkpt lat="45.03929" lon="5.88235">
        <ele>2156.37</ele>
        <time>2020-03-12T12:02:57Z</time>
      </trkpt>
      <trkpt lat="45.0393" lon="5.88233">
        <ele>2155.89</ele>
        <time>2020-03-12T12:02:59Z</time>
      </trkpt>
      <trkpt lat="45.03935" lon="5.88215">
        <ele>2153.01</ele>
        <time>2020-03-12T12:03:12Z</time>
      </trkpt>
      <trkpt lat="45.0394" lon="5.88197">
        <ele>2151.09</ele>
        <time>2020-03-12T12:03:26Z</time>
      </trkpt>
      <trkpt lat="45.03941" lon="5.88193">
        <ele>2150.13</ele>
        <time>2020-03-12T12:03:29Z</time>
      </trkpt>
      <trkpt lat="45.03945" lon="5.88182">
        <ele>2147.72</ele>
        <time>2020-03-12T12:03:39Z</time>
      </trkpt>
      <trkpt lat="45.03948" lon="5.88171">
        <ele>2145.32</ele>
        <time>2020-03-12T12:03:51Z</time>
      </trkpt>
      <trkpt lat="45.03951" lon="5.88164">
        <ele>2143.88</ele>
        <time>2020-03-12T12:04:06Z</time>
      </trkpt>
      <trkpt lat="45.03951" lon="5.88163">
        <ele>2143.4</ele>
        <time>2020-03-12T12:04:35Z</time>
      </trkpt>
      <trkpt lat="45.03952" lon="5.88162">
        <ele>2143.4</ele>
        <time>2020-03-12T12:05:01Z</time>
      </trkpt>
      <trkpt lat="45.03952" lon="5.88162">
        <ele>2143.88</ele>
        <time>2020-03-12T12:05:33Z</time>
      </trkpt>
      <trkpt lat="45.03952" lon="5.88162">
        <ele>2143.4</ele>
        <time>2020-03-12T12:06:01Z</time>
      </trkpt>
      <trkpt lat="45.03952" lon="5.88161">
        <ele>2143.88</ele>
        <time>2020-03-12T12:06:34Z</time>
      </trkpt>
      <trkpt lat="45.03952" lon="5.88161">
        <ele>2143.4</ele>
        <time>2020-03-12T12:07:00Z</time>
      </trkpt>
      <trkpt lat="45.03952" lon="5.88161">
        <ele>2143.88</ele>
        <time>2020-03-12T12:07:27Z</time>
      </trkpt>
      <trkpt lat="45.03952" lon="5.88161">
        <ele>2144.36</ele>
        <time>2020-03-12T12:07:56Z</time>
      </trkpt>
      <trkpt lat="45.03952" lon="5.88161">
        <ele>2144.36</ele>
        <time>2020-03-12T12:08:24Z</time>
      </trkpt>
      <trkpt lat="45.03952" lon="5.88161">
        <ele>2143.88</ele>
        <time>2020-03-12T12:08:56Z</time>
      </trkpt>
      <trkpt lat="45.03952" lon="5.88162">
        <ele>2143.4</ele>
        <time>2020-03-12T12:09:26Z</time>
      </trkpt>
      <trkpt lat="45.03952" lon="5.88162">
        <ele>2143.88</ele>
        <time>2020-03-12T12:09:55Z</time>
      </trkpt>
      <trkpt lat="45.03952" lon="5.88161">
        <ele>2143.4</ele>
        <time>2020-03-12T12:10:23Z</time>
      </trkpt>
      <trkpt lat="45.03954" lon="5.88157">
        <ele>2141.95</ele>
        <time>2020-03-12T12:10:34Z</time>
      </trkpt>
      <trkpt lat="45.0396" lon="5.88147">
        <ele>2139.55</ele>
        <time>2020-03-12T12:10:45Z</time>
      </trkpt>
      <trkpt lat="45.03965" lon="5.88139">
        <ele>2137.63</ele>
        <time>2020-03-12T12:10:53Z</time>
      </trkpt>
      <trkpt lat="45.03969" lon="5.88135">
        <ele>2136.19</ele>
        <time>2020-03-12T12:10:58Z</time>
      </trkpt>
      <trkpt lat="45.03979" lon="5.88124">
        <ele>2133.3</ele>
        <time>2020-03-12T12:11:11Z</time>
      </trkpt>
      <trkpt lat="45.03982" lon="5.88119">
        <ele>2132.34</ele>
        <time>2020-03-12T12:11:16Z</time>
      </trkpt>
      <trkpt lat="45.0399" lon="5.88108">
        <ele>2128.5</ele>
        <time>2020-03-12T12:11:28Z</time>
      </trkpt>
      <trkpt lat="45.03998" lon="5.88096">
        <ele>2125.13</ele>
        <time>2020-03-12T12:11:39Z</time>
      </trkpt>
      <trkpt lat="45.04004" lon="5.88087">
        <ele>2122.73</ele>
        <time>2020-03-12T12:11:49Z</time>
      </trkpt>
      <trkpt lat="45.04006" lon="5.88084">
        <ele>2121.77</ele>
        <time>2020-03-12T12:11:52Z</time>
      </trkpt>
      <trkpt lat="45.04012" lon="5.8807">
        <ele>2118.4</ele>
        <time>2020-03-12T12:12:04Z</time>
      </trkpt>
      <trkpt lat="45.04012" lon="5.88067">
        <ele>2117.44</ele>
        <time>2020-03-12T12:12:06Z</time>
      </trkpt>
      <trkpt lat="45.04012" lon="5.88064">
        <ele>2116.96</ele>
        <time>2020-03-12T12:12:08Z</time>
      </trkpt>
      <trkpt lat="45.04013" lon="5.88063">
        <ele>2115.52</ele>
        <time>2020-03-12T12:12:10Z</time>
      </trkpt>
      <trkpt lat="45.04014" lon="5.88057">
        <ele>2114.56</ele>
        <time>2020-03-12T12:12:14Z</time>
      </trkpt>
      <trkpt lat="45.04015" lon="5.88049">
        <ele>2112.15</ele>
        <time>2020-03-12T12:12:26Z</time>
      </trkpt>
      <trkpt lat="45.04016" lon="5.88041">
        <ele>2109.75</ele>
        <time>2020-03-12T12:12:37Z</time>
      </trkpt>
      <trkpt lat="45.04019" lon="5.88032">
        <ele>2106.87</ele>
        <time>2020-03-12T12:12:46Z</time>
      </trkpt>
      <trkpt lat="45.04019" lon="5.88029">
        <ele>2106.39</ele>
        <time>2020-03-12T12:12:48Z</time>
      </trkpt>
      <trkpt lat="45.04019" lon="5.88023">
        <ele>2104.46</ele>
        <time>2020-03-12T12:12:57Z</time>
      </trkpt>
      <trkpt lat="45.04018" lon="5.88014">
        <ele>2102.06</ele>
        <time>2020-03-12T12:13:04Z</time>
      </trkpt>
      <trkpt lat="45.0402" lon="5.88002">
        <ele>2098.7</ele>
        <time>2020-03-12T12:13:15Z</time>
      </trkpt>
      <trkpt lat="45.04019" lon="5.8799">
        <ele>2094.85</ele>
        <time>2020-03-12T12:13:25Z</time>
      </trkpt>
      <trkpt lat="45.04019" lon="5.87981">
        <ele>2091.97</ele>
        <time>2020-03-12T12:13:35Z</time>
      </trkpt>
      <trkpt lat="45.04019" lon="5.87977">
        <ele>2088.12</ele>
        <time>2020-03-12T12:13:45Z</time>
      </trkpt>
      <trkpt lat="45.04019" lon="5.87976">
        <ele>2088.12</ele>
        <time>2020-03-12T12:13:46Z</time>
      </trkpt>
      <trkpt lat="45.04019" lon="5.8797">
        <ele>2085.24</ele>
        <time>2020-03-12T12:13:58Z</time>
      </trkpt>
      <trkpt lat="45.04019" lon="5.8797">
        <ele>2085.24</ele>
        <time>2020-03-12T12:13:59Z</time>
      </trkpt>
      <trkpt lat="45.0402" lon="5.87959">
        <ele>2082.83</ele>
        <time>2020-03-12T12:14:06Z</time>
      </trkpt>
      <trkpt lat="45.0402" lon="5.87951">
        <ele>2080.91</ele>
        <time>2020-03-12T12:14:18Z</time>
      </trkpt>
      <trkpt lat="45.0402" lon="5.87946">
        <ele>2078.99</ele>
        <time>2020-03-12T12:14:23Z</time>
      </trkpt>
      <trkpt lat="45.04018" lon="5.87936">
        <ele>2076.1</ele>
        <time>2020-03-12T12:14:35Z</time>
      </trkpt>
      <trkpt lat="45.04016" lon="5.8793">
        <ele>2073.22</ele>
        <time>2020-03-12T12:14:49Z</time>
      </trkpt>
      <trkpt lat="45.04015" lon="5.87926">
        <ele>2071.3</ele>
        <time>2020-03-12T12:15:04Z</time>
      </trkpt>
      <trkpt lat="45.04015" lon="5.87914">
        <ele>2068.41</ele>
        <time>2020-03-12T12:15:14Z</time>
      </trkpt>
      <trkpt lat="45.04014" lon="5.87903">
        <ele>2066.01</ele>
        <time>2020-03-12T12:15:25Z</time>
      </trkpt>
      <trkpt lat="45.04013" lon="5.87897">
        <ele>2063.13</ele>
        <time>2020-03-12T12:15:35Z</time>
      </trkpt>
      <trkpt lat="45.04013" lon="5.87889">
        <ele>2060.72</ele>
        <time>2020-03-12T12:15:45Z</time>
      </trkpt>
      <trkpt lat="45.04012" lon="5.87886">
        <ele>2060.24</ele>
        <time>2020-03-12T12:15:47Z</time>
      </trkpt>
      <trkpt lat="45.04011" lon="5.87877">
        <ele>2057.36</ele>
        <time>2020-03-12T12:15:59Z</time>
      </trkpt>
      <trkpt lat="45.04011" lon="5.87876">
        <ele>2057.84</ele>
        <time>2020-03-12T12:16:12Z</time>
      </trkpt>
      <trkpt lat="45.04011" lon="5.87867">
        <ele>2053.51</ele>
        <time>2020-03-12T12:16:24Z</time>
      </trkpt>
      <trkpt lat="45.04011" lon="5.87867">
        <ele>2053.51</ele>
        <time>2020-03-12T12:16:25Z</time>
      </trkpt>
      <trkpt lat="45.04011" lon="5.87857">
        <ele>2049.67</ele>
        <time>2020-03-12T12:16:33Z</time>
      </trkpt>
      <trkpt lat="45.04011" lon="5.87854">
        <ele>2050.15</ele>
        <time>2020-03-12T12:16:36Z</time>
      </trkpt>
      <trkpt lat="45.04012" lon="5.87845">
        <ele>2046.78</ele>
        <time>2020-03-12T12:16:47Z</time>
      </trkpt>
      <trkpt lat="45.04014" lon="5.87838">
        <ele>2042.94</ele>
        <time>2020-03-12T12:16:56Z</time>
      </trkpt>
      <trkpt lat="45.04014" lon="5.87827">
        <ele>2040.54</ele>
        <time>2020-03-12T12:17:08Z</time>
      </trkpt>
      <trkpt lat="45.04014" lon="5.87826">
        <ele>2039.57</ele>
        <time>2020-03-12T12:17:12Z</time>
      </trkpt>
      <trkpt lat="45.04014" lon="5.87818">
        <ele>2036.69</ele>
        <time>2020-03-12T12:17:27Z</time>
      </trkpt>
      <trkpt lat="45.04013" lon="5.87809">
        <ele>2033.81</ele>
        <time>2020-03-12T12:17:38Z</time>
      </trkpt>
      <trkpt lat="45.04013" lon="5.87807">
        <ele>2032.36</ele>
        <time>2020-03-12T12:17:40Z</time>
      </trkpt>
      <trkpt lat="45.04012" lon="5.87797">
        <ele>2029.96</ele>
        <time>2020-03-12T12:17:52Z</time>
      </trkpt>
      <trkpt lat="45.04011" lon="5.87789">
        <ele>2027.56</ele>
        <time>2020-03-12T12:18:03Z</time>
      </trkpt>
      <trkpt lat="45.0401" lon="5.87785">
        <ele>2025.15</ele>
        <time>2020-03-12T12:18:07Z</time>
      </trkpt>
      <trkpt lat="45.04008" lon="5.87773">
        <ele>2022.27</ele>
        <time>2020-03-12T12:18:19Z</time>
      </trkpt>
      <trkpt lat="45.04005" lon="5.87763">
        <ele>2019.39</ele>
        <time>2020-03-12T12:18:31Z</time>
      </trkpt>
      <trkpt lat="45.04005" lon="5.87756">
        <ele>2017.46</ele>
        <time>2020-03-12T12:18:37Z</time>
      </trkpt>
      <trkpt lat="45.04004" lon="5.87751">
        <ele>2014.58</ele>
        <time>2020-03-12T12:18:45Z</time>
      </trkpt>
      <trkpt lat="45.04004" lon="5.87748">
        <ele>2013.14</ele>
        <time>2020-03-12T12:18:50Z</time>
      </trkpt>
      <trkpt lat="45.04003" lon="5.87738">
        <ele>2010.25</ele>
        <time>2020-03-12T12:19:00Z</time>
      </trkpt>
      <trkpt lat="45.04003" lon="5.87737">
        <ele>2009.77</ele>
        <time>2020-03-12T12:19:01Z</time>
      </trkpt>
      <trkpt lat="45.04001" lon="5.87728">
        <ele>2007.85</ele>
        <time>2020-03-12T12:19:10Z</time>
      </trkpt>
      <trkpt lat="45.04" lon="5.87723">
        <ele>2005.93</ele>
        <time>2020-03-12T12:19:14Z</time>
      </trkpt>
      <trkpt lat="45.04002" lon="5.8772">
        <ele>2004.97</ele>
        <time>2020-03-12T12:19:19Z</time>
      </trkpt>
      <trkpt lat="45.04005" lon="5.87715">
        <ele>2002.08</ele>
        <time>2020-03-12T12:19:28Z</time>
      </trkpt>
      <trkpt lat="45.04003" lon="5.87706">
        <ele>2000.16</ele>
        <time>2020-03-12T12:19:38Z</time>
      </trkpt>
      <trkpt lat="45.04002" lon="5.87703">
        <ele>1998.72</ele>
        <time>2020-03-12T12:19:42Z</time>
      </trkpt>
      <trkpt lat="45.04002" lon="5.87698">
        <ele>1996.8</ele>
        <time>2020-03-12T12:19:55Z</time>
      </trkpt>
      <trkpt lat="45.04001" lon="5.87692">
        <ele>1994.39</ele>
        <time>2020-03-12T12:20:06Z</time>
      </trkpt>
      <trkpt lat="45.04" lon="5.87682">
        <ele>1991.51</ele>
        <time>2020-03-12T12:20:18Z</time>
      </trkpt>
      <trkpt lat="45.03999" lon="5.87672">
        <ele>1987.66</ele>
        <time>2020-03-12T12:20:29Z</time>
      </trkpt>
      <trkpt lat="45.03998" lon="5.8766">
        <ele>1983.82</ele>
        <time>2020-03-12T12:20:41Z</time>
      </trkpt>
      <trkpt lat="45.03998" lon="5.87658">
        <ele>1983.34</ele>
        <time>2020-03-12T12:20:44Z</time>
      </trkpt>
      <trkpt lat="45.03997" lon="5.87654">
        <ele>1982.86</ele>
        <time>2020-03-12T12:20:47Z</time>
      </trkpt>
      <trkpt lat="45.03997" lon="5.87646">
        <ele>1979.49</ele>
        <time>2020-03-12T12:20:58Z</time>
      </trkpt>
      <trkpt lat="45.03997" lon="5.87643">
        <ele>1978.53</ele>
        <time>2020-03-12T12:21:00Z</time>
      </trkpt>
      <trkpt lat="45.03996" lon="5.87635">
        <ele>1975.65</ele>
        <time>2020-03-12T12:21:13Z</time>
      </trkpt>
      <trkpt lat="45.03996" lon="5.87634">
        <ele>1975.65</ele>
        <time>2020-03-12T12:21:14Z</time>
      </trkpt>
      <trkpt lat="45.03996" lon="5.87624">
        <ele>1972.28</ele>
        <time>2020-03-12T12:21:24Z</time>
      </trkpt>
      <trkpt lat="45.03997" lon="5.87617">
        <ele>1969.4</ele>
        <time>2020-03-12T12:21:30Z</time>
      </trkpt>
      <trkpt lat="45.03998" lon="5.87613">
        <ele>1968.44</ele>
        <time>2020-03-12T12:21:34Z</time>
      </trkpt>
      <trkpt lat="45.03998" lon="5.87604">
        <ele>1965.07</ele>
        <time>2020-03-12T12:21:44Z</time>
      </trkpt>
      <trkpt lat="45.03999" lon="5.87598">
        <ele>1964.11</ele>
        <time>2020-03-12T12:21:48Z</time>
      </trkpt>
      <trkpt lat="45.04" lon="5.87595">
        <ele>1963.15</ele>
        <time>2020-03-12T12:21:50Z</time>
      </trkpt>
      <trkpt lat="45.04001" lon="5.87585">
        <ele>1959.3</ele>
        <time>2020-03-12T12:21:58Z</time>
      </trkpt>
      <trkpt lat="45.04001" lon="5.87579">
        <ele>1957.86</ele>
        <time>2020-03-12T12:22:03Z</time>
      </trkpt>
      <trkpt lat="45.04001" lon="5.87569">
        <ele>1954.5</ele>
        <time>2020-03-12T12:22:12Z</time>
      </trkpt>
      <trkpt lat="45.04002" lon="5.87567">
        <ele>1954.02</ele>
        <time>2020-03-12T12:22:15Z</time>
      </trkpt>
      <trkpt lat="45.04006" lon="5.87554">
        <ele>1949.69</ele>
        <time>2020-03-12T12:22:27Z</time>
      </trkpt>
      <trkpt lat="45.04007" lon="5.87553">
        <ele>1949.21</ele>
        <time>2020-03-12T12:22:29Z</time>
      </trkpt>
      <trkpt lat="45.04009" lon="5.8755">
        <ele>1947.77</ele>
        <time>2020-03-12T12:22:32Z</time>
      </trkpt>
      <trkpt lat="45.04011" lon="5.8754">
        <ele>1945.85</ele>
        <time>2020-03-12T12:22:39Z</time>
      </trkpt>
      <trkpt lat="45.04012" lon="5.87536">
        <ele>1943.92</ele>
        <time>2020-03-12T12:22:52Z</time>
      </trkpt>
      <trkpt lat="45.04011" lon="5.87535">
        <ele>1943.92</ele>
        <time>2020-03-12T12:23:12Z</time>
      </trkpt>
      <trkpt lat="45.04011" lon="5.87536">
        <ele>1942.96</ele>
        <time>2020-03-12T12:23:36Z</time>
      </trkpt>
      <trkpt lat="45.04011" lon="5.87535">
        <ele>1943.44</ele>
        <time>2020-03-12T12:24:01Z</time>
      </trkpt>
      <trkpt lat="45.04011" lon="5.87535">
        <ele>1942.96</ele>
        <time>2020-03-12T12:24:28Z</time>
      </trkpt>
      <trkpt lat="45.04011" lon="5.87535">
        <ele>1942.48</ele>
        <time>2020-03-12T12:24:52Z</time>
      </trkpt>
      <trkpt lat="45.04011" lon="5.87535">
        <ele>1942.96</ele>
        <time>2020-03-12T12:25:15Z</time>
      </trkpt>
      <trkpt lat="45.04011" lon="5.87535">
        <ele>1942.48</ele>
        <time>2020-03-12T12:25:41Z</time>
      </trkpt>
      <trkpt lat="45.04011" lon="5.87535">
        <ele>1941.52</ele>
        <time>2020-03-12T12:26:06Z</time>
      </trkpt>
      <trkpt lat="45.04011" lon="5.87535">
        <ele>1942</ele>
        <time>2020-03-12T12:26:30Z</time>
      </trkpt>
      <trkpt lat="45.04011" lon="5.87534">
        <ele>1942.48</ele>
        <time>2020-03-12T12:26:43Z</time>
      </trkpt>
      <trkpt lat="45.04011" lon="5.87535">
        <ele>1942.48</ele>
        <time>2020-03-12T12:27:07Z</time>
      </trkpt>
      <trkpt lat="45.04011" lon="5.87535">
        <ele>1942.48</ele>
        <time>2020-03-12T12:27:34Z</time>
      </trkpt>
      <trkpt lat="45.04011" lon="5.87534">
        <ele>1942.48</ele>
        <time>2020-03-12T12:28:01Z</time>
      </trkpt>
      <trkpt lat="45.04011" lon="5.87534">
        <ele>1942</ele>
        <time>2020-03-12T12:28:32Z</time>
      </trkpt>
      <trkpt lat="45.04011" lon="5.87534">
        <ele>1942</ele>
        <time>2020-03-12T12:28:57Z</time>
      </trkpt>
      <trkpt lat="45.04011" lon="5.87534">
        <ele>1942.48</ele>
        <time>2020-03-12T12:29:22Z</time>
      </trkpt>
      <trkpt lat="45.04011" lon="5.87534">
        <ele>1943.44</ele>
        <time>2020-03-12T12:29:48Z</time>
      </trkpt>
      <trkpt lat="45.04011" lon="5.87534">
        <ele>1949.21</ele>
        <time>2020-03-12T12:29:49Z</time>
      </trkpt>
      <trkpt lat="45.04011" lon="5.87534">
        <ele>1944.4</ele>
        <time>2020-03-12T12:29:50Z</time>
      </trkpt>
      <trkpt lat="45.04011" lon="5.87534">
        <ele>1932.39</ele>
        <time>2020-03-12T12:29:58Z</time>
      </trkpt>
      <trkpt lat="45.04011" lon="5.87534">
        <ele>1951.13</ele>
        <time>2020-03-12T12:29:59Z</time>
      </trkpt>
      <trkpt lat="45.04011" lon="5.87534">
        <ele>1936.23</ele>
        <time>2020-03-12T12:30:00Z</time>
      </trkpt>
      <trkpt lat="45.04011" lon="5.87534">
        <ele>1948.73</ele>
        <time>2020-03-12T12:30:01Z</time>
      </trkpt>
      <trkpt lat="45.04011" lon="5.87534">
        <ele>1943.44</ele>
        <time>2020-03-12T12:30:02Z</time>
      </trkpt>
      <trkpt lat="45.04011" lon="5.87534">
        <ele>1942.96</ele>
        <time>2020-03-12T12:30:04Z</time>
      </trkpt>
      <trkpt lat="45.04011" lon="5.87534">
        <ele>1925.18</ele>
        <time>2020-03-12T12:30:25Z</time>
      </trkpt>
      <trkpt lat="45.04011" lon="5.87534">
        <ele>1955.94</ele>
        <time>2020-03-12T12:30:26Z</time>
      </trkpt>
      <trkpt lat="45.04011" lon="5.87534">
        <ele>1943.92</ele>
        <time>2020-03-12T12:30:27Z</time>
      </trkpt>
      <trkpt lat="45.04011" lon="5.87534">
        <ele>1942.48</ele>
        <time>2020-03-12T12:30:29Z</time>
      </trkpt>
      <trkpt lat="45.04011" lon="5.87534">
        <ele>1942</ele>
        <time>2020-03-12T12:30:54Z</time>
      </trkpt>
      <trkpt lat="45.04011" lon="5.87534">
        <ele>1938.16</ele>
        <time>2020-03-12T12:31:04Z</time>
      </trkpt>
      <trkpt lat="45.04011" lon="5.87534">
        <ele>1945.85</ele>
        <time>2020-03-12T12:31:05Z</time>
      </trkpt>
      <trkpt lat="45.04011" lon="5.87534">
        <ele>1941.04</ele>
        <time>2020-03-12T12:31:06Z</time>
      </trkpt>
      <trkpt lat="45.04011" lon="5.87534">
        <ele>1942</ele>
        <time>2020-03-12T12:31:29Z</time>
      </trkpt>
      <trkpt lat="45.04011" lon="5.87535">
        <ele>1942</ele>
        <time>2020-03-12T12:31:57Z</time>
      </trkpt>
      <trkpt lat="45.04011" lon="5.87534">
        <ele>1942.48</ele>
        <time>2020-03-12T12:32:24Z</time>
      </trkpt>
      <trkpt lat="45.04011" lon="5.87531">
        <ele>1941.52</ele>
        <time>2020-03-12T12:32:41Z</time>
      </trkpt>
      <trkpt lat="45.04013" lon="5.87528">
        <ele>1939.12</ele>
        <time>2020-03-12T12:32:56Z</time>
      </trkpt>
      <trkpt lat="45.04017" lon="5.87521">
        <ele>1939.12</ele>
        <time>2020-03-12T12:33:04Z</time>
      </trkpt>
      <trkpt lat="45.04023" lon="5.87511">
        <ele>1938.64</ele>
        <time>2020-03-12T12:33:17Z</time>
      </trkpt>
      <trkpt lat="45.04024" lon="5.8751">
        <ele>1937.67</ele>
        <time>2020-03-12T12:33:18Z</time>
      </trkpt>
      <trkpt lat="45.04026" lon="5.87506">
        <ele>1937.67</ele>
        <time>2020-03-12T12:33:22Z</time>
      </trkpt>
      <trkpt lat="45.04029" lon="5.875">
        <ele>1938.16</ele>
        <time>2020-03-12T12:33:28Z</time>
      </trkpt>
      <trkpt lat="45.04036" lon="5.8749">
        <ele>1936.23</ele>
        <time>2020-03-12T12:33:40Z</time>
      </trkpt>
      <trkpt lat="45.04037" lon="5.87489">
        <ele>1936.23</ele>
        <time>2020-03-12T12:33:41Z</time>
      </trkpt>
      <trkpt lat="45.04043" lon="5.87477">
        <ele>1933.35</ele>
        <time>2020-03-12T12:33:55Z</time>
      </trkpt>
      <trkpt lat="45.04051" lon="5.8747">
        <ele>1930.95</ele>
        <time>2020-03-12T12:34:07Z</time>
      </trkpt>
      <trkpt lat="45.04057" lon="5.8746">
        <ele>1928.06</ele>
        <time>2020-03-12T12:34:20Z</time>
      </trkpt>
      <trkpt lat="45.04064" lon="5.87455">
        <ele>1925.66</ele>
        <time>2020-03-12T12:34:32Z</time>
      </trkpt>
      <trkpt lat="45.04067" lon="5.87447">
        <ele>1923.25</ele>
        <time>2020-03-12T12:34:43Z</time>
      </trkpt>
      <trkpt lat="45.04073" lon="5.8744">
        <ele>1919.89</ele>
        <time>2020-03-12T12:34:54Z</time>
      </trkpt>
      <trkpt lat="45.04074" lon="5.8744">
        <ele>1919.41</ele>
        <time>2020-03-12T12:34:55Z</time>
      </trkpt>
      <trkpt lat="45.0408" lon="5.87438">
        <ele>1914.6</ele>
        <time>2020-03-12T12:35:07Z</time>
      </trkpt>
      <trkpt lat="45.0408" lon="5.87438">
        <ele>1919.89</ele>
        <time>2020-03-12T12:35:09Z</time>
      </trkpt>
      <trkpt lat="45.0408" lon="5.87438">
        <ele>1918.93</ele>
        <time>2020-03-12T12:35:10Z</time>
      </trkpt>
      <trkpt lat="45.04081" lon="5.87438">
        <ele>1903.55</ele>
        <time>2020-03-12T12:35:14Z</time>
      </trkpt>
      <trkpt lat="45.04081" lon="5.87438">
        <ele>1933.83</ele>
        <time>2020-03-12T12:35:15Z</time>
      </trkpt>
      <trkpt lat="45.04081" lon="5.87438">
        <ele>1928.06</ele>
        <time>2020-03-12T12:35:16Z</time>
      </trkpt>
      <trkpt lat="45.04082" lon="5.87438">
        <ele>1915.08</ele>
        <time>2020-03-12T12:35:17Z</time>
      </trkpt>
      <trkpt lat="45.04082" lon="5.87438">
        <ele>1922.77</ele>
        <time>2020-03-12T12:35:18Z</time>
      </trkpt>
      <trkpt lat="45.04081" lon="5.87438">
        <ele>1918.45</ele>
        <time>2020-03-12T12:35:20Z</time>
      </trkpt>
      <trkpt lat="45.04082" lon="5.87438">
        <ele>1912.2</ele>
        <time>2020-03-12T12:35:22Z</time>
      </trkpt>
      <trkpt lat="45.04082" lon="5.87437">
        <ele>1912.2</ele>
        <time>2020-03-12T12:35:23Z</time>
      </trkpt>
      <trkpt lat="45.04083" lon="5.87437">
        <ele>1917.49</ele>
        <time>2020-03-12T12:35:24Z</time>
      </trkpt>
      <trkpt lat="45.04084" lon="5.87436">
        <ele>1916.04</ele>
        <time>2020-03-12T12:35:25Z</time>
      </trkpt>
      <trkpt lat="45.04091" lon="5.87431">
        <ele>1913.16</ele>
        <time>2020-03-12T12:35:35Z</time>
      </trkpt>
      <trkpt lat="45.04095" lon="5.8743">
        <ele>1912.2</ele>
        <time>2020-03-12T12:35:40Z</time>
      </trkpt>
      <trkpt lat="45.04098" lon="5.87431">
        <ele>1911.72</ele>
        <time>2020-03-12T12:35:42Z</time>
      </trkpt>
      <trkpt lat="45.04104" lon="5.87428">
        <ele>1910.76</ele>
        <time>2020-03-12T12:35:48Z</time>
      </trkpt>
      <trkpt lat="45.04115" lon="5.87426">
        <ele>1908.83</ele>
        <time>2020-03-12T12:36:03Z</time>
      </trkpt>
      <trkpt lat="45.04121" lon="5.87425">
        <ele>1905.95</ele>
        <time>2020-03-12T12:36:18Z</time>
      </trkpt>
      <trkpt lat="45.04122" lon="5.87425">
        <ele>1909.32</ele>
        <time>2020-03-12T12:36:19Z</time>
      </trkpt>
      <trkpt lat="45.04126" lon="5.87424">
        <ele>1906.43</ele>
        <time>2020-03-12T12:36:29Z</time>
      </trkpt>
      <trkpt lat="45.04127" lon="5.87421">
        <ele>1905.47</ele>
        <time>2020-03-12T12:36:46Z</time>
      </trkpt>
      <trkpt lat="45.04127" lon="5.87405">
        <ele>1901.63</ele>
        <time>2020-03-12T12:37:02Z</time>
      </trkpt>
      <trkpt lat="45.0412" lon="5.87391">
        <ele>1898.74</ele>
        <time>2020-03-12T12:37:17Z</time>
      </trkpt>
      <trkpt lat="45.04123" lon="5.87383">
        <ele>1895.86</ele>
        <time>2020-03-12T12:37:25Z</time>
      </trkpt>
      <trkpt lat="45.04122" lon="5.87376">
        <ele>1892.49</ele>
        <time>2020-03-12T12:37:38Z</time>
      </trkpt>
      <trkpt lat="45.04116" lon="5.87362">
        <ele>1890.57</ele>
        <time>2020-03-12T12:37:56Z</time>
      </trkpt>
      <trkpt lat="45.04121" lon="5.8735">
        <ele>1887.21</ele>
        <time>2020-03-12T12:38:08Z</time>
      </trkpt>
      <trkpt lat="45.0413" lon="5.87349">
        <ele>1883.84</ele>
        <time>2020-03-12T12:38:21Z</time>
      </trkpt>
      <trkpt lat="45.0414" lon="5.8735">
        <ele>1881.44</ele>
        <time>2020-03-12T12:38:36Z</time>
      </trkpt>
      <trkpt lat="45.0415" lon="5.87346">
        <ele>1878.07</ele>
        <time>2020-03-12T12:38:47Z</time>
      </trkpt>
      <trkpt lat="45.04157" lon="5.87344">
        <ele>1877.11</ele>
        <time>2020-03-12T12:38:56Z</time>
      </trkpt>
      <trkpt lat="45.04166" lon="5.87334">
        <ele>1874.23</ele>
        <time>2020-03-12T12:39:05Z</time>
      </trkpt>
      <trkpt lat="45.04173" lon="5.87328">
        <ele>1871.34</ele>
        <time>2020-03-12T12:39:14Z</time>
      </trkpt>
      <trkpt lat="45.04178" lon="5.87324">
        <ele>1868.46</ele>
        <time>2020-03-12T12:39:22Z</time>
      </trkpt>
      <trkpt lat="45.04178" lon="5.87322">
        <ele>1862.21</ele>
        <time>2020-03-12T12:39:30Z</time>
      </trkpt>
      <trkpt lat="45.04178" lon="5.87321">
        <ele>1874.23</ele>
        <time>2020-03-12T12:39:31Z</time>
      </trkpt>
      <trkpt lat="45.04178" lon="5.87321">
        <ele>1869.42</ele>
        <time>2020-03-12T12:39:32Z</time>
      </trkpt>
      <trkpt lat="45.04178" lon="5.87321">
        <ele>1857.89</ele>
        <time>2020-03-12T12:39:33Z</time>
      </trkpt>
      <trkpt lat="45.04178" lon="5.87321">
        <ele>1877.11</ele>
        <time>2020-03-12T12:39:34Z</time>
      </trkpt>
      <trkpt lat="45.04178" lon="5.87321">
        <ele>1859.81</ele>
        <time>2020-03-12T12:39:35Z</time>
      </trkpt>
      <trkpt lat="45.04178" lon="5.87321">
        <ele>1876.63</ele>
        <time>2020-03-12T12:39:36Z</time>
      </trkpt>
      <trkpt lat="45.04178" lon="5.87321">
        <ele>1869.9</ele>
        <time>2020-03-12T12:39:37Z</time>
      </trkpt>
      <trkpt lat="45.04179" lon="5.87321">
        <ele>1865.58</ele>
        <time>2020-03-12T12:39:39Z</time>
      </trkpt>
      <trkpt lat="45.04178" lon="5.87321">
        <ele>1872.3</ele>
        <time>2020-03-12T12:39:40Z</time>
      </trkpt>
      <trkpt lat="45.04179" lon="5.87321">
        <ele>1860.77</ele>
        <time>2020-03-12T12:39:41Z</time>
      </trkpt>
      <trkpt lat="45.04179" lon="5.87321">
        <ele>1862.21</ele>
        <time>2020-03-12T12:39:42Z</time>
      </trkpt>
      <trkpt lat="45.04179" lon="5.87321">
        <ele>1880.96</ele>
        <time>2020-03-12T12:39:43Z</time>
      </trkpt>
      <trkpt lat="45.04179" lon="5.87321">
        <ele>1866.54</ele>
        <time>2020-03-12T12:39:44Z</time>
      </trkpt>
      <trkpt lat="45.04179" lon="5.87321">
        <ele>1871.34</ele>
        <time>2020-03-12T12:39:45Z</time>
      </trkpt>
      <trkpt lat="45.04179" lon="5.87321">
        <ele>1867.02</ele>
        <time>2020-03-12T12:39:47Z</time>
      </trkpt>
      <trkpt lat="45.04179" lon="5.87321">
        <ele>1873.75</ele>
        <time>2020-03-12T12:39:48Z</time>
      </trkpt>
      <trkpt lat="45.04179" lon="5.87321">
        <ele>1870.86</ele>
        <time>2020-03-12T12:39:49Z</time>
      </trkpt>
      <trkpt lat="45.04179" lon="5.87321">
        <ele>1870.38</ele>
        <time>2020-03-12T12:39:51Z</time>
      </trkpt>
      <trkpt lat="45.04178" lon="5.8732">
        <ele>1862.21</ele>
        <time>2020-03-12T12:39:58Z</time>
      </trkpt>
      <trkpt lat="45.04178" lon="5.8732">
        <ele>1873.75</ele>
        <time>2020-03-12T12:39:59Z</time>
      </trkpt>
      <trkpt lat="45.04178" lon="5.8732">
        <ele>1867.5</ele>
        <time>2020-03-12T12:40:00Z</time>
      </trkpt>
      <trkpt lat="45.04178" lon="5.8732">
        <ele>1870.86</ele>
        <time>2020-03-12T12:40:01Z</time>
      </trkpt>
      <trkpt lat="45.04178" lon="5.87319">
        <ele>1868.94</ele>
        <time>2020-03-12T12:40:04Z</time>
      </trkpt>
      <trkpt lat="45.0418" lon="5.87318">
        <ele>1867.98</ele>
        <time>2020-03-12T12:40:20Z</time>
      </trkpt>
      <trkpt lat="45.04182" lon="5.87316">
        <ele>1867.02</ele>
        <time>2020-03-12T12:40:24Z</time>
      </trkpt>
      <trkpt lat="45.04184" lon="5.87311">
        <ele>1866.06</ele>
        <time>2020-03-12T12:40:29Z</time>
      </trkpt>
      <trkpt lat="45.04191" lon="5.87302">
        <ele>1862.69</ele>
        <time>2020-03-12T12:40:43Z</time>
      </trkpt>
      <trkpt lat="45.04194" lon="5.87299">
        <ele>1860.29</ele>
        <time>2020-03-12T12:40:57Z</time>
      </trkpt>
      <trkpt lat="45.04193" lon="5.87289">
        <ele>1859.81</ele>
        <time>2020-03-12T12:41:10Z</time>
      </trkpt>
      <trkpt lat="45.04194" lon="5.87284">
        <ele>1859.81</ele>
        <time>2020-03-12T12:41:13Z</time>
      </trkpt>
      <trkpt lat="45.04193" lon="5.87279">
        <ele>1858.37</ele>
        <time>2020-03-12T12:41:16Z</time>
      </trkpt>
      <trkpt lat="45.0419" lon="5.87266">
        <ele>1856.92</ele>
        <time>2020-03-12T12:41:26Z</time>
      </trkpt>
      <trkpt lat="45.04197" lon="5.87253">
        <ele>1853.56</ele>
        <time>2020-03-12T12:41:37Z</time>
      </trkpt>
      <trkpt lat="45.04198" lon="5.87251">
        <ele>1853.56</ele>
        <time>2020-03-12T12:41:39Z</time>
      </trkpt>
      <trkpt lat="45.04193" lon="5.87238">
        <ele>1851.64</ele>
        <time>2020-03-12T12:41:51Z</time>
      </trkpt>
      <trkpt lat="45.04186" lon="5.87225">
        <ele>1849.23</ele>
        <time>2020-03-12T12:42:04Z</time>
      </trkpt>
      <trkpt lat="45.04188" lon="5.87211">
        <ele>1846.35</ele>
        <time>2020-03-12T12:42:16Z</time>
      </trkpt>
      <trkpt lat="45.04184" lon="5.872">
        <ele>1842.5</ele>
        <time>2020-03-12T12:42:27Z</time>
      </trkpt>
      <trkpt lat="45.04185" lon="5.87191">
        <ele>1839.14</ele>
        <time>2020-03-12T12:42:41Z</time>
      </trkpt>
      <trkpt lat="45.04185" lon="5.87191">
        <ele>1844.43</ele>
        <time>2020-03-12T12:42:42Z</time>
      </trkpt>
      <trkpt lat="45.04185" lon="5.87191">
        <ele>1841.06</ele>
        <time>2020-03-12T12:42:43Z</time>
      </trkpt>
      <trkpt lat="45.04186" lon="5.8719">
        <ele>1844.91</ele>
        <time>2020-03-12T12:42:49Z</time>
      </trkpt>
      <trkpt lat="45.04187" lon="5.87189">
        <ele>1842.02</ele>
        <time>2020-03-12T12:42:56Z</time>
      </trkpt>
      <trkpt lat="45.04187" lon="5.87182">
        <ele>1840.58</ele>
        <time>2020-03-12T12:43:12Z</time>
      </trkpt>
      <trkpt lat="45.04186" lon="5.87175">
        <ele>1839.62</ele>
        <time>2020-03-12T12:43:29Z</time>
      </trkpt>
      <trkpt lat="45.04187" lon="5.87174">
        <ele>1839.62</ele>
        <time>2020-03-12T12:43:30Z</time>
      </trkpt>
      <trkpt lat="45.04186" lon="5.87166">
        <ele>1839.14</ele>
        <time>2020-03-12T12:43:41Z</time>
      </trkpt>
      <trkpt lat="45.04186" lon="5.87166">
        <ele>1830.97</ele>
        <time>2020-03-12T12:43:51Z</time>
      </trkpt>
      <trkpt lat="45.04185" lon="5.87166">
        <ele>1845.39</ele>
        <time>2020-03-12T12:43:52Z</time>
      </trkpt>
      <trkpt lat="45.04185" lon="5.87166">
        <ele>1839.62</ele>
        <time>2020-03-12T12:43:53Z</time>
      </trkpt>
      <trkpt lat="45.04186" lon="5.87167">
        <ele>1838.66</ele>
        <time>2020-03-12T12:43:55Z</time>
      </trkpt>
      <trkpt lat="45.04186" lon="5.87167">
        <ele>1829.53</ele>
        <time>2020-03-12T12:43:58Z</time>
      </trkpt>
      <trkpt lat="45.04186" lon="5.87167">
        <ele>1845.39</ele>
        <time>2020-03-12T12:43:59Z</time>
      </trkpt>
      <trkpt lat="45.04186" lon="5.87167">
        <ele>1839.62</ele>
        <time>2020-03-12T12:44:00Z</time>
      </trkpt>
      <trkpt lat="45.04186" lon="5.87167">
        <ele>1833.85</ele>
        <time>2020-03-12T12:44:01Z</time>
      </trkpt>
      <trkpt lat="45.04186" lon="5.87167">
        <ele>1845.39</ele>
        <time>2020-03-12T12:44:02Z</time>
      </trkpt>
      <trkpt lat="45.04186" lon="5.87167">
        <ele>1840.1</ele>
        <time>2020-03-12T12:44:03Z</time>
      </trkpt>
      <trkpt lat="45.04185" lon="5.87161">
        <ele>1838.18</ele>
        <time>2020-03-12T12:44:11Z</time>
      </trkpt>
      <trkpt lat="45.04184" lon="5.87155">
        <ele>1837.7</ele>
        <time>2020-03-12T12:44:15Z</time>
      </trkpt>
      <trkpt lat="45.04173" lon="5.87149">
        <ele>1836.26</ele>
        <time>2020-03-12T12:44:32Z</time>
      </trkpt>
      <trkpt lat="45.04173" lon="5.87149">
        <ele>1836.26</ele>
        <time>2020-03-12T12:45:03Z</time>
      </trkpt>
      <trkpt lat="45.04175" lon="5.8715">
        <ele>1835.77</ele>
        <time>2020-03-12T12:45:30Z</time>
      </trkpt>
      <trkpt lat="45.0418" lon="5.87154">
        <ele>1835.77</ele>
        <time>2020-03-12T12:45:51Z</time>
      </trkpt>
      <trkpt lat="45.04182" lon="5.87156">
        <ele>1837.22</ele>
        <time>2020-03-12T12:46:11Z</time>
      </trkpt>
      <trkpt lat="45.04184" lon="5.87155">
        <ele>1832.41</ele>
        <time>2020-03-12T12:46:15Z</time>
      </trkpt>
      <trkpt lat="45.04185" lon="5.87155">
        <ele>1840.58</ele>
        <time>2020-03-12T12:46:16Z</time>
      </trkpt>
      <trkpt lat="45.04185" lon="5.87156">
        <ele>1837.7</ele>
        <time>2020-03-12T12:46:17Z</time>
      </trkpt>
      <trkpt lat="45.04185" lon="5.87156">
        <ele>1834.33</ele>
        <time>2020-03-12T12:46:19Z</time>
      </trkpt>
      <trkpt lat="45.04185" lon="5.87156">
        <ele>1840.1</ele>
        <time>2020-03-12T12:46:20Z</time>
      </trkpt>
      <trkpt lat="45.04185" lon="5.87157">
        <ele>1838.18</ele>
        <time>2020-03-12T12:46:21Z</time>
      </trkpt>
      <trkpt lat="45.04188" lon="5.87148">
        <ele>1834.81</ele>
        <time>2020-03-12T12:46:32Z</time>
      </trkpt>
      <trkpt lat="45.04188" lon="5.8714">
        <ele>1831.93</ele>
        <time>2020-03-12T12:46:45Z</time>
      </trkpt>
      <trkpt lat="45.04185" lon="5.87132">
        <ele>1830.49</ele>
        <time>2020-03-12T12:46:57Z</time>
      </trkpt>
      <trkpt lat="45.04177" lon="5.87115">
        <ele>1830.01</ele>
        <time>2020-03-12T12:47:10Z</time>
      </trkpt>
      <trkpt lat="45.04174" lon="5.87097">
        <ele>1826.64</ele>
        <time>2020-03-12T12:47:20Z</time>
      </trkpt>
      <trkpt lat="45.04177" lon="5.87079">
        <ele>1824.72</ele>
        <time>2020-03-12T12:47:34Z</time>
      </trkpt>
      <trkpt lat="45.04165" lon="5.87063">
        <ele>1821.35</ele>
        <time>2020-03-12T12:47:49Z</time>
      </trkpt>
      <trkpt lat="45.04153" lon="5.87054">
        <ele>1818.47</ele>
        <time>2020-03-12T12:48:06Z</time>
      </trkpt>
      <trkpt lat="45.04142" lon="5.87034">
        <ele>1815.11</ele>
        <time>2020-03-12T12:48:20Z</time>
      </trkpt>
      <trkpt lat="45.04142" lon="5.87032">
        <ele>1814.63</ele>
        <time>2020-03-12T12:48:21Z</time>
      </trkpt>
      <trkpt lat="45.04142" lon="5.87026">
        <ele>1814.15</ele>
        <time>2020-03-12T12:48:26Z</time>
      </trkpt>
      <trkpt lat="45.04145" lon="5.87011">
        <ele>1811.26</ele>
        <time>2020-03-12T12:48:40Z</time>
      </trkpt>
      <trkpt lat="45.04147" lon="5.87">
        <ele>1809.82</ele>
        <time>2020-03-12T12:48:52Z</time>
      </trkpt>
      <trkpt lat="45.04149" lon="5.86997">
        <ele>1808.38</ele>
        <time>2020-03-12T12:48:57Z</time>
      </trkpt>
      <trkpt lat="45.04145" lon="5.86989">
        <ele>1805.01</ele>
        <time>2020-03-12T12:49:13Z</time>
      </trkpt>
      <trkpt lat="45.04141" lon="5.86978">
        <ele>1802.61</ele>
        <time>2020-03-12T12:49:25Z</time>
      </trkpt>
      <trkpt lat="45.04136" lon="5.86953">
        <ele>1801.17</ele>
        <time>2020-03-12T12:49:40Z</time>
      </trkpt>
      <trkpt lat="45.04128" lon="5.86948">
        <ele>1798.28</ele>
        <time>2020-03-12T12:49:52Z</time>
      </trkpt>
      <trkpt lat="45.04129" lon="5.86927">
        <ele>1795.88</ele>
        <time>2020-03-12T12:50:10Z</time>
      </trkpt>
      <trkpt lat="45.04131" lon="5.86916">
        <ele>1793</ele>
        <time>2020-03-12T12:50:23Z</time>
      </trkpt>
      <trkpt lat="45.04132" lon="5.86913">
        <ele>1792.03</ele>
        <time>2020-03-12T12:50:27Z</time>
      </trkpt>
      <trkpt lat="45.04124" lon="5.86906">
        <ele>1788.67</ele>
        <time>2020-03-12T12:50:40Z</time>
      </trkpt>
      <trkpt lat="45.04119" lon="5.86889">
        <ele>1787.23</ele>
        <time>2020-03-12T12:50:52Z</time>
      </trkpt>
      <trkpt lat="45.04112" lon="5.8687">
        <ele>1783.86</ele>
        <time>2020-03-12T12:51:04Z</time>
      </trkpt>
      <trkpt lat="45.04103" lon="5.86854">
        <ele>1780.02</ele>
        <time>2020-03-12T12:51:17Z</time>
      </trkpt>
      <trkpt lat="45.04102" lon="5.86843">
        <ele>1775.69</ele>
        <time>2020-03-12T12:51:30Z</time>
      </trkpt>
      <trkpt lat="45.04102" lon="5.86843">
        <ele>1776.17</ele>
        <time>2020-03-12T12:51:33Z</time>
      </trkpt>
      <trkpt lat="45.04099" lon="5.86816">
        <ele>1772.33</ele>
        <time>2020-03-12T12:51:47Z</time>
      </trkpt>
      <trkpt lat="45.04098" lon="5.86806">
        <ele>1769.44</ele>
        <time>2020-03-12T12:51:56Z</time>
      </trkpt>
      <trkpt lat="45.04097" lon="5.86799">
        <ele>1766.08</ele>
        <time>2020-03-12T12:52:02Z</time>
      </trkpt>
      <trkpt lat="45.04092" lon="5.86793">
        <ele>1762.23</ele>
        <time>2020-03-12T12:52:11Z</time>
      </trkpt>
      <trkpt lat="45.04086" lon="5.86771">
        <ele>1759.35</ele>
        <time>2020-03-12T12:52:24Z</time>
      </trkpt>
      <trkpt lat="45.04086" lon="5.8676">
        <ele>1757.91</ele>
        <time>2020-03-12T12:52:29Z</time>
      </trkpt>
      <trkpt lat="45.04082" lon="5.86745">
        <ele>1754.06</ele>
        <time>2020-03-12T12:52:42Z</time>
      </trkpt>
      <trkpt lat="45.04082" lon="5.86743">
        <ele>1754.06</ele>
        <time>2020-03-12T12:52:43Z</time>
      </trkpt>
      <trkpt lat="45.04076" lon="5.86746">
        <ele>1754.54</ele>
        <time>2020-03-12T12:52:59Z</time>
      </trkpt>
      <trkpt lat="45.04077" lon="5.86747">
        <ele>1754.06</ele>
        <time>2020-03-12T12:53:25Z</time>
      </trkpt>
      <trkpt lat="45.04077" lon="5.86746">
        <ele>1753.58</ele>
        <time>2020-03-12T12:53:52Z</time>
      </trkpt>
      <trkpt lat="45.04077" lon="5.86746">
        <ele>1753.1</ele>
        <time>2020-03-12T12:54:23Z</time>
      </trkpt>
      <trkpt lat="45.04077" lon="5.86746">
        <ele>1752.62</ele>
        <time>2020-03-12T12:54:46Z</time>
      </trkpt>
      <trkpt lat="45.04076" lon="5.86746">
        <ele>1752.62</ele>
        <time>2020-03-12T12:55:13Z</time>
      </trkpt>
      <trkpt lat="45.04076" lon="5.86746">
        <ele>1752.62</ele>
        <time>2020-03-12T12:55:44Z</time>
      </trkpt>
      <trkpt lat="45.04074" lon="5.86751">
        <ele>1753.1</ele>
        <time>2020-03-12T12:55:56Z</time>
      </trkpt>
      <trkpt lat="45.04069" lon="5.86758">
        <ele>1753.58</ele>
        <time>2020-03-12T12:56:04Z</time>
      </trkpt>
      <trkpt lat="45.04067" lon="5.86773">
        <ele>1753.58</ele>
        <time>2020-03-12T12:56:17Z</time>
      </trkpt>
      <trkpt lat="45.04061" lon="5.86794">
        <ele>1753.1</ele>
        <time>2020-03-12T12:56:32Z</time>
      </trkpt>
      <trkpt lat="45.04061" lon="5.86796">
        <ele>1752.14</ele>
        <time>2020-03-12T12:56:33Z</time>
      </trkpt>
      <trkpt lat="45.04055" lon="5.86836">
        <ele>1753.1</ele>
        <time>2020-03-12T12:56:49Z</time>
      </trkpt>
      <trkpt lat="45.04046" lon="5.8684">
        <ele>1752.14</ele>
        <time>2020-03-12T12:57:02Z</time>
      </trkpt>
      <trkpt lat="45.04037" lon="5.8683">
        <ele>1751.18</ele>
        <time>2020-03-12T12:57:18Z</time>
      </trkpt>
      <trkpt lat="45.04027" lon="5.86816">
        <ele>1749.26</ele>
        <time>2020-03-12T12:57:33Z</time>
      </trkpt>
      <trkpt lat="45.04014" lon="5.868">
        <ele>1747.33</ele>
        <time>2020-03-12T12:57:52Z</time>
      </trkpt>
      <trkpt lat="45.04009" lon="5.86795">
        <ele>1747.33</ele>
        <time>2020-03-12T12:57:59Z</time>
      </trkpt>
      <trkpt lat="45.03973" lon="5.86763">
        <ele>1745.89</ele>
        <time>2020-03-12T12:58:19Z</time>
      </trkpt>
      <trkpt lat="45.03961" lon="5.86754">
        <ele>1743.97</ele>
        <time>2020-03-12T12:58:36Z</time>
      </trkpt>
      <trkpt lat="45.0395" lon="5.86746">
        <ele>1743.01</ele>
        <time>2020-03-12T12:58:53Z</time>
      </trkpt>
      <trkpt lat="45.03929" lon="5.86739">
        <ele>1741.57</ele>
        <time>2020-03-12T12:59:10Z</time>
      </trkpt>
      <trkpt lat="45.03923" lon="5.86739">
        <ele>1740.12</ele>
        <time>2020-03-12T12:59:26Z</time>
      </trkpt>
      <trkpt lat="45.03896" lon="5.86737">
        <ele>1739.16</ele>
        <time>2020-03-12T12:59:41Z</time>
      </trkpt>
      <trkpt lat="45.03873" lon="5.8673">
        <ele>1737.72</ele>
        <time>2020-03-12T12:59:57Z</time>
      </trkpt>
      <trkpt lat="45.03864" lon="5.86729">
        <ele>1736.28</ele>
        <time>2020-03-12T13:00:16Z</time>
      </trkpt>
      <trkpt lat="45.03858" lon="5.86727">
        <ele>1733.88</ele>
        <time>2020-03-12T13:00:33Z</time>
      </trkpt>
      <trkpt lat="45.03852" lon="5.86728">
        <ele>1731.95</ele>
        <time>2020-03-12T13:00:44Z</time>
      </trkpt>
      <trkpt lat="45.03832" lon="5.86722">
        <ele>1730.99</ele>
        <time>2020-03-12T13:01:00Z</time>
      </trkpt>
      <trkpt lat="45.03811" lon="5.86718">
        <ele>1730.51</ele>
        <time>2020-03-12T13:01:15Z</time>
      </trkpt>
      <trkpt lat="45.03785" lon="5.86721">
        <ele>1728.59</ele>
        <time>2020-03-12T13:01:36Z</time>
      </trkpt>
      <trkpt lat="45.03773" lon="5.86721">
        <ele>1728.59</ele>
        <time>2020-03-12T13:01:50Z</time>
      </trkpt>
      <trkpt lat="45.03757" lon="5.86717">
        <ele>1727.15</ele>
        <time>2020-03-12T13:02:04Z</time>
      </trkpt>
      <trkpt lat="45.03738" lon="5.86712">
        <ele>1727.15</ele>
        <time>2020-03-12T13:02:20Z</time>
      </trkpt>
      <trkpt lat="45.03719" lon="5.86707">
        <ele>1726.18</ele>
        <time>2020-03-12T13:02:39Z</time>
      </trkpt>
      <trkpt lat="45.03698" lon="5.86702">
        <ele>1727.15</ele>
        <time>2020-03-12T13:02:59Z</time>
      </trkpt>
      <trkpt lat="45.03678" lon="5.8669">
        <ele>1727.15</ele>
        <time>2020-03-12T13:03:09Z</time>
      </trkpt>
      <trkpt lat="45.03662" lon="5.86687">
        <ele>1727.63</ele>
        <time>2020-03-12T13:03:26Z</time>
      </trkpt>
      <trkpt lat="45.03648" lon="5.86689">
        <ele>1726.67</ele>
        <time>2020-03-12T13:03:45Z</time>
      </trkpt>
      <trkpt lat="45.03628" lon="5.86687">
        <ele>1725.7</ele>
        <time>2020-03-12T13:04:03Z</time>
      </trkpt>
      <trkpt lat="45.03617" lon="5.8668">
        <ele>1725.22</ele>
        <time>2020-03-12T13:04:19Z</time>
      </trkpt>
      <trkpt lat="45.03606" lon="5.86667">
        <ele>1724.74</ele>
        <time>2020-03-12T13:04:35Z</time>
      </trkpt>
      <trkpt lat="45.03591" lon="5.86665">
        <ele>1724.26</ele>
        <time>2020-03-12T13:04:51Z</time>
      </trkpt>
      <trkpt lat="45.03562" lon="5.86659">
        <ele>1724.74</ele>
        <time>2020-03-12T13:05:09Z</time>
      </trkpt>
      <trkpt lat="45.03535" lon="5.86653">
        <ele>1724.74</ele>
        <time>2020-03-12T13:05:25Z</time>
      </trkpt>
      <trkpt lat="45.03521" lon="5.86653">
        <ele>1724.74</ele>
        <time>2020-03-12T13:05:42Z</time>
      </trkpt>
      <trkpt lat="45.0352" lon="5.86654">
        <ele>1724.74</ele>
        <time>2020-03-12T13:06:01Z</time>
      </trkpt>
      <trkpt lat="45.03519" lon="5.86655">
        <ele>1724.74</ele>
        <time>2020-03-12T13:06:26Z</time>
      </trkpt>
      <trkpt lat="45.03512" lon="5.8665">
        <ele>1724.74</ele>
        <time>2020-03-12T13:06:42Z</time>
      </trkpt>
      <trkpt lat="45.03508" lon="5.86648">
        <ele>1724.26</ele>
        <time>2020-03-12T13:06:49Z</time>
      </trkpt>
      <trkpt lat="45.03502" lon="5.86638">
        <ele>1722.82</ele>
        <time>2020-03-12T13:06:59Z</time>
      </trkpt>
      <trkpt lat="45.03501" lon="5.86636">
        <ele>1723.3</ele>
        <time>2020-03-12T13:07:01Z</time>
      </trkpt>
      <trkpt lat="45.03495" lon="5.86616">
        <ele>1723.3</ele>
        <time>2020-03-12T13:07:16Z</time>
      </trkpt>
      <trkpt lat="45.03494" lon="5.86611">
        <ele>1721.86</ele>
        <time>2020-03-12T13:07:34Z</time>
      </trkpt>
      <trkpt lat="45.03495" lon="5.8661">
        <ele>1721.38</ele>
        <time>2020-03-12T13:07:59Z</time>
      </trkpt>
      <trkpt lat="45.03494" lon="5.8661">
        <ele>1721.38</ele>
        <time>2020-03-12T13:08:24Z</time>
      </trkpt>
      <trkpt lat="45.03493" lon="5.86609">
        <ele>1720.9</ele>
        <time>2020-03-12T13:08:52Z</time>
      </trkpt>
      <trkpt lat="45.03493" lon="5.8661">
        <ele>1720.9</ele>
        <time>2020-03-12T13:09:21Z</time>
      </trkpt>
      <trkpt lat="45.03486" lon="5.86591">
        <ele>1718.97</ele>
        <time>2020-03-12T13:09:40Z</time>
      </trkpt>
      <trkpt lat="45.03481" lon="5.86574">
        <ele>1715.61</ele>
        <time>2020-03-12T13:09:57Z</time>
      </trkpt>
      <trkpt lat="45.03476" lon="5.86561">
        <ele>1712.25</ele>
        <time>2020-03-12T13:10:12Z</time>
      </trkpt>
      <trkpt lat="45.03471" lon="5.86553">
        <ele>1710.32</ele>
        <time>2020-03-12T13:10:21Z</time>
      </trkpt>
      <trkpt lat="45.03469" lon="5.86551">
        <ele>1710.32</ele>
        <time>2020-03-12T13:10:22Z</time>
      </trkpt>
      <trkpt lat="45.03452" lon="5.86525">
        <ele>1706.96</ele>
        <time>2020-03-12T13:10:38Z</time>
      </trkpt>
      <trkpt lat="45.03443" lon="5.86511">
        <ele>1705.52</ele>
        <time>2020-03-12T13:10:52Z</time>
      </trkpt>
      <trkpt lat="45.03429" lon="5.86514">
        <ele>1703.59</ele>
        <time>2020-03-12T13:11:06Z</time>
      </trkpt>
      <trkpt lat="45.0342" lon="5.86511">
        <ele>1699.75</ele>
        <time>2020-03-12T13:11:11Z</time>
      </trkpt>
      <trkpt lat="45.03419" lon="5.86511">
        <ele>1702.63</ele>
        <time>2020-03-12T13:11:12Z</time>
      </trkpt>
      <trkpt lat="45.03418" lon="5.86512">
        <ele>1697.34</ele>
        <time>2020-03-12T13:11:14Z</time>
      </trkpt>
      <trkpt lat="45.03418" lon="5.86513">
        <ele>1707.92</ele>
        <time>2020-03-12T13:11:15Z</time>
      </trkpt>
      <trkpt lat="45.03417" lon="5.86514">
        <ele>1704.55</ele>
        <time>2020-03-12T13:11:17Z</time>
      </trkpt>
      <trkpt lat="45.03417" lon="5.86515">
        <ele>1703.59</ele>
        <time>2020-03-12T13:11:18Z</time>
      </trkpt>
      <trkpt lat="45.03416" lon="5.86512">
        <ele>1703.11</ele>
        <time>2020-03-12T13:11:35Z</time>
      </trkpt>
      <trkpt lat="45.03416" lon="5.86512">
        <ele>1704.07</ele>
        <time>2020-03-12T13:11:41Z</time>
      </trkpt>
      <trkpt lat="45.03416" lon="5.86511">
        <ele>1703.11</ele>
        <time>2020-03-12T13:11:43Z</time>
      </trkpt>
      <trkpt lat="45.03417" lon="5.86511">
        <ele>1702.63</ele>
        <time>2020-03-12T13:12:10Z</time>
      </trkpt>
      <trkpt lat="45.03419" lon="5.86511">
        <ele>1703.11</ele>
        <time>2020-03-12T13:12:34Z</time>
      </trkpt>
      <trkpt lat="45.03419" lon="5.86509">
        <ele>1702.63</ele>
        <time>2020-03-12T13:13:05Z</time>
      </trkpt>
      <trkpt lat="45.03419" lon="5.86509">
        <ele>1701.19</ele>
        <time>2020-03-12T13:13:16Z</time>
      </trkpt>
      <trkpt lat="45.03419" lon="5.86509">
        <ele>1705.52</ele>
        <time>2020-03-12T13:13:18Z</time>
      </trkpt>
      <trkpt lat="45.03419" lon="5.86509">
        <ele>1702.63</ele>
        <time>2020-03-12T13:13:19Z</time>
      </trkpt>
      <trkpt lat="45.03421" lon="5.86508">
        <ele>1703.11</ele>
        <time>2020-03-12T13:13:45Z</time>
      </trkpt>
      <trkpt lat="45.03405" lon="5.86491">
        <ele>1702.63</ele>
        <time>2020-03-12T13:14:05Z</time>
      </trkpt>
      <trkpt lat="45.03411" lon="5.86495">
        <ele>1703.11</ele>
        <time>2020-03-12T13:14:32Z</time>
      </trkpt>
      <trkpt lat="45.03414" lon="5.865">
        <ele>1703.11</ele>
        <time>2020-03-12T13:14:59Z</time>
      </trkpt>
      <trkpt lat="45.03413" lon="5.86503">
        <ele>1702.63</ele>
        <time>2020-03-12T13:15:20Z</time>
      </trkpt>
      <trkpt lat="45.03417" lon="5.86529">
        <ele>1700.23</ele>
        <time>2020-03-12T13:15:38Z</time>
      </trkpt>
      <trkpt lat="45.03419" lon="5.86546">
        <ele>1696.86</ele>
        <time>2020-03-12T13:15:50Z</time>
      </trkpt>
      <trkpt lat="45.03421" lon="5.86562">
        <ele>1695.42</ele>
        <time>2020-03-12T13:16:05Z</time>
      </trkpt>
      <trkpt lat="45.03427" lon="5.86576">
        <ele>1692.54</ele>
        <time>2020-03-12T13:16:24Z</time>
      </trkpt>
      <trkpt lat="45.03427" lon="5.86578">
        <ele>1690.62</ele>
        <time>2020-03-12T13:16:46Z</time>
      </trkpt>
      <trkpt lat="45.03423" lon="5.86578">
        <ele>1687.25</ele>
        <time>2020-03-12T13:17:00Z</time>
      </trkpt>
      <trkpt lat="45.03424" lon="5.86599">
        <ele>1685.33</ele>
        <time>2020-03-12T13:17:16Z</time>
      </trkpt>
      <trkpt lat="45.03422" lon="5.8661">
        <ele>1681.96</ele>
        <time>2020-03-12T13:17:27Z</time>
      </trkpt>
      <trkpt lat="45.03421" lon="5.86632">
        <ele>1678.6</ele>
        <time>2020-03-12T13:17:41Z</time>
      </trkpt>
      <trkpt lat="45.03423" lon="5.86641">
        <ele>1675.72</ele>
        <time>2020-03-12T13:17:54Z</time>
      </trkpt>
      <trkpt lat="45.03424" lon="5.86645">
        <ele>1674.27</ele>
        <time>2020-03-12T13:17:57Z</time>
      </trkpt>
      <trkpt lat="45.03423" lon="5.8666">
        <ele>1671.39</ele>
        <time>2020-03-12T13:18:12Z</time>
      </trkpt>
      <trkpt lat="45.03422" lon="5.86674">
        <ele>1668.51</ele>
        <time>2020-03-12T13:18:27Z</time>
      </trkpt>
      <trkpt lat="45.03424" lon="5.86683">
        <ele>1665.14</ele>
        <time>2020-03-12T13:18:44Z</time>
      </trkpt>
      <trkpt lat="45.03422" lon="5.86696">
        <ele>1662.74</ele>
        <time>2020-03-12T13:19:05Z</time>
      </trkpt>
      <trkpt lat="45.03422" lon="5.867">
        <ele>1661.78</ele>
        <time>2020-03-12T13:19:09Z</time>
      </trkpt>
      <trkpt lat="45.03427" lon="5.86711">
        <ele>1661.78</ele>
        <time>2020-03-12T13:19:14Z</time>
      </trkpt>
      <trkpt lat="45.03426" lon="5.86732">
        <ele>1659.85</ele>
        <time>2020-03-12T13:19:22Z</time>
      </trkpt>
      <trkpt lat="45.03426" lon="5.86755">
        <ele>1656.97</ele>
        <time>2020-03-12T13:19:37Z</time>
      </trkpt>
      <trkpt lat="45.03424" lon="5.86767">
        <ele>1655.05</ele>
        <time>2020-03-12T13:19:50Z</time>
      </trkpt>
      <trkpt lat="45.03424" lon="5.86778">
        <ele>1652.16</ele>
        <time>2020-03-12T13:20:03Z</time>
      </trkpt>
      <trkpt lat="45.03425" lon="5.86799">
        <ele>1650.24</ele>
        <time>2020-03-12T13:20:21Z</time>
      </trkpt>
      <trkpt lat="45.03425" lon="5.8682">
        <ele>1646.88</ele>
        <time>2020-03-12T13:20:33Z</time>
      </trkpt>
      <trkpt lat="45.03428" lon="5.86836">
        <ele>1644.95</ele>
        <time>2020-03-12T13:20:48Z</time>
      </trkpt>
      <trkpt lat="45.03428" lon="5.86845">
        <ele>1642.07</ele>
        <time>2020-03-12T13:20:59Z</time>
      </trkpt>
      <trkpt lat="45.03427" lon="5.86855">
        <ele>1638.7</ele>
        <time>2020-03-12T13:21:15Z</time>
      </trkpt>
      <trkpt lat="45.03432" lon="5.86884">
        <ele>1635.34</ele>
        <time>2020-03-12T13:21:26Z</time>
      </trkpt>
      <trkpt lat="45.03434" lon="5.86901">
        <ele>1632.94</ele>
        <time>2020-03-12T13:21:41Z</time>
      </trkpt>
      <trkpt lat="45.03433" lon="5.86918">
        <ele>1630.05</ele>
        <time>2020-03-12T13:21:56Z</time>
      </trkpt>
      <trkpt lat="45.03432" lon="5.86923">
        <ele>1628.13</ele>
        <time>2020-03-12T13:22:04Z</time>
      </trkpt>
      <trkpt lat="45.03423" lon="5.86926">
        <ele>1623.8</ele>
        <time>2020-03-12T13:22:16Z</time>
      </trkpt>
      <trkpt lat="45.03411" lon="5.86929">
        <ele>1621.4</ele>
        <time>2020-03-12T13:22:33Z</time>
      </trkpt>
      <trkpt lat="45.034" lon="5.86929">
        <ele>1618.04</ele>
        <time>2020-03-12T13:22:45Z</time>
      </trkpt>
      <trkpt lat="45.03399" lon="5.86929">
        <ele>1617.56</ele>
        <time>2020-03-12T13:22:46Z</time>
      </trkpt>
      <trkpt lat="45.03385" lon="5.86924">
        <ele>1617.56</ele>
        <time>2020-03-12T13:22:59Z</time>
      </trkpt>
      <trkpt lat="45.03377" lon="5.86914">
        <ele>1616.59</ele>
        <time>2020-03-12T13:23:10Z</time>
      </trkpt>
      <trkpt lat="45.03373" lon="5.86905">
        <ele>1614.19</ele>
        <time>2020-03-12T13:23:20Z</time>
      </trkpt>
      <trkpt lat="45.03372" lon="5.86907">
        <ele>1612.75</ele>
        <time>2020-03-12T13:23:34Z</time>
      </trkpt>
      <trkpt lat="45.03367" lon="5.86909">
        <ele>1612.27</ele>
        <time>2020-03-12T13:23:39Z</time>
      </trkpt>
      <trkpt lat="45.03358" lon="5.86907">
        <ele>1610.35</ele>
        <time>2020-03-12T13:23:47Z</time>
      </trkpt>
      <trkpt lat="45.03354" lon="5.86906">
        <ele>1610.83</ele>
        <time>2020-03-12T13:24:00Z</time>
      </trkpt>
      <trkpt lat="45.03354" lon="5.86907">
        <ele>1611.79</ele>
        <time>2020-03-12T13:24:35Z</time>
      </trkpt>
      <trkpt lat="45.03354" lon="5.86909">
        <ele>1614.19</ele>
        <time>2020-03-12T13:25:09Z</time>
      </trkpt>
      <trkpt lat="45.03354" lon="5.86909">
        <ele>1612.27</ele>
        <time>2020-03-12T13:25:39Z</time>
      </trkpt>
      <trkpt lat="45.03354" lon="5.86909">
        <ele>1611.31</ele>
        <time>2020-03-12T13:26:08Z</time>
      </trkpt>
      <trkpt lat="45.03354" lon="5.8691">
        <ele>1610.83</ele>
        <time>2020-03-12T13:26:38Z</time>
      </trkpt>
      <trkpt lat="45.03354" lon="5.8691">
        <ele>1610.35</ele>
        <time>2020-03-12T13:27:11Z</time>
      </trkpt>
      <trkpt lat="45.03354" lon="5.86909">
        <ele>1612.27</ele>
        <time>2020-03-12T13:27:40Z</time>
      </trkpt>
      <trkpt lat="45.03354" lon="5.86909">
        <ele>1609.38</ele>
        <time>2020-03-12T13:28:10Z</time>
      </trkpt>
      <trkpt lat="45.03353" lon="5.86913">
        <ele>1609.86</ele>
        <time>2020-03-12T13:28:36Z</time>
      </trkpt>
      <trkpt lat="45.03353" lon="5.86915">
        <ele>1611.31</ele>
        <time>2020-03-12T13:28:52Z</time>
      </trkpt>
      <trkpt lat="45.03352" lon="5.86939">
        <ele>1612.27</ele>
        <time>2020-03-12T13:29:19Z</time>
      </trkpt>
      <trkpt lat="45.03353" lon="5.86899">
        <ele>1611.31</ele>
        <time>2020-03-12T13:29:35Z</time>
      </trkpt>
      <trkpt lat="45.03358" lon="5.86907">
        <ele>1610.83</ele>
        <time>2020-03-12T13:30:03Z</time>
      </trkpt>
      <trkpt lat="45.03356" lon="5.86905">
        <ele>1610.35</ele>
        <time>2020-03-12T13:30:28Z</time>
      </trkpt>
      <trkpt lat="45.03355" lon="5.86908">
        <ele>1611.31</ele>
        <time>2020-03-12T13:30:55Z</time>
      </trkpt>
      <trkpt lat="45.03354" lon="5.86906">
        <ele>1610.83</ele>
        <time>2020-03-12T13:31:19Z</time>
      </trkpt>
      <trkpt lat="45.03354" lon="5.86906">
        <ele>1603.62</ele>
        <time>2020-03-12T13:31:21Z</time>
      </trkpt>
      <trkpt lat="45.03354" lon="5.86906">
        <ele>1614.67</ele>
        <time>2020-03-12T13:31:22Z</time>
      </trkpt>
      <trkpt lat="45.03354" lon="5.86906">
        <ele>1610.35</ele>
        <time>2020-03-12T13:31:23Z</time>
      </trkpt>
      <trkpt lat="45.03354" lon="5.86905">
        <ele>1604.1</ele>
        <time>2020-03-12T13:31:24Z</time>
      </trkpt>
      <trkpt lat="45.03354" lon="5.86905">
        <ele>1615.15</ele>
        <time>2020-03-12T13:31:25Z</time>
      </trkpt>
      <trkpt lat="45.03354" lon="5.86905">
        <ele>1606.02</ele>
        <time>2020-03-12T13:31:26Z</time>
      </trkpt>
      <trkpt lat="45.03354" lon="5.86905">
        <ele>1612.75</ele>
        <time>2020-03-12T13:31:27Z</time>
      </trkpt>
      <trkpt lat="45.03354" lon="5.86905">
        <ele>1609.38</ele>
        <time>2020-03-12T13:31:29Z</time>
      </trkpt>
      <trkpt lat="45.03354" lon="5.86905">
        <ele>1602.66</ele>
        <time>2020-03-12T13:31:41Z</time>
      </trkpt>
      <trkpt lat="45.03354" lon="5.86905">
        <ele>1616.59</ele>
        <time>2020-03-12T13:31:42Z</time>
      </trkpt>
      <trkpt lat="45.03354" lon="5.86905">
        <ele>1610.35</ele>
        <time>2020-03-12T13:31:43Z</time>
      </trkpt>
      <trkpt lat="45.03354" lon="5.86905">
        <ele>1604.58</ele>
        <time>2020-03-12T13:31:49Z</time>
      </trkpt>
      <trkpt lat="45.03354" lon="5.86905">
        <ele>1607.46</ele>
        <time>2020-03-12T13:31:50Z</time>
      </trkpt>
      <trkpt lat="45.03354" lon="5.86905">
        <ele>1602.66</ele>
        <time>2020-03-12T13:31:51Z</time>
      </trkpt>
      <trkpt lat="45.03354" lon="5.86904">
        <ele>1620.92</ele>
        <time>2020-03-12T13:31:52Z</time>
      </trkpt>
      <trkpt lat="45.03354" lon="5.86904">
        <ele>1609.38</ele>
        <time>2020-03-12T13:31:53Z</time>
      </trkpt>
      <trkpt lat="45.03354" lon="5.86904">
        <ele>1616.11</ele>
        <time>2020-03-12T13:31:54Z</time>
      </trkpt>
      <trkpt lat="45.03354" lon="5.86905">
        <ele>1611.31</ele>
        <time>2020-03-12T13:31:55Z</time>
      </trkpt>
      <trkpt lat="45.03354" lon="5.86905">
        <ele>1604.58</ele>
        <time>2020-03-12T13:31:58Z</time>
      </trkpt>
      <trkpt lat="45.03354" lon="5.86905">
        <ele>1613.71</ele>
        <time>2020-03-12T13:31:59Z</time>
      </trkpt>
      <trkpt lat="45.03354" lon="5.86905">
        <ele>1610.83</ele>
        <time>2020-03-12T13:32:00Z</time>
      </trkpt>
      <trkpt lat="45.03354" lon="5.86905">
        <ele>1603.14</ele>
        <time>2020-03-12T13:32:01Z</time>
      </trkpt>
      <trkpt lat="45.03354" lon="5.86905">
        <ele>1617.07</ele>
        <time>2020-03-12T13:32:02Z</time>
      </trkpt>
      <trkpt lat="45.03354" lon="5.86905">
        <ele>1606.5</ele>
        <time>2020-03-12T13:32:03Z</time>
      </trkpt>
      <trkpt lat="45.03354" lon="5.86905">
        <ele>1619.96</ele>
        <time>2020-03-12T13:32:04Z</time>
      </trkpt>
      <trkpt lat="45.03354" lon="5.86905">
        <ele>1611.31</ele>
        <time>2020-03-12T13:32:05Z</time>
      </trkpt>
      <trkpt lat="45.03354" lon="5.86905">
        <ele>1610.35</ele>
        <time>2020-03-12T13:32:07Z</time>
      </trkpt>
      <trkpt lat="45.03354" lon="5.86904">
        <ele>1600.25</ele>
        <time>2020-03-12T13:32:20Z</time>
      </trkpt>
      <trkpt lat="45.03354" lon="5.86904">
        <ele>1616.59</ele>
        <time>2020-03-12T13:32:21Z</time>
      </trkpt>
      <trkpt lat="45.03354" lon="5.86905">
        <ele>1612.75</ele>
        <time>2020-03-12T13:32:22Z</time>
      </trkpt>
      <trkpt lat="45.03355" lon="5.86904">
        <ele>1608.9</ele>
        <time>2020-03-12T13:32:25Z</time>
      </trkpt>
      <trkpt lat="45.03355" lon="5.86904">
        <ele>1614.67</ele>
        <time>2020-03-12T13:32:27Z</time>
      </trkpt>
      <trkpt lat="45.03355" lon="5.86904">
        <ele>1603.62</ele>
        <time>2020-03-12T13:32:28Z</time>
      </trkpt>
      <trkpt lat="45.03355" lon="5.86904">
        <ele>1616.11</ele>
        <time>2020-03-12T13:32:29Z</time>
      </trkpt>
      <trkpt lat="45.03355" lon="5.86904">
        <ele>1608.9</ele>
        <time>2020-03-12T13:32:30Z</time>
      </trkpt>
      <trkpt lat="45.03355" lon="5.86904">
        <ele>1612.27</ele>
        <time>2020-03-12T13:32:31Z</time>
      </trkpt>
      <trkpt lat="45.03356" lon="5.86904">
        <ele>1608.9</ele>
        <time>2020-03-12T13:32:36Z</time>
      </trkpt>
      <trkpt lat="45.03356" lon="5.86904">
        <ele>1615.15</ele>
        <time>2020-03-12T13:32:39Z</time>
      </trkpt>
      <trkpt lat="45.03356" lon="5.86904">
        <ele>1611.31</ele>
        <time>2020-03-12T13:32:40Z</time>
      </trkpt>
      <trkpt lat="45.03355" lon="5.86904">
        <ele>1610.35</ele>
        <time>2020-03-12T13:32:42Z</time>
      </trkpt>
      <trkpt lat="45.03355" lon="5.86904">
        <ele>1593.04</ele>
        <time>2020-03-12T13:33:01Z</time>
      </trkpt>
      <trkpt lat="45.03355" lon="5.86904">
        <ele>1625.73</ele>
        <time>2020-03-12T13:33:02Z</time>
      </trkpt>
      <trkpt lat="45.03355" lon="5.86904">
        <ele>1614.19</ele>
        <time>2020-03-12T13:33:03Z</time>
      </trkpt>
      <trkpt lat="45.03355" lon="5.86904">
        <ele>1610.83</ele>
        <time>2020-03-12T13:33:05Z</time>
      </trkpt>
      <trkpt lat="45.03355" lon="5.86904">
        <ele>1610.35</ele>
        <time>2020-03-12T13:33:24Z</time>
      </trkpt>
      <trkpt lat="45.03355" lon="5.86904">
        <ele>1599.29</ele>
        <time>2020-03-12T13:33:29Z</time>
      </trkpt>
      <trkpt lat="45.03355" lon="5.86904">
        <ele>1618.52</ele>
        <time>2020-03-12T13:33:30Z</time>
      </trkpt>
      <trkpt lat="45.03355" lon="5.86904">
        <ele>1611.31</ele>
        <time>2020-03-12T13:33:31Z</time>
      </trkpt>
      <trkpt lat="45.03355" lon="5.86904">
        <ele>1604.58</ele>
        <time>2020-03-12T13:33:32Z</time>
      </trkpt>
      <trkpt lat="45.03355" lon="5.86904">
        <ele>1616.11</ele>
        <time>2020-03-12T13:33:33Z</time>
      </trkpt>
      <trkpt lat="45.03355" lon="5.86904">
        <ele>1613.23</ele>
        <time>2020-03-12T13:33:34Z</time>
      </trkpt>
      <trkpt lat="45.03355" lon="5.86904">
        <ele>1610.83</ele>
        <time>2020-03-12T13:33:36Z</time>
      </trkpt>
      <trkpt lat="45.03355" lon="5.86905">
        <ele>1600.73</ele>
        <time>2020-03-12T13:33:54Z</time>
      </trkpt>
      <trkpt lat="45.03355" lon="5.86905">
        <ele>1625.25</ele>
        <time>2020-03-12T13:33:56Z</time>
      </trkpt>
      <trkpt lat="45.03355" lon="5.86905">
        <ele>1607.94</ele>
        <time>2020-03-12T13:33:57Z</time>
      </trkpt>
      <trkpt lat="45.03355" lon="5.86905">
        <ele>1612.75</ele>
        <time>2020-03-12T13:33:58Z</time>
      </trkpt>
      <trkpt lat="45.03355" lon="5.86905">
        <ele>1609.38</ele>
        <time>2020-03-12T13:34:00Z</time>
      </trkpt>
      <trkpt lat="45.03353" lon="5.86906">
        <ele>1610.35</ele>
        <time>2020-03-12T13:34:17Z</time>
      </trkpt>
      <trkpt lat="45.03352" lon="5.86905">
        <ele>1605.54</ele>
        <time>2020-03-12T13:34:30Z</time>
      </trkpt>
      <trkpt lat="45.03352" lon="5.86905">
        <ele>1614.67</ele>
        <time>2020-03-12T13:34:31Z</time>
      </trkpt>
      <trkpt lat="45.03352" lon="5.86905">
        <ele>1610.83</ele>
        <time>2020-03-12T13:34:32Z</time>
      </trkpt>
      <trkpt lat="45.03343" lon="5.86908">
        <ele>1609.86</ele>
        <time>2020-03-12T13:34:45Z</time>
      </trkpt>
      <trkpt lat="45.03342" lon="5.8691">
        <ele>1598.81</ele>
        <time>2020-03-12T13:34:48Z</time>
      </trkpt>
      <trkpt lat="45.03342" lon="5.8691">
        <ele>1620.44</ele>
        <time>2020-03-12T13:34:49Z</time>
      </trkpt>
      <trkpt lat="45.03342" lon="5.86909">
        <ele>1611.31</ele>
        <time>2020-03-12T13:34:50Z</time>
      </trkpt>
      <trkpt lat="45.03333" lon="5.86911">
        <ele>1609.38</ele>
        <time>2020-03-12T13:35:03Z</time>
      </trkpt>
      <trkpt lat="45.03325" lon="5.86906">
        <ele>1603.14</ele>
        <time>2020-03-12T13:35:13Z</time>
      </trkpt>
      <trkpt lat="45.03324" lon="5.86906">
        <ele>1616.11</ele>
        <time>2020-03-12T13:35:14Z</time>
      </trkpt>
      <trkpt lat="45.03323" lon="5.86906">
        <ele>1611.31</ele>
        <time>2020-03-12T13:35:15Z</time>
      </trkpt>
      <trkpt lat="45.03322" lon="5.86905">
        <ele>1608.9</ele>
        <time>2020-03-12T13:35:17Z</time>
      </trkpt>
      <trkpt lat="45.03312" lon="5.86908">
        <ele>1608.42</ele>
        <time>2020-03-12T13:35:30Z</time>
      </trkpt>
      <trkpt lat="45.03309" lon="5.86909">
        <ele>1608.42</ele>
        <time>2020-03-12T13:35:34Z</time>
      </trkpt>
      <trkpt lat="45.03304" lon="5.86912">
        <ele>1612.27</ele>
        <time>2020-03-12T13:35:40Z</time>
      </trkpt>
      <trkpt lat="45.03304" lon="5.86912">
        <ele>1609.38</ele>
        <time>2020-03-12T13:35:41Z</time>
      </trkpt>
      <trkpt lat="45.03296" lon="5.86913">
        <ele>1609.38</ele>
        <time>2020-03-12T13:35:50Z</time>
      </trkpt>
      <trkpt lat="45.03283" lon="5.8691">
        <ele>1608.42</ele>
        <time>2020-03-12T13:36:04Z</time>
      </trkpt>
      <trkpt lat="45.03278" lon="5.86911">
        <ele>1612.75</ele>
        <time>2020-03-12T13:36:10Z</time>
      </trkpt>
      <trkpt lat="45.03278" lon="5.86911">
        <ele>1608.42</ele>
        <time>2020-03-12T13:36:11Z</time>
      </trkpt>
      <trkpt lat="45.03275" lon="5.86912">
        <ele>1604.1</ele>
        <time>2020-03-12T13:36:14Z</time>
      </trkpt>
      <trkpt lat="45.03274" lon="5.86913">
        <ele>1611.31</ele>
        <time>2020-03-12T13:36:15Z</time>
      </trkpt>
      <trkpt lat="45.03273" lon="5.86913">
        <ele>1591.12</ele>
        <time>2020-03-12T13:36:16Z</time>
      </trkpt>
      <trkpt lat="45.03272" lon="5.86913">
        <ele>1623.32</ele>
        <time>2020-03-12T13:36:17Z</time>
      </trkpt>
      <trkpt lat="45.03271" lon="5.86913">
        <ele>1608.42</ele>
        <time>2020-03-12T13:36:18Z</time>
      </trkpt>
      <trkpt lat="45.03265" lon="5.86916">
        <ele>1605.06</ele>
        <time>2020-03-12T13:36:26Z</time>
      </trkpt>
      <trkpt lat="45.03261" lon="5.86915">
        <ele>1588.24</ele>
        <time>2020-03-12T13:36:32Z</time>
      </trkpt>
      <trkpt lat="45.0326" lon="5.86915">
        <ele>1619.48</ele>
        <time>2020-03-12T13:36:33Z</time>
      </trkpt>
      <trkpt lat="45.0326" lon="5.86916">
        <ele>1606.5</ele>
        <time>2020-03-12T13:36:34Z</time>
      </trkpt>
      <trkpt lat="45.03258" lon="5.86916">
        <ele>1604.58</ele>
        <time>2020-03-12T13:36:36Z</time>
      </trkpt>
      <trkpt lat="45.03258" lon="5.86912">
        <ele>1604.58</ele>
        <time>2020-03-12T13:36:46Z</time>
      </trkpt>
      <trkpt lat="45.03257" lon="5.86907">
        <ele>1595.45</ele>
        <time>2020-03-12T13:36:54Z</time>
      </trkpt>
      <trkpt lat="45.03257" lon="5.86906">
        <ele>1614.19</ele>
        <time>2020-03-12T13:36:55Z</time>
      </trkpt>
      <trkpt lat="45.03257" lon="5.86905">
        <ele>1606.02</ele>
        <time>2020-03-12T13:36:56Z</time>
      </trkpt>
      <trkpt lat="45.03258" lon="5.86904">
        <ele>1605.06</ele>
        <time>2020-03-12T13:36:58Z</time>
      </trkpt>
      <trkpt lat="45.03259" lon="5.86898">
        <ele>1605.06</ele>
        <time>2020-03-12T13:37:08Z</time>
      </trkpt>
      <trkpt lat="45.03259" lon="5.86893">
        <ele>1605.06</ele>
        <time>2020-03-12T13:37:20Z</time>
      </trkpt>
      <trkpt lat="45.0326" lon="5.86885">
        <ele>1604.1</ele>
        <time>2020-03-12T13:37:33Z</time>
      </trkpt>
      <trkpt lat="45.03256" lon="5.86881">
        <ele>1603.62</ele>
        <time>2020-03-12T13:37:46Z</time>
      </trkpt>
      <trkpt lat="45.03249" lon="5.86879">
        <ele>1600.73</ele>
        <time>2020-03-12T13:37:57Z</time>
      </trkpt>
      <trkpt lat="45.03249" lon="5.86878">
        <ele>1611.31</ele>
        <time>2020-03-12T13:38:00Z</time>
      </trkpt>
      <trkpt lat="45.03249" lon="5.86878">
        <ele>1590.16</ele>
        <time>2020-03-12T13:38:01Z</time>
      </trkpt>
      <trkpt lat="45.03249" lon="5.86877">
        <ele>1610.35</ele>
        <time>2020-03-12T13:38:02Z</time>
      </trkpt>
      <trkpt lat="45.03249" lon="5.86876">
        <ele>1601.69</ele>
        <time>2020-03-12T13:38:03Z</time>
      </trkpt>
      <trkpt lat="45.03248" lon="5.86874">
        <ele>1600.25</ele>
        <time>2020-03-12T13:38:05Z</time>
      </trkpt>
      <trkpt lat="45.03249" lon="5.86863">
        <ele>1600.25</ele>
        <time>2020-03-12T13:38:18Z</time>
      </trkpt>
      <trkpt lat="45.03251" lon="5.86855">
        <ele>1598.81</ele>
        <time>2020-03-12T13:38:27Z</time>
      </trkpt>
      <trkpt lat="45.03252" lon="5.8684">
        <ele>1596.89</ele>
        <time>2020-03-12T13:38:41Z</time>
      </trkpt>
      <trkpt lat="45.03253" lon="5.86834">
        <ele>1594</ele>
        <time>2020-03-12T13:38:49Z</time>
      </trkpt>
      <trkpt lat="45.03245" lon="5.86812">
        <ele>1593.04</ele>
        <time>2020-03-12T13:39:06Z</time>
      </trkpt>
      <trkpt lat="45.03241" lon="5.86792">
        <ele>1592.08</ele>
        <time>2020-03-12T13:39:20Z</time>
      </trkpt>
      <trkpt lat="45.03242" lon="5.86774">
        <ele>1592.08</ele>
        <time>2020-03-12T13:39:34Z</time>
      </trkpt>
      <trkpt lat="45.0324" lon="5.86763">
        <ele>1591.12</ele>
        <time>2020-03-12T13:39:44Z</time>
      </trkpt>
      <trkpt lat="45.0324" lon="5.86758">
        <ele>1591.12</ele>
        <time>2020-03-12T13:39:48Z</time>
      </trkpt>
      <trkpt lat="45.03236" lon="5.86751">
        <ele>1590.16</ele>
        <time>2020-03-12T13:40:00Z</time>
      </trkpt>
      <trkpt lat="45.03229" lon="5.86732">
        <ele>1588.72</ele>
        <time>2020-03-12T13:40:15Z</time>
      </trkpt>
      <trkpt lat="45.03225" lon="5.86718">
        <ele>1590.16</ele>
        <time>2020-03-12T13:40:28Z</time>
      </trkpt>
      <trkpt lat="45.03221" lon="5.86707">
        <ele>1586.79</ele>
        <time>2020-03-12T13:40:40Z</time>
      </trkpt>
      <trkpt lat="45.03218" lon="5.86698">
        <ele>1585.83</ele>
        <time>2020-03-12T13:40:45Z</time>
      </trkpt>
      <trkpt lat="45.03205" lon="5.86681">
        <ele>1584.39</ele>
        <time>2020-03-12T13:41:04Z</time>
      </trkpt>
      <trkpt lat="45.032" lon="5.86674">
        <ele>1581.99</ele>
        <time>2020-03-12T13:41:22Z</time>
      </trkpt>
      <trkpt lat="45.03201" lon="5.86673">
        <ele>1581.51</ele>
        <time>2020-03-12T13:41:47Z</time>
      </trkpt>
      <trkpt lat="45.032" lon="5.8667">
        <ele>1581.51</ele>
        <time>2020-03-12T13:42:13Z</time>
      </trkpt>
      <trkpt lat="45.03197" lon="5.86665">
        <ele>1580.06</ele>
        <time>2020-03-12T13:42:32Z</time>
      </trkpt>
      <trkpt lat="45.03192" lon="5.86661">
        <ele>1578.62</ele>
        <time>2020-03-12T13:42:40Z</time>
      </trkpt>
      <trkpt lat="45.03172" lon="5.86644">
        <ele>1576.7</ele>
        <time>2020-03-12T13:42:56Z</time>
      </trkpt>
      <trkpt lat="45.03159" lon="5.86634">
        <ele>1574.78</ele>
        <time>2020-03-12T13:43:10Z</time>
      </trkpt>
      <trkpt lat="45.03145" lon="5.86631">
        <ele>1571.41</ele>
        <time>2020-03-12T13:43:27Z</time>
      </trkpt>
      <trkpt lat="45.03134" lon="5.8663">
        <ele>1570.45</ele>
        <time>2020-03-12T13:43:43Z</time>
      </trkpt>
      <trkpt lat="45.03126" lon="5.86626">
        <ele>1568.05</ele>
        <time>2020-03-12T13:43:49Z</time>
      </trkpt>
      <trkpt lat="45.0311" lon="5.86626">
        <ele>1568.05</ele>
        <time>2020-03-12T13:44:05Z</time>
      </trkpt>
      <trkpt lat="45.03098" lon="5.86623">
        <ele>1565.16</ele>
        <time>2020-03-12T13:44:22Z</time>
      </trkpt>
      <trkpt lat="45.03083" lon="5.86617">
        <ele>1563.72</ele>
        <time>2020-03-12T13:44:39Z</time>
      </trkpt>
      <trkpt lat="45.03064" lon="5.86612">
        <ele>1560.36</ele>
        <time>2020-03-12T13:44:56Z</time>
      </trkpt>
      <trkpt lat="45.03049" lon="5.86607">
        <ele>1558.92</ele>
        <time>2020-03-12T13:45:11Z</time>
      </trkpt>
      <trkpt lat="45.03047" lon="5.86607">
        <ele>1557.95</ele>
        <time>2020-03-12T13:45:13Z</time>
      </trkpt>
      <trkpt lat="45.03034" lon="5.86605">
        <ele>1554.59</ele>
        <time>2020-03-12T13:45:30Z</time>
      </trkpt>
      <trkpt lat="45.03026" lon="5.86602">
        <ele>1551.71</ele>
        <time>2020-03-12T13:45:40Z</time>
      </trkpt>
      <trkpt lat="45.03017" lon="5.86593">
        <ele>1548.34</ele>
        <time>2020-03-12T13:45:49Z</time>
      </trkpt>
      <trkpt lat="45.03003" lon="5.86598">
        <ele>1549.3</ele>
        <time>2020-03-12T13:46:03Z</time>
      </trkpt>
      <trkpt lat="45.02998" lon="5.86598">
        <ele>1549.3</ele>
        <time>2020-03-12T13:46:20Z</time>
      </trkpt>
      <trkpt lat="45.02994" lon="5.86594">
        <ele>1547.86</ele>
        <time>2020-03-12T13:46:38Z</time>
      </trkpt>
      <trkpt lat="45.02984" lon="5.86589">
        <ele>1545.94</ele>
        <time>2020-03-12T13:46:52Z</time>
      </trkpt>
      <trkpt lat="45.02977" lon="5.86591">
        <ele>1544.5</ele>
        <time>2020-03-12T13:47:05Z</time>
      </trkpt>
      <trkpt lat="45.02975" lon="5.86591">
        <ele>1544.01</ele>
        <time>2020-03-12T13:47:19Z</time>
      </trkpt>
      <trkpt lat="45.02975" lon="5.86589">
        <ele>1543.05</ele>
        <time>2020-03-12T13:47:39Z</time>
      </trkpt>
      <trkpt lat="45.02977" lon="5.86586">
        <ele>1538.73</ele>
        <time>2020-03-12T13:47:52Z</time>
      </trkpt>
      <trkpt lat="45.02977" lon="5.86586">
        <ele>1544.98</ele>
        <time>2020-03-12T13:47:54Z</time>
      </trkpt>
      <trkpt lat="45.02977" lon="5.86585">
        <ele>1542.09</ele>
        <time>2020-03-12T13:47:55Z</time>
      </trkpt>
      <trkpt lat="45.02979" lon="5.86582">
        <ele>1542.57</ele>
        <time>2020-03-12T13:48:09Z</time>
      </trkpt>
      <trkpt lat="45.0298" lon="5.86581">
        <ele>1540.17</ele>
        <time>2020-03-12T13:48:12Z</time>
      </trkpt>
      <trkpt lat="45.0298" lon="5.8658">
        <ele>1542.09</ele>
        <time>2020-03-12T13:48:14Z</time>
      </trkpt>
      <trkpt lat="45.02979" lon="5.86578">
        <ele>1540.65</ele>
        <time>2020-03-12T13:48:17Z</time>
      </trkpt>
      <trkpt lat="45.02978" lon="5.86578">
        <ele>1539.21</ele>
        <time>2020-03-12T13:48:19Z</time>
      </trkpt>
      <trkpt lat="45.02972" lon="5.86579">
        <ele>1536.8</ele>
        <time>2020-03-12T13:48:36Z</time>
      </trkpt>
      <trkpt lat="45.02964" lon="5.8658">
        <ele>1534.4</ele>
        <time>2020-03-12T13:48:50Z</time>
      </trkpt>
      <trkpt lat="45.02958" lon="5.86577">
        <ele>1531.04</ele>
        <time>2020-03-12T13:49:07Z</time>
      </trkpt>
      <trkpt lat="45.02951" lon="5.86577">
        <ele>1528.63</ele>
        <time>2020-03-12T13:49:21Z</time>
      </trkpt>
      <trkpt lat="45.02949" lon="5.86571">
        <ele>1525.27</ele>
        <time>2020-03-12T13:49:30Z</time>
      </trkpt>
      <trkpt lat="45.02945" lon="5.86563">
        <ele>1522.87</ele>
        <time>2020-03-12T13:49:40Z</time>
      </trkpt>
      <trkpt lat="45.02937" lon="5.86562">
        <ele>1519.98</ele>
        <time>2020-03-12T13:49:51Z</time>
      </trkpt>
      <trkpt lat="45.02934" lon="5.86559">
        <ele>1519.5</ele>
        <time>2020-03-12T13:50:17Z</time>
      </trkpt>
      <trkpt lat="45.02934" lon="5.86558">
        <ele>1519.02</ele>
        <time>2020-03-12T13:50:44Z</time>
      </trkpt>
      <trkpt lat="45.02938" lon="5.86561">
        <ele>1519.02</ele>
        <time>2020-03-12T13:51:10Z</time>
      </trkpt>
      <trkpt lat="45.02937" lon="5.86569">
        <ele>1517.58</ele>
        <time>2020-03-12T13:51:43Z</time>
      </trkpt>
      <trkpt lat="45.02937" lon="5.8657">
        <ele>1519.02</ele>
        <time>2020-03-12T13:51:45Z</time>
      </trkpt>
      <trkpt lat="45.02935" lon="5.86571">
        <ele>1515.66</ele>
        <time>2020-03-12T13:52:05Z</time>
      </trkpt>
      <trkpt lat="45.02923" lon="5.86562">
        <ele>1512.29</ele>
        <time>2020-03-12T13:52:19Z</time>
      </trkpt>
      <trkpt lat="45.02915" lon="5.86559">
        <ele>1508.93</ele>
        <time>2020-03-12T13:52:35Z</time>
      </trkpt>
      <trkpt lat="45.02911" lon="5.8656">
        <ele>1506.04</ele>
        <time>2020-03-12T13:52:52Z</time>
      </trkpt>
      <trkpt lat="45.02905" lon="5.8656">
        <ele>1503.16</ele>
        <time>2020-03-12T13:53:07Z</time>
      </trkpt>
      <trkpt lat="45.02886" lon="5.86555">
        <ele>1500.27</ele>
        <time>2020-03-12T13:53:22Z</time>
      </trkpt>
      <trkpt lat="45.02875" lon="5.86547">
        <ele>1496.91</ele>
        <time>2020-03-12T13:53:33Z</time>
      </trkpt>
      <trkpt lat="45.02867" lon="5.86544">
        <ele>1493.55</ele>
        <time>2020-03-12T13:53:45Z</time>
      </trkpt>
      <trkpt lat="45.02853" lon="5.86549">
        <ele>1491.14</ele>
        <time>2020-03-12T13:54:03Z</time>
      </trkpt>
      <trkpt lat="45.02844" lon="5.86552">
        <ele>1488.26</ele>
        <time>2020-03-12T13:54:20Z</time>
      </trkpt>
      <trkpt lat="45.02841" lon="5.86553">
        <ele>1489.7</ele>
        <time>2020-03-12T13:54:23Z</time>
      </trkpt>
      <trkpt lat="45.02837" lon="5.86559">
        <ele>1485.85</ele>
        <time>2020-03-12T13:54:34Z</time>
      </trkpt>
      <trkpt lat="45.02832" lon="5.86559">
        <ele>1484.89</ele>
        <time>2020-03-12T13:54:53Z</time>
      </trkpt>
      <trkpt lat="45.02832" lon="5.86558">
        <ele>1484.89</ele>
        <time>2020-03-12T13:55:24Z</time>
      </trkpt>
      <trkpt lat="45.02831" lon="5.86558">
        <ele>1484.41</ele>
        <time>2020-03-12T13:55:49Z</time>
      </trkpt>
      <trkpt lat="45.0283" lon="5.86557">
        <ele>1481.05</ele>
        <time>2020-03-12T13:56:03Z</time>
      </trkpt>
      <trkpt lat="45.02813" lon="5.86561">
        <ele>1478.65</ele>
        <time>2020-03-12T13:56:18Z</time>
      </trkpt>
      <trkpt lat="45.02798" lon="5.86559">
        <ele>1475.76</ele>
        <time>2020-03-12T13:56:34Z</time>
      </trkpt>
      <trkpt lat="45.02787" lon="5.86558">
        <ele>1474.8</ele>
        <time>2020-03-12T13:56:48Z</time>
      </trkpt>
      <trkpt lat="45.02779" lon="5.86556">
        <ele>1472.88</ele>
        <time>2020-03-12T13:57:00Z</time>
      </trkpt>
      <trkpt lat="45.02772" lon="5.86549">
        <ele>1470.95</ele>
        <time>2020-03-12T13:57:14Z</time>
      </trkpt>
      <trkpt lat="45.02771" lon="5.86542">
        <ele>1467.59</ele>
        <time>2020-03-12T13:57:26Z</time>
      </trkpt>
      <trkpt lat="45.02762" lon="5.86536">
        <ele>1465.19</ele>
        <time>2020-03-12T13:57:42Z</time>
      </trkpt>
      <trkpt lat="45.02758" lon="5.86531">
        <ele>1461.82</ele>
        <time>2020-03-12T13:57:57Z</time>
      </trkpt>
      <trkpt lat="45.02756" lon="5.86531">
        <ele>1458.46</ele>
        <time>2020-03-12T13:58:14Z</time>
      </trkpt>
      <trkpt lat="45.02752" lon="5.86524">
        <ele>1458.94</ele>
        <time>2020-03-12T13:58:31Z</time>
      </trkpt>
      <trkpt lat="45.02752" lon="5.86524">
        <ele>1458.94</ele>
        <time>2020-03-12T13:59:00Z</time>
      </trkpt>
      <trkpt lat="45.02751" lon="5.86524">
        <ele>1459.42</ele>
        <time>2020-03-12T13:59:27Z</time>
      </trkpt>
      <trkpt lat="45.02751" lon="5.86526">
        <ele>1459.42</ele>
        <time>2020-03-12T13:59:55Z</time>
      </trkpt>
      <trkpt lat="45.02751" lon="5.86526">
        <ele>1458.94</ele>
        <time>2020-03-12T14:00:24Z</time>
      </trkpt>
      <trkpt lat="45.02751" lon="5.86527">
        <ele>1458.94</ele>
        <time>2020-03-12T14:00:48Z</time>
      </trkpt>
      <trkpt lat="45.0275" lon="5.86528">
        <ele>1458.94</ele>
        <time>2020-03-12T14:01:14Z</time>
      </trkpt>
      <trkpt lat="45.02751" lon="5.86528">
        <ele>1458.94</ele>
        <time>2020-03-12T14:01:39Z</time>
      </trkpt>
      <trkpt lat="45.02762" lon="5.86521">
        <ele>1457.02</ele>
        <time>2020-03-12T14:01:56Z</time>
      </trkpt>
      <trkpt lat="45.02776" lon="5.86517">
        <ele>1455.09</ele>
        <time>2020-03-12T14:02:10Z</time>
      </trkpt>
      <trkpt lat="45.0279" lon="5.86511">
        <ele>1452.21</ele>
        <time>2020-03-12T14:02:25Z</time>
      </trkpt>
      <trkpt lat="45.02809" lon="5.86506">
        <ele>1450.29</ele>
        <time>2020-03-12T14:02:40Z</time>
      </trkpt>
      <trkpt lat="45.02824" lon="5.86504">
        <ele>1447.88</ele>
        <time>2020-03-12T14:02:55Z</time>
      </trkpt>
      <trkpt lat="45.02837" lon="5.86498">
        <ele>1445.96</ele>
        <time>2020-03-12T14:03:09Z</time>
      </trkpt>
      <trkpt lat="45.02842" lon="5.86482">
        <ele>1443.56</ele>
        <time>2020-03-12T14:03:23Z</time>
      </trkpt>
      <trkpt lat="45.0284" lon="5.86481">
        <ele>1442.6</ele>
        <time>2020-03-12T14:03:25Z</time>
      </trkpt>
      <trkpt lat="45.02826" lon="5.86483">
        <ele>1442.11</ele>
        <time>2020-03-12T14:03:38Z</time>
      </trkpt>
      <trkpt lat="45.02805" lon="5.86489">
        <ele>1441.63</ele>
        <time>2020-03-12T14:03:54Z</time>
      </trkpt>
      <trkpt lat="45.02794" lon="5.8649">
        <ele>1439.71</ele>
        <time>2020-03-12T14:04:11Z</time>
      </trkpt>
      <trkpt lat="45.02793" lon="5.8649">
        <ele>1439.71</ele>
        <time>2020-03-12T14:04:12Z</time>
      </trkpt>
      <trkpt lat="45.02784" lon="5.86488">
        <ele>1439.23</ele>
        <time>2020-03-12T14:04:16Z</time>
      </trkpt>
      <trkpt lat="45.02765" lon="5.86478">
        <ele>1437.79</ele>
        <time>2020-03-12T14:04:31Z</time>
      </trkpt>
      <trkpt lat="45.02752" lon="5.86471">
        <ele>1436.35</ele>
        <time>2020-03-12T14:04:42Z</time>
      </trkpt>
      <trkpt lat="45.02742" lon="5.8646">
        <ele>1433.94</ele>
        <time>2020-03-12T14:04:55Z</time>
      </trkpt>
      <trkpt lat="45.02731" lon="5.86456">
        <ele>1431.54</ele>
        <time>2020-03-12T14:05:09Z</time>
      </trkpt>
      <trkpt lat="45.02716" lon="5.86445">
        <ele>1429.62</ele>
        <time>2020-03-12T14:05:21Z</time>
      </trkpt>
      <trkpt lat="45.02697" lon="5.86439">
        <ele>1428.18</ele>
        <time>2020-03-12T14:05:35Z</time>
      </trkpt>
      <trkpt lat="45.02693" lon="5.86437">
        <ele>1427.7</ele>
        <time>2020-03-12T14:05:39Z</time>
      </trkpt>
      <trkpt lat="45.02668" lon="5.86445">
        <ele>1423.85</ele>
        <time>2020-03-12T14:05:56Z</time>
      </trkpt>
      <trkpt lat="45.02654" lon="5.86454">
        <ele>1420.97</ele>
        <time>2020-03-12T14:06:11Z</time>
      </trkpt>
      <trkpt lat="45.02646" lon="5.86439">
        <ele>1419.52</ele>
        <time>2020-03-12T14:06:27Z</time>
      </trkpt>
      <trkpt lat="45.02646" lon="5.86438">
        <ele>1419.52</ele>
        <time>2020-03-12T14:06:53Z</time>
      </trkpt>
      <trkpt lat="45.02646" lon="5.86438">
        <ele>1419.04</ele>
        <time>2020-03-12T14:07:16Z</time>
      </trkpt>
      <trkpt lat="45.02646" lon="5.86435">
        <ele>1419.04</ele>
        <time>2020-03-12T14:07:48Z</time>
      </trkpt>
      <trkpt lat="45.02646" lon="5.86436">
        <ele>1419.04</ele>
        <time>2020-03-12T14:08:13Z</time>
      </trkpt>
      <trkpt lat="45.02649" lon="5.86421">
        <ele>1417.6</ele>
        <time>2020-03-12T14:08:29Z</time>
      </trkpt>
      <trkpt lat="45.02654" lon="5.86396">
        <ele>1415.2</ele>
        <time>2020-03-12T14:08:44Z</time>
      </trkpt>
      <trkpt lat="45.02665" lon="5.86385">
        <ele>1411.83</ele>
        <time>2020-03-12T14:08:59Z</time>
      </trkpt>
      <trkpt lat="45.02685" lon="5.86388">
        <ele>1409.43</ele>
        <time>2020-03-12T14:09:14Z</time>
      </trkpt>
      <trkpt lat="45.02689" lon="5.86388">
        <ele>1406.07</ele>
        <time>2020-03-12T14:09:32Z</time>
      </trkpt>
      <trkpt lat="45.02697" lon="5.86393">
        <ele>1404.62</ele>
        <time>2020-03-12T14:09:49Z</time>
      </trkpt>
      <trkpt lat="45.02702" lon="5.86395">
        <ele>1404.62</ele>
        <time>2020-03-12T14:09:50Z</time>
      </trkpt>
      <trkpt lat="45.02739" lon="5.86396">
        <ele>1401.74</ele>
        <time>2020-03-12T14:10:06Z</time>
      </trkpt>
      <trkpt lat="45.02754" lon="5.86389">
        <ele>1398.86</ele>
        <time>2020-03-12T14:10:21Z</time>
      </trkpt>
      <trkpt lat="45.02761" lon="5.86385">
        <ele>1396.93</ele>
        <time>2020-03-12T14:10:34Z</time>
      </trkpt>
      <trkpt lat="45.02782" lon="5.86378">
        <ele>1394.53</ele>
        <time>2020-03-12T14:10:50Z</time>
      </trkpt>
      <trkpt lat="45.028" lon="5.86366">
        <ele>1393.09</ele>
        <time>2020-03-12T14:11:05Z</time>
      </trkpt>
      <trkpt lat="45.02807" lon="5.86361">
        <ele>1392.61</ele>
        <time>2020-03-12T14:11:11Z</time>
      </trkpt>
      <trkpt lat="45.02819" lon="5.86347">
        <ele>1390.68</ele>
        <time>2020-03-12T14:11:24Z</time>
      </trkpt>
      <trkpt lat="45.02831" lon="5.8633">
        <ele>1388.76</ele>
        <time>2020-03-12T14:11:36Z</time>
      </trkpt>
      <trkpt lat="45.02842" lon="5.86314">
        <ele>1387.8</ele>
        <time>2020-03-12T14:11:46Z</time>
      </trkpt>
      <trkpt lat="45.0286" lon="5.86297">
        <ele>1385.4</ele>
        <time>2020-03-12T14:12:02Z</time>
      </trkpt>
      <trkpt lat="45.02873" lon="5.86285">
        <ele>1382.99</ele>
        <time>2020-03-12T14:12:15Z</time>
      </trkpt>
      <trkpt lat="45.02883" lon="5.8627">
        <ele>1381.07</ele>
        <time>2020-03-12T14:12:28Z</time>
      </trkpt>
      <trkpt lat="45.02893" lon="5.86262">
        <ele>1381.55</ele>
        <time>2020-03-12T14:12:39Z</time>
      </trkpt>
      <trkpt lat="45.02898" lon="5.86261">
        <ele>1382.03</ele>
        <time>2020-03-12T14:12:46Z</time>
      </trkpt>
      <trkpt lat="45.02906" lon="5.86251">
        <ele>1381.55</ele>
        <time>2020-03-12T14:12:59Z</time>
      </trkpt>
      <trkpt lat="45.02905" lon="5.86246">
        <ele>1382.03</ele>
        <time>2020-03-12T14:13:13Z</time>
      </trkpt>
      <trkpt lat="45.02905" lon="5.86245">
        <ele>1381.55</ele>
        <time>2020-03-12T14:13:43Z</time>
      </trkpt>
      <trkpt lat="45.02905" lon="5.8624">
        <ele>1380.59</ele>
        <time>2020-03-12T14:14:01Z</time>
      </trkpt>
      <trkpt lat="45.02898" lon="5.86235">
        <ele>1380.59</ele>
        <time>2020-03-12T14:14:13Z</time>
      </trkpt>
      <trkpt lat="45.02895" lon="5.86235">
        <ele>1376.75</ele>
        <time>2020-03-12T14:14:38Z</time>
      </trkpt>
      <trkpt lat="45.02895" lon="5.86235">
        <ele>1377.23</ele>
        <time>2020-03-12T14:14:39Z</time>
      </trkpt>
      <trkpt lat="45.02895" lon="5.86235">
        <ele>1385.4</ele>
        <time>2020-03-12T14:14:40Z</time>
      </trkpt>
      <trkpt lat="45.02896" lon="5.86236">
        <ele>1381.55</ele>
        <time>2020-03-12T14:14:41Z</time>
      </trkpt>
      <trkpt lat="45.02903" lon="5.86236">
        <ele>1381.07</ele>
        <time>2020-03-12T14:14:55Z</time>
      </trkpt>
      <trkpt lat="45.02903" lon="5.86236">
        <ele>1382.03</ele>
        <time>2020-03-12T14:15:11Z</time>
      </trkpt>
      <trkpt lat="45.02904" lon="5.86234">
        <ele>1382.03</ele>
        <time>2020-03-12T14:15:32Z</time>
      </trkpt>
      <trkpt lat="45.02906" lon="5.86234">
        <ele>1381.55</ele>
        <time>2020-03-12T14:15:49Z</time>
      </trkpt>
      <trkpt lat="45.02907" lon="5.86234">
        <ele>1381.07</ele>
        <time>2020-03-12T14:16:18Z</time>
      </trkpt>
      <trkpt lat="45.02907" lon="5.86236">
        <ele>1380.59</ele>
        <time>2020-03-12T14:16:49Z</time>
      </trkpt>
      <trkpt lat="45.02908" lon="5.86236">
        <ele>1380.59</ele>
        <time>2020-03-12T14:17:17Z</time>
      </trkpt>
      <trkpt lat="45.02909" lon="5.86235">
        <ele>1379.63</ele>
        <time>2020-03-12T14:17:26Z</time>
      </trkpt>
      <trkpt lat="45.02909" lon="5.86234">
        <ele>1380.11</ele>
        <time>2020-03-12T14:17:49Z</time>
      </trkpt>
      <trkpt lat="45.02909" lon="5.86232">
        <ele>1380.11</ele>
        <time>2020-03-12T14:18:12Z</time>
      </trkpt>
      <trkpt lat="45.02908" lon="5.86229">
        <ele>1379.63</ele>
        <time>2020-03-12T14:18:38Z</time>
      </trkpt>
      <trkpt lat="45.02905" lon="5.86227">
        <ele>1378.67</ele>
        <time>2020-03-12T14:19:09Z</time>
      </trkpt>
      <trkpt lat="45.02911" lon="5.86229">
        <ele>1379.63</ele>
        <time>2020-03-12T14:19:30Z</time>
      </trkpt>
      <trkpt lat="45.0291" lon="5.86231">
        <ele>1378.67</ele>
        <time>2020-03-12T14:19:53Z</time>
      </trkpt>
      <trkpt lat="45.02911" lon="5.86232">
        <ele>1378.67</ele>
        <time>2020-03-12T14:20:24Z</time>
      </trkpt>
      <trkpt lat="45.02912" lon="5.86232">
        <ele>1378.67</ele>
        <time>2020-03-12T14:20:58Z</time>
      </trkpt>
      <trkpt lat="45.02913" lon="5.86233">
        <ele>1379.15</ele>
        <time>2020-03-12T14:21:24Z</time>
      </trkpt>
      <trkpt lat="45.02905" lon="5.86241">
        <ele>1378.19</ele>
        <time>2020-03-12T14:21:46Z</time>
      </trkpt>
      <trkpt lat="45.02915" lon="5.86231">
        <ele>1378.19</ele>
        <time>2020-03-12T14:22:09Z</time>
      </trkpt>
      <trkpt lat="45.02915" lon="5.86232">
        <ele>1378.67</ele>
        <time>2020-03-12T14:22:24Z</time>
      </trkpt>
      <trkpt lat="45.02916" lon="5.86232">
        <ele>1378.19</ele>
        <time>2020-03-12T14:22:47Z</time>
      </trkpt>
      <trkpt lat="45.02917" lon="5.86235">
        <ele>1379.15</ele>
        <time>2020-03-12T14:23:07Z</time>
      </trkpt>
      <trkpt lat="45.02916" lon="5.86234">
        <ele>1379.15</ele>
        <time>2020-03-12T14:23:39Z</time>
      </trkpt>
      <trkpt lat="45.02916" lon="5.86233">
        <ele>1377.71</ele>
        <time>2020-03-12T14:24:00Z</time>
      </trkpt>
      <trkpt lat="45.02915" lon="5.86232">
        <ele>1373.38</ele>
        <time>2020-03-12T14:24:02Z</time>
      </trkpt>
      <trkpt lat="45.02915" lon="5.86233">
        <ele>1384.92</ele>
        <time>2020-03-12T14:24:03Z</time>
      </trkpt>
      <trkpt lat="45.02914" lon="5.86233">
        <ele>1376.26</ele>
        <time>2020-03-12T14:24:04Z</time>
      </trkpt>
      <trkpt lat="45.02913" lon="5.86233">
        <ele>1382.03</ele>
        <time>2020-03-12T14:24:05Z</time>
      </trkpt>
      <trkpt lat="45.02912" lon="5.86234">
        <ele>1377.71</ele>
        <time>2020-03-12T14:24:07Z</time>
      </trkpt>
      <trkpt lat="45.02911" lon="5.86234">
        <ele>1372.9</ele>
        <time>2020-03-12T14:24:11Z</time>
      </trkpt>
      <trkpt lat="45.02911" lon="5.86234">
        <ele>1383.47</ele>
        <time>2020-03-12T14:24:12Z</time>
      </trkpt>
      <trkpt lat="45.02911" lon="5.86234">
        <ele>1377.23</ele>
        <time>2020-03-12T14:24:13Z</time>
      </trkpt>
      <trkpt lat="45.02911" lon="5.86234">
        <ele>1380.59</ele>
        <time>2020-03-12T14:24:14Z</time>
      </trkpt>
      <trkpt lat="45.02913" lon="5.86235">
        <ele>1376.26</ele>
        <time>2020-03-12T14:24:28Z</time>
      </trkpt>
      <trkpt lat="45.02913" lon="5.86235">
        <ele>1381.07</ele>
        <time>2020-03-12T14:24:29Z</time>
      </trkpt>
      <trkpt lat="45.02913" lon="5.86235">
        <ele>1373.38</ele>
        <time>2020-03-12T14:24:31Z</time>
      </trkpt>
      <trkpt lat="45.02913" lon="5.86236">
        <ele>1382.99</ele>
        <time>2020-03-12T14:24:32Z</time>
      </trkpt>
      <trkpt lat="45.02913" lon="5.86236">
        <ele>1379.63</ele>
        <time>2020-03-12T14:24:33Z</time>
      </trkpt>
      <trkpt lat="45.02912" lon="5.86234">
        <ele>1379.15</ele>
        <time>2020-03-12T14:24:58Z</time>
      </trkpt>
      <trkpt lat="45.02912" lon="5.86234">
        <ele>1373.38</ele>
        <time>2020-03-12T14:25:16Z</time>
      </trkpt>
      <trkpt lat="45.02912" lon="5.86234">
        <ele>1384.92</ele>
        <time>2020-03-12T14:25:17Z</time>
      </trkpt>
      <trkpt lat="45.02912" lon="5.86234">
        <ele>1382.99</ele>
        <time>2020-03-12T14:25:18Z</time>
      </trkpt>
      <trkpt lat="45.02912" lon="5.86234">
        <ele>1371.94</ele>
        <time>2020-03-12T14:25:19Z</time>
      </trkpt>
      <trkpt lat="45.02912" lon="5.86234">
        <ele>1377.23</ele>
        <time>2020-03-12T14:25:20Z</time>
      </trkpt>
      <trkpt lat="45.02912" lon="5.86234">
        <ele>1385.4</ele>
        <time>2020-03-12T14:25:21Z</time>
      </trkpt>
      <trkpt lat="45.02912" lon="5.86234">
        <ele>1368.09</ele>
        <time>2020-03-12T14:25:22Z</time>
      </trkpt>
      <trkpt lat="45.02912" lon="5.86234">
        <ele>1387.32</ele>
        <time>2020-03-12T14:25:23Z</time>
      </trkpt>
      <trkpt lat="45.02912" lon="5.86235">
        <ele>1380.59</ele>
        <time>2020-03-12T14:25:24Z</time>
      </trkpt>
      <trkpt lat="45.02912" lon="5.86235">
        <ele>1370.5</ele>
        <time>2020-03-12T14:25:25Z</time>
      </trkpt>
      <trkpt lat="45.02912" lon="5.86235">
        <ele>1385.4</ele>
        <time>2020-03-12T14:25:26Z</time>
      </trkpt>
      <trkpt lat="45.02912" lon="5.86235">
        <ele>1361.36</ele>
        <time>2020-03-12T14:25:27Z</time>
      </trkpt>
      <trkpt lat="45.02912" lon="5.86235">
        <ele>1392.13</ele>
        <time>2020-03-12T14:25:28Z</time>
      </trkpt>
      <trkpt lat="45.02912" lon="5.86235">
        <ele>1380.11</ele>
        <time>2020-03-12T14:25:29Z</time>
      </trkpt>
      <trkpt lat="45.02912" lon="5.86235">
        <ele>1373.38</ele>
        <time>2020-03-12T14:25:30Z</time>
      </trkpt>
      <trkpt lat="45.02912" lon="5.86236">
        <ele>1383.47</ele>
        <time>2020-03-12T14:25:31Z</time>
      </trkpt>
      <trkpt lat="45.02912" lon="5.86236">
        <ele>1379.63</ele>
        <time>2020-03-12T14:25:32Z</time>
      </trkpt>
      <trkpt lat="45.02912" lon="5.86236">
        <ele>1376.75</ele>
        <time>2020-03-12T14:25:39Z</time>
      </trkpt>
      <trkpt lat="45.02912" lon="5.86236">
        <ele>1382.03</ele>
        <time>2020-03-12T14:25:40Z</time>
      </trkpt>
      <trkpt lat="45.02912" lon="5.86236">
        <ele>1379.63</ele>
        <time>2020-03-12T14:25:41Z</time>
      </trkpt>
      <trkpt lat="45.02912" lon="5.86236">
        <ele>1374.82</ele>
        <time>2020-03-12T14:26:10Z</time>
      </trkpt>
      <trkpt lat="45.02912" lon="5.86236">
        <ele>1382.03</ele>
        <time>2020-03-12T14:26:11Z</time>
      </trkpt>
      <trkpt lat="45.02912" lon="5.86236">
        <ele>1379.15</ele>
        <time>2020-03-12T14:26:13Z</time>
      </trkpt>
      <trkpt lat="45.02912" lon="5.86236">
        <ele>1366.65</ele>
        <time>2020-03-12T14:26:15Z</time>
      </trkpt>
      <trkpt lat="45.02912" lon="5.86236">
        <ele>1388.28</ele>
        <time>2020-03-12T14:26:16Z</time>
      </trkpt>
      <trkpt lat="45.02912" lon="5.86236">
        <ele>1379.63</ele>
        <time>2020-03-12T14:26:17Z</time>
      </trkpt>
      <trkpt lat="45.02912" lon="5.86236">
        <ele>1365.21</ele>
        <time>2020-03-12T14:26:18Z</time>
      </trkpt>
      <trkpt lat="45.02912" lon="5.86236">
        <ele>1395.49</ele>
        <time>2020-03-12T14:26:19Z</time>
      </trkpt>
      <trkpt lat="45.02912" lon="5.86236">
        <ele>1380.59</ele>
        <time>2020-03-12T14:26:20Z</time>
      </trkpt>
      <trkpt lat="45.02912" lon="5.86236">
        <ele>1379.15</ele>
        <time>2020-03-12T14:26:22Z</time>
      </trkpt>
      <trkpt lat="45.02911" lon="5.86236">
        <ele>1378.67</ele>
        <time>2020-03-12T14:26:55Z</time>
      </trkpt>
      <trkpt lat="45.02911" lon="5.86237">
        <ele>1378.67</ele>
        <time>2020-03-12T14:27:27Z</time>
      </trkpt>
      <trkpt lat="45.02911" lon="5.86237">
        <ele>1378.67</ele>
        <time>2020-03-12T14:27:51Z</time>
      </trkpt>
      <trkpt lat="45.0291" lon="5.86237">
        <ele>1379.63</ele>
        <time>2020-03-12T14:28:21Z</time>
      </trkpt>
      <trkpt lat="45.02911" lon="5.86234">
        <ele>1379.63</ele>
        <time>2020-03-12T14:28:46Z</time>
      </trkpt>
      <trkpt lat="45.02911" lon="5.86233">
        <ele>1376.75</ele>
        <time>2020-03-12T14:28:55Z</time>
      </trkpt>
      <trkpt lat="45.02911" lon="5.86233">
        <ele>1382.03</ele>
        <time>2020-03-12T14:28:56Z</time>
      </trkpt>
      <trkpt lat="45.02912" lon="5.86233">
        <ele>1377.23</ele>
        <time>2020-03-12T14:28:57Z</time>
      </trkpt>
      <trkpt lat="45.02911" lon="5.86233">
        <ele>1381.55</ele>
        <time>2020-03-12T14:28:58Z</time>
      </trkpt>
      <trkpt lat="45.02912" lon="5.86233">
        <ele>1378.67</ele>
        <time>2020-03-12T14:29:17Z</time>
      </trkpt>
      <trkpt lat="45.02912" lon="5.86233">
        <ele>1378.19</ele>
        <time>2020-03-12T14:29:41Z</time>
      </trkpt>
      <trkpt lat="45.02912" lon="5.86232">
        <ele>1378.67</ele>
        <time>2020-03-12T14:30:10Z</time>
      </trkpt>
      <trkpt lat="45.02912" lon="5.86233">
        <ele>1379.15</ele>
        <time>2020-03-12T14:30:40Z</time>
      </trkpt>
      <trkpt lat="45.02912" lon="5.86232">
        <ele>1378.67</ele>
        <time>2020-03-12T14:30:57Z</time>
      </trkpt>
      <trkpt lat="45.02912" lon="5.86231">
        <ele>1378.19</ele>
        <time>2020-03-12T14:31:26Z</time>
      </trkpt>
      <trkpt lat="45.02912" lon="5.86231">
        <ele>1378.67</ele>
        <time>2020-03-12T14:31:58Z</time>
      </trkpt>
      <trkpt lat="45.02912" lon="5.86231">
        <ele>1378.19</ele>
        <time>2020-03-12T14:32:22Z</time>
      </trkpt>
      <trkpt lat="45.02907" lon="5.86227">
        <ele>1377.71</ele>
        <time>2020-03-12T14:32:34Z</time>
      </trkpt>
      <trkpt lat="45.02897" lon="5.86219">
        <ele>1377.71</ele>
        <time>2020-03-12T14:32:46Z</time>
      </trkpt>
      <trkpt lat="45.02899" lon="5.86206">
        <ele>1376.75</ele>
        <time>2020-03-12T14:32:59Z</time>
      </trkpt>
      <trkpt lat="45.02908" lon="5.86197">
        <ele>1375.78</ele>
        <time>2020-03-12T14:33:12Z</time>
      </trkpt>
      <trkpt lat="45.02907" lon="5.86186">
        <ele>1374.34</ele>
        <time>2020-03-12T14:33:24Z</time>
      </trkpt>
      <trkpt lat="45.02906" lon="5.86172">
        <ele>1374.34</ele>
        <time>2020-03-12T14:33:31Z</time>
      </trkpt>
      <trkpt lat="45.02906" lon="5.86168">
        <ele>1373.86</ele>
        <time>2020-03-12T14:33:35Z</time>
      </trkpt>
      <trkpt lat="45.02911" lon="5.86158">
        <ele>1374.34</ele>
        <time>2020-03-12T14:33:46Z</time>
      </trkpt>
      <trkpt lat="45.02918" lon="5.8615">
        <ele>1374.34</ele>
        <time>2020-03-12T14:33:59Z</time>
      </trkpt>
      <trkpt lat="45.02921" lon="5.86146">
        <ele>1374.34</ele>
        <time>2020-03-12T14:34:12Z</time>
      </trkpt>
      <trkpt lat="45.0292" lon="5.86135">
        <ele>1374.34</ele>
        <time>2020-03-12T14:34:22Z</time>
      </trkpt>
      <trkpt lat="45.0292" lon="5.86129">
        <ele>1374.34</ele>
        <time>2020-03-12T14:34:27Z</time>
      </trkpt>
      <trkpt lat="45.02919" lon="5.86121">
        <ele>1374.82</ele>
        <time>2020-03-12T14:34:34Z</time>
      </trkpt>
      <trkpt lat="45.02919" lon="5.86117">
        <ele>1374.82</ele>
        <time>2020-03-12T14:34:39Z</time>
      </trkpt>
      <trkpt lat="45.02919" lon="5.86101">
        <ele>1373.86</ele>
        <time>2020-03-12T14:34:51Z</time>
      </trkpt>
      <trkpt lat="45.02919" lon="5.86088">
        <ele>1373.38</ele>
        <time>2020-03-12T14:35:01Z</time>
      </trkpt>
      <trkpt lat="45.02918" lon="5.86077">
        <ele>1372.9</ele>
        <time>2020-03-12T14:35:12Z</time>
      </trkpt>
      <trkpt lat="45.02919" lon="5.86072">
        <ele>1373.38</ele>
        <time>2020-03-12T14:35:16Z</time>
      </trkpt>
      <trkpt lat="45.0292" lon="5.86069">
        <ele>1373.38</ele>
        <time>2020-03-12T14:35:20Z</time>
      </trkpt>
      <trkpt lat="45.02916" lon="5.86056">
        <ele>1373.38</ele>
        <time>2020-03-12T14:35:32Z</time>
      </trkpt>
      <trkpt lat="45.02916" lon="5.86053">
        <ele>1372.9</ele>
        <time>2020-03-12T14:35:35Z</time>
      </trkpt>
      <trkpt lat="45.02914" lon="5.8604">
        <ele>1372.42</ele>
        <time>2020-03-12T14:35:47Z</time>
      </trkpt>
      <trkpt lat="45.02911" lon="5.8603">
        <ele>1372.42</ele>
        <time>2020-03-12T14:35:58Z</time>
      </trkpt>
      <trkpt lat="45.02911" lon="5.86029">
        <ele>1371.94</ele>
        <time>2020-03-12T14:35:59Z</time>
      </trkpt>
      <trkpt lat="45.02907" lon="5.86019">
        <ele>1371.46</ele>
        <time>2020-03-12T14:36:11Z</time>
      </trkpt>
      <trkpt lat="45.02905" lon="5.86003">
        <ele>1370.98</ele>
        <time>2020-03-12T14:36:20Z</time>
      </trkpt>
      <trkpt lat="45.02905" lon="5.85993">
        <ele>1370.02</ele>
        <time>2020-03-12T14:36:27Z</time>
      </trkpt>
      <trkpt lat="45.02897" lon="5.85982">
        <ele>1370.02</ele>
        <time>2020-03-12T14:36:41Z</time>
      </trkpt>
      <trkpt lat="45.02893" lon="5.8597">
        <ele>1370.02</ele>
        <time>2020-03-12T14:36:55Z</time>
      </trkpt>
      <trkpt lat="45.02888" lon="5.85959">
        <ele>1370.02</ele>
        <time>2020-03-12T14:37:07Z</time>
      </trkpt>
      <trkpt lat="45.02881" lon="5.85947">
        <ele>1369.05</ele>
        <time>2020-03-12T14:37:19Z</time>
      </trkpt>
      <trkpt lat="45.0288" lon="5.85946">
        <ele>1369.05</ele>
        <time>2020-03-12T14:37:20Z</time>
      </trkpt>
      <trkpt lat="45.02871" lon="5.85935">
        <ele>1369.54</ele>
        <time>2020-03-12T14:37:34Z</time>
      </trkpt>
      <trkpt lat="45.02869" lon="5.85932">
        <ele>1369.54</ele>
        <time>2020-03-12T14:37:37Z</time>
      </trkpt>
      <trkpt lat="45.02866" lon="5.85929">
        <ele>1369.54</ele>
        <time>2020-03-12T14:37:40Z</time>
      </trkpt>
      <trkpt lat="45.02861" lon="5.85917">
        <ele>1368.09</ele>
        <time>2020-03-12T14:37:53Z</time>
      </trkpt>
      <trkpt lat="45.02858" lon="5.85915">
        <ele>1368.09</ele>
        <time>2020-03-12T14:37:56Z</time>
      </trkpt>
      <trkpt lat="45.02855" lon="5.85913">
        <ele>1367.13</ele>
        <time>2020-03-12T14:38:00Z</time>
      </trkpt>
      <trkpt lat="45.02843" lon="5.85897">
        <ele>1363.77</ele>
        <time>2020-03-12T14:38:15Z</time>
      </trkpt>
      <trkpt lat="45.02843" lon="5.85896">
        <ele>1363.77</ele>
        <time>2020-03-12T14:38:16Z</time>
      </trkpt>
      <trkpt lat="45.02842" lon="5.85891">
        <ele>1362.81</ele>
        <time>2020-03-12T14:38:20Z</time>
      </trkpt>
      <trkpt lat="45.02838" lon="5.85886">
        <ele>1361.36</ele>
        <time>2020-03-12T14:38:26Z</time>
      </trkpt>
      <trkpt lat="45.02835" lon="5.85872">
        <ele>1359.92</ele>
        <time>2020-03-12T14:38:38Z</time>
      </trkpt>
      <trkpt lat="45.0283" lon="5.85856">
        <ele>1358.48</ele>
        <time>2020-03-12T14:38:51Z</time>
      </trkpt>
      <trkpt lat="45.02829" lon="5.85854">
        <ele>1358.48</ele>
        <time>2020-03-12T14:38:54Z</time>
      </trkpt>
      <trkpt lat="45.02827" lon="5.85839">
        <ele>1357.04</ele>
        <time>2020-03-12T14:39:08Z</time>
      </trkpt>
      <trkpt lat="45.02828" lon="5.85832">
        <ele>1357.52</ele>
        <time>2020-03-12T14:39:15Z</time>
      </trkpt>
      <trkpt lat="45.02824" lon="5.85823">
        <ele>1358</ele>
        <time>2020-03-12T14:39:27Z</time>
      </trkpt>
      <trkpt lat="45.02823" lon="5.85809">
        <ele>1357.04</ele>
        <time>2020-03-12T14:39:36Z</time>
      </trkpt>
      <trkpt lat="45.0282" lon="5.85803">
        <ele>1357.52</ele>
        <time>2020-03-12T14:39:40Z</time>
      </trkpt>
      <trkpt lat="45.02819" lon="5.85792">
        <ele>1356.56</ele>
        <time>2020-03-12T14:39:49Z</time>
      </trkpt>
      <trkpt lat="45.02822" lon="5.85784">
        <ele>1356.56</ele>
        <time>2020-03-12T14:39:57Z</time>
      </trkpt>
      <trkpt lat="45.02823" lon="5.85781">
        <ele>1356.56</ele>
        <time>2020-03-12T14:39:59Z</time>
      </trkpt>
      <trkpt lat="45.02829" lon="5.85769">
        <ele>1356.56</ele>
        <time>2020-03-12T14:40:12Z</time>
      </trkpt>
      <trkpt lat="45.02829" lon="5.85768">
        <ele>1355.6</ele>
        <time>2020-03-12T14:40:30Z</time>
      </trkpt>
      <trkpt lat="45.02828" lon="5.85769">
        <ele>1356.08</ele>
        <time>2020-03-12T14:40:49Z</time>
      </trkpt>
      <trkpt lat="45.02829" lon="5.85769">
        <ele>1356.08</ele>
        <time>2020-03-12T14:41:04Z</time>
      </trkpt>
      <trkpt lat="45.0283" lon="5.85767">
        <ele>1356.08</ele>
        <time>2020-03-12T14:41:06Z</time>
      </trkpt>
      <trkpt lat="45.02834" lon="5.85758">
        <ele>1355.6</ele>
        <time>2020-03-12T14:41:13Z</time>
      </trkpt>
      <trkpt lat="45.02836" lon="5.85752">
        <ele>1355.6</ele>
        <time>2020-03-12T14:41:29Z</time>
      </trkpt>
      <trkpt lat="45.02836" lon="5.85752">
        <ele>1356.08</ele>
        <time>2020-03-12T14:41:43Z</time>
      </trkpt>
      <trkpt lat="45.02836" lon="5.85751">
        <ele>1355.6</ele>
        <time>2020-03-12T14:42:02Z</time>
      </trkpt>
      <trkpt lat="45.02837" lon="5.85752">
        <ele>1355.6</ele>
        <time>2020-03-12T14:42:32Z</time>
      </trkpt>
      <trkpt lat="45.02837" lon="5.85752">
        <ele>1355.6</ele>
        <time>2020-03-12T14:42:58Z</time>
      </trkpt>
      <trkpt lat="45.02836" lon="5.85752">
        <ele>1355.12</ele>
        <time>2020-03-12T14:43:18Z</time>
      </trkpt>
      <trkpt lat="45.02836" lon="5.85753">
        <ele>1356.08</ele>
        <time>2020-03-12T14:43:47Z</time>
      </trkpt>
      <trkpt lat="45.02836" lon="5.85753">
        <ele>1352.23</ele>
        <time>2020-03-12T14:43:55Z</time>
      </trkpt>
      <trkpt lat="45.02836" lon="5.85753">
        <ele>1355.12</ele>
        <time>2020-03-12T14:43:56Z</time>
      </trkpt>
      <trkpt lat="45.02836" lon="5.85753">
        <ele>1359.44</ele>
        <time>2020-03-12T14:44:13Z</time>
      </trkpt>
      <trkpt lat="45.02836" lon="5.85753">
        <ele>1333.97</ele>
        <time>2020-03-12T14:44:14Z</time>
      </trkpt>
      <trkpt lat="45.02836" lon="5.85753">
        <ele>1368.09</ele>
        <time>2020-03-12T14:44:15Z</time>
      </trkpt>
      <trkpt lat="45.02836" lon="5.85753">
        <ele>1366.65</ele>
        <time>2020-03-12T14:44:16Z</time>
      </trkpt>
      <trkpt lat="45.02836" lon="5.85753">
        <ele>1356.56</ele>
        <time>2020-03-12T14:44:17Z</time>
      </trkpt>
      <trkpt lat="45.02836" lon="5.85753">
        <ele>1347.43</ele>
        <time>2020-03-12T14:44:19Z</time>
      </trkpt>
      <trkpt lat="45.02836" lon="5.85753">
        <ele>1360.4</ele>
        <time>2020-03-12T14:44:20Z</time>
      </trkpt>
      <trkpt lat="45.02836" lon="5.85753">
        <ele>1363.77</ele>
        <time>2020-03-12T14:44:21Z</time>
      </trkpt>
    </trkseg>
  </trk>
</gpx>